     2.11           OBSERVATION DATA    G (GPS)             RINEX VERSION / TYPE
teqc 2010Oct21 OPUS Account 20111028 15:33:52UTC            PGM / RUN BY / DATE
C 1527                                                      MARKER NAME
3064                                                        MARKER NUMBER
CSMIDDLETON NGS                                             OBSERVER / AGENCY
0440103897 TRIMBLE 5700 1.04                                REC # / TYPE / VERS
12299603 TRM41249.00 NONE                                   ANT # / TYPE
  -738032.6779 -5583874.7633  2982651.0948                  APPROX POSITION XYZ
        1.9990        0.0000        0.0000                  ANTENNA: DELTA H/E/N
     1     1                                                WAVELENGTH FACT L1/2
     5    L1    L2    C1    P1    P2                        # / TYPES OF OBSERV
    15                                                      LEAP SECONDS
  2011     8    23     0     0   30.0000000     GPS         TIME OF FIRST OBS
                                                            END OF HEADER
 11  8 23  0  0 30.0000000  0  9G17G09G12G02G04G05G10G25G30
 -61320882.05157 -47753444.12654  22947442.2974                   22947440.9774
 -28341380.06857 -22055397.04854  23347654.4224                   23347656.1524
 -27830664.67857 -21658553.81256  21583355.9224                   21583353.5204
 -45383410.85258 -35334695.17456  20564740.1804                   20564736.3484
 -52634899.72058 -40983290.54056  21413708.6334                   21413707.8014
 -21658074.99157 -16848056.79755  22141361.9454                   22141361.8204
 -39481532.78857 -30738691.33556  20811241.1414                   20811240.0234
  -1620783.80857  -1234459.16554  24397273.5084                   24397275.4454
   -436612.00856   -311502.43853  24238751.8984                   24238751.7154
 11  8 23  0  1  0.0000000  0  9G17G09G12G02G04G05G10G25G30
 -61338627.76847 -47767271.99644  22944065.2034                   22944064.3834
 -28334154.45147 -22049766.79645  23349028.8204                   23349031.0474
 -27965029.28748 -21763253.50246  21557787.3984                   21557785.4384
 -45455001.22248 -35390479.85346  20551117.0944                   20551113.3324
 -52627646.54448 -40977638.73646  21415088.8984                   21415087.3554
 -21818929.68847 -16973398.01845  22110752.0394                   22110752.2154
 -39556942.61448 -30797452.20346  20796891.0944                   20796889.5594
  -1789969.94447  -1366292.50644  24365078.1174                   24365079.1214
   -607817.06146   -444908.98043  24206172.8134                   24206171.9304
 11  8 23  0  1 30.0000000  0  9G17G09G12G02G04G05G10G25G30
 -61356232.82347 -47780990.26744  22940714.7974                   22940714.2814
 -28326715.52246 -22043970.36544  23350445.7344                   23350447.6174
 -28099012.44147 -21867655.94746  21532290.5784                   21532288.8524
 -45526295.99248 -35446034.19346  20537549.9614                   20537546.1134
 -52620236.24448 -40971864.49145  21416498.4454                   21416497.5594
 -21979526.76147 -17098538.50346  22080191.7664                   22080191.7274
 -39631734.60348 -30855731.66246  20782658.9614                   20782657.5824
  -1959032.16647  -1498029.27544  24332907.0554                   24332908.4384
   -778835.92046   -578170.31843  24173628.8594                   24173628.3284
 11  8 23  0  2  0.0000000  0  9G17G09G12G02G04G05G10G25G30
 -61373698.60947 -47794600.00044  22937390.8834                   22937390.7234
 -28319069.60947 -22038012.61144  23351900.7664                   23351902.1054
 -28232614.36648 -21971761.33446  21506867.3594                   21506865.2974
 -45597298.64648 -35501360.91446  20524039.0084                   20524034.6604
 -52612673.36048 -40965971.35845  21417938.0474                   21417936.9454
 -22139865.56847 -17223477.73646  22049680.0944                   22049680.0864
 -39705910.65748 -30913531.14946  20768543.3594                   20768541.9654
  -2127970.54947  -1629669.52744  24300759.0474                   24300760.9264
   -949668.24646   -711286.31943  24141119.7584                   24141119.2304
 11  8 23  0  2 30.0000000  0  9G17G09G12G02G04G05G10G25G30
 -61391014.53747 -47808093.01144  22934096.4384                   22934096.0274
 -28311210.12447 -22031888.48044  23353396.4224                   23353397.9304
 -28365822.30748 -22075559.71446  21481518.5634                   21481516.7814
 -45668000.45548 -35556453.21746  20510584.5234                   20510580.7194
 -52604950.15948 -40959953.28845  21419407.6174                   21419406.5204
 -22299933.78747 -17348206.12546  22019219.9694                   22019220.0944
 -39779460.46648 -30970842.67546  20754547.2034                   20754546.1134
  -2296772.72847  -1761203.61644  24268636.6484                   24268638.4454
  -1120301.51346   -844247.26743  24108649.0474                   24108648.1884
 11  8 23  0  3  0.0000000  0  9G17G09G12G02G04G05G10G25G30
 -61408181.42447 -47821469.85744  22930829.7344                   22930828.9344
 -28303141.47847 -22025601.33044  23354932.2344                   23354933.7384
 -28498635.28748 -22179050.35446  21456245.1484                   21456243.2664
 -45738403.86448 -35611312.99546  20497187.1644                   20497183.2114
 -52597070.11548 -40953812.99845  21420907.1804                   21420905.8524
 -22459729.37747 -17472722.08946  21988812.0634                   21988812.0554
 -39852384.54448 -31027666.61646  20740670.1644                   20740669.0204
  -2465437.36846  -1892630.51444  24236540.7664                   24236542.6174
  -1290734.25146   -977051.88343  24076217.5084                   24076216.8164
 11  8 23  0  3 30.0000000  0  9G17G09G12G02G04G05G10G25G30
 -59849774.75847 -46607127.07244  23227384.4144                   23227383.9184
 -26719443.98947 -20791551.46944  23656299.1724                   23656300.8484
 -27055623.34448 -21054625.45446  21730841.3204                   21730839.6454
 -44233084.17548 -34438336.60747  20783639.9224                   20783636.2814
 -51013611.96748 -39719949.53745  21722229.3284                   21722227.9344
 -21043821.17347 -16369416.89546  22258250.6254                   22258250.3554
 -38349256.86648 -29856398.28046  21026705.7894                   21026704.5124
  -1058533.07646   -796341.34743  24504266.0314                   24504267.1684
    114465.51846    117909.01143  24343617.3984                   24343616.7584
 11  8 23  0  4  0.0000000  0  9G17G09G12G02G04G05G10G25G30
 -59866636.44047 -46620266.14144  23224175.9454                   23224175.0634
 -26710962.34447 -20784942.48744  23657913.4694                   23657915.2234
 -27187634.15648 -21157491.02346  21705720.2664                   21705718.6764
 -44302889.03248 -34492730.00346  20770356.6254                   20770352.9574
 -51005419.29048 -39713565.63845  21723788.2894                   21723787.0554
 -21203058.32147 -16493497.70246  22227948.7584                   22227948.2424
 -38420923.25148 -29912242.19546  21013068.4454                   21013066.3484
  -1226910.02546   -927544.18143  24472224.0084                   24472226.7894
    -55552.55046    -14572.52243  24311264.9774                   24311264.7074
 11  8 23  0  4 30.0000000  0  9G17G09G12G02G04G05G10G25G30
 -59883344.68547 -46633285.59844  23220996.5474                   23220996.7774
 -26702279.21447 -20778176.51944  23659566.1174                   23659567.7814
 -27319240.20147 -21260041.18446  21680676.5474                   21680674.8444
 -44372395.88048 -34546891.17546  20757130.0314                   20757126.3834
 -50997073.18248 -39707062.20145  21725376.1564                   21725375.2774
 -21362011.52047 -16617357.24146  22197700.5164                   22197700.6294
 -38491959.56547 -29967595.15746  20999550.4384                   20999549.0204
  -1395139.12046  -1058631.72443  24440211.6564                   24440213.5784
   -225358.98946   -146889.23643  24278951.5944                   24278950.4574
 11  8 23  0  5  0.0000000  0  9G17G09G12G02G04G05G10G25G30
 -59899898.90647 -46646185.06545  23217846.6024                   23217846.6024
 -26693398.22347 -20771256.38244  23661255.8984                   23661257.7424
 -27450439.21947 -21362274.18246  21655710.2664                   21655708.2544
 -44441606.18747 -34600821.27746  20743959.7274                   20743955.7274
 -50988576.14048 -39700441.14245  21726993.4694                   21726992.2034
 -21520678.08847 -16740993.43546  22167507.3834                   22167507.0984
 -38562366.07247 -30022457.35546  20986152.3204                   20986151.4574
  -1563218.07746  -1189602.34143  24408226.9064                   24408228.7974
   -394951.19146   -279038.94143  24246679.4774                   24246678.1564
 11  8 23  0  5 30.0000000  0  9G17G09G12G02G04G05G10G25G30
 -59916297.10347 -46658962.97445  23214725.8284                   23214725.4304
 -26684321.57047 -20764183.77544  23662983.8914                   23662984.8324
 -27581227.56747 -21464187.17246  21630822.2974                   21630820.5984
 -44510519.79647 -34654520.19446  20730845.9384                   20730842.2114
 -50979928.81348 -39693702.98045  21728639.1174                   21728637.4654
 -21679054.12647 -16864403.24046  22137369.0164                   22137369.3554
 -38632140.79247 -30076827.24246  20972874.8284                   20972872.9024
  -1731143.07146  -1320452.96743  24376272.1484                   24376275.0274
   -564325.23247   -411018.64043  24214447.9924                   24214448.0594
 11  8 23  0  6  0.0000000  0  9G17G09G12G02G04G05G10G25G30
 -59932542.74547 -46671622.00345  23211635.6484                   23211634.1604
 -26675056.47147 -20756964.29544  23664746.1414                   23664748.7234
 -27711606.54247 -21565781.17046  21606011.6414                   21606009.5594
 -44579141.64947 -34707991.76546  20717787.4384                   20717784.0274
 -50971137.04548 -39686852.27845  21730312.0474                   21730311.5004
 -21837140.07947 -16987586.99546  22107286.3134                   22107286.1684
 -38701286.99747 -30130707.38646  20959716.5864                   20959715.1294
  -1898915.16647  -1451184.45444  24344346.3054                   24344348.6684
   -733481.93646   -542829.01643  24182258.8754                   24182257.8164
 11  8 23  0  6 30.0000000  0  9G17G09G12G02G04G05G10G25G30
 -59948633.38547 -46684160.21044  23208572.8914                   23208572.1054
 -26665604.23247 -20749599.04344  23666545.7424                   23666547.4614
 -27841572.04247 -21667052.98746  21581280.2274                   21581278.1484
 -44647471.22347 -34761235.58147  20704784.7424                   20704781.1214
 -50962201.06348 -39679889.19545  21732012.5314                   21732011.6644
 -21994931.57647 -17110541.29746  22077259.3674                   22077259.6484
 -38769802.56847 -30184096.12546  20946678.8054                   20946677.8794
  -2066529.98047  -1581793.35144  24312450.1024                   24312453.2734
   -902416.63746   -674466.34143  24150111.5554                   24150110.6604
 11  8 23  0  7  0.0000000  0  9G17G09G12G02G04G05G10G25G30
 -59964567.85147 -46696576.73145  23205541.8524                   23205539.8284
 -26655968.04147 -20742090.39544  23668378.9924                   23668380.3444
 -27971121.09047 -21768000.26746  21556627.5004                   21556626.0204
 -44715509.00347 -34814252.02446  20691837.9844                   20691833.7854
 -50953122.34148 -39672814.89845  21733739.4774                   21733738.5394
 -22152425.38247 -17233263.64446  22047289.5704                   22047289.6764
 -38837686.94247 -30236993.01546  20933760.6174                   20933759.3954
  -2233984.70947  -1712277.52844  24280584.7114                   24280586.9534
  -1071126.21846   -805928.27443  24118007.6954                   24118005.9844
 11  8 23  0  7 30.0000000  0  9G17G09G12G02G04G05G10G25G30
 -59980342.18947 -46708868.46145  23202539.0634                   23202539.1844
 -26646147.96947 -20734438.52044  23670247.6644                   23670249.4844
 -28100247.90647 -21868618.54646  21532055.7344                   21532053.6884
 -44783252.73947 -34867039.33847  20678946.8594                   20678942.5234
 -50943899.61448 -39665628.37345  21735495.0234                   21735493.7704
 -22309615.03547 -17355748.98246  22017377.2894                   22017376.9104
 -38904936.59047 -30289395.32446  20920963.2734                   20920962.0744
  -2401273.27147  -1842632.22744  24248750.8984                   24248752.9064
  -1239604.39446   -937209.96543  24085947.3284                   24085946.3444
 11  8 23  0  8  0.0000000  0  9G17G09G12G02G04G05G10G25G30
 -59995963.12747 -46721040.69444  23199566.0164                   23199566.0984
 -26636155.00346 -20726651.89544  23672149.2114                   23672150.5554
 -28228957.84147 -21968911.96546  21507562.9064                   21507560.8954
 -44850711.25247 -34919604.41146  20666109.6094                   20666105.4534
 -50934542.28848 -39658336.97845  21737275.8444                   21737274.7664
 -22466504.97247 -17478000.78446  21987521.6334                   21987521.3874
 -38971558.55947 -30341308.52846  20908285.5944                   20908284.5084
  -2568400.61747  -1972861.32744  24216947.3134                   24216949.6374
  -1407855.90446  -1068315.06642  24053929.7194                   24053928.2664
 11  8 23  0  8 30.0000000  0  9G17G09G12G02G04G05G10G25G30
 -60011428.34347 -46733091.55144  23196623.7424                   23196623.4104
 -26625990.40346 -20718731.50044  23674083.8054                   23674085.6334
 -28357246.03347 -22068876.76446  21483151.0944                   21483148.6254
 -44917883.23148 -34971946.21546  20653327.2974                   20653323.2624
 -50925050.61447 -39650940.88845  21739082.1804                   21739080.9104
 -22623090.47947 -17600015.36846  21957724.1644                   21957724.0394
 -39037550.64248 -30392730.89246  20895727.5314                   20895726.1134
  -2735362.09847  -2102961.15444  24185175.5784                   24185177.3054
  -1575875.85046  -1199239.65943  24021956.2974                   24021955.2934
 11  8 23  0  9  0.0000000  0  9G17G09G12G02G04G05G10G25G30
 -60026739.69447 -46745022.56244  23193710.4064                   23193709.7624
 -26615659.78746 -20710681.78044  23676049.6254                   23676051.1454
 -28485113.23747 -22168513.50546  21458818.5084                   21458816.5434
 -44984772.45148 -35024067.67147  20640598.2274                   20640594.3594
 -50915428.79548 -39643443.38845  21740912.5164                   21740911.7154
 -22779371.33947 -17721792.56046  21927985.4614                   21927984.6804
 -39102915.02648 -30443664.16346  20883289.3054                   20883287.7074
  -2902157.60447  -2232931.64744  24153435.3204                   24153437.2464
  -1743663.98946  -1329983.63643  23990028.3054                   23990027.4534
 11  8 23  0  9 30.0000000  0  9G17G09G12G02G04G05G10G25G30
 -60041891.12847 -46756828.88544  23190826.4534                   23190825.9144
 -26605161.49747 -20702501.36644  23678047.2974                   23678049.2664
 -28612551.41647 -22267815.94046  21434567.3524                   21434565.3674
 -45051374.92748 -35075965.70246  20627924.4614                   20627920.6844
 -50905673.48048 -39635841.87945  21742769.2344                   21742768.0904
 -22935339.01647 -17843325.71446  21898305.4774                   21898305.0864
 -39167646.29548 -30494104.08746  20870971.6094                   20870969.8094
  -3068779.11447  -2362766.58444  24121728.4694                   24121730.5164
  -1911212.09546  -1460540.61943  23958144.1414                   23958143.8324
 11  8 23  0 10  0.0000000  0  9G17G09G12G02G04G05G10G25G30
 -60056884.65347 -46768512.21244  23187973.7664                   23187972.5864
 -26594501.36547 -20694194.89144  23680076.0474                   23680078.0434
 -28739560.95447 -22366784.36046  21410398.1804                   21410396.8524
 -45117694.50947 -35127643.29246  20615304.1484                   20615300.6174
 -50895789.49448 -39628140.10245  21744649.9614                   21744649.7584
 -23090993.36047 -17964614.71846  21868685.3674                   21868684.6604
 -39231746.88648 -30544052.57646  20858773.2194                   20858771.9614
  -3235226.69547  -2492466.00744  24090053.7194                   24090056.3914
  -2078519.86046  -1590910.27843  23926306.9694                   23926305.7234
 11  8 23  0 10 30.0000000  0  9G17G09G12G02G04G05G10G25G30
 -60071719.21947 -46780071.66144  23185150.8284                   23185150.6954
 -26583682.46347 -20685764.66344  23682135.0864                   23682136.2504
 -28866139.21847 -22465416.73646  21386311.1954                   21386309.5824
 -45183731.66547 -35179100.81046  20602738.0864                   20602734.2274
 -50885778.28148 -39620339.17745  21746555.5634                   21746554.3674
 -23246331.30047 -18085657.18046  21839125.1564                   21839124.3484
 -39295215.89048 -30593508.92846  20846695.2584                   20846694.0084
  -3401497.35046  -2622027.51444  24058413.4694                   24058416.0474
  -2245584.19147  -1721090.28643  23894515.5944                   23894515.1564
 11  8 23  0 11  0.0000000  0  9G17G09G12G02G04G05G10G25G30
 -60086395.24647 -46791507.57644  23182357.8834                   23182358.4494
 -26572708.92647 -20677213.91544  23684223.4064                   23684225.3284
 -28992284.57547 -22563711.78146  21362307.0314                   21362304.5904
 -45249488.35548 -35230339.78546  20590224.7034                   20590220.9224
 -50875642.41848 -39612441.13745  21748484.2504                   21748482.8634
 -23401350.87447 -18206451.57546  21809626.1724                   21809625.8204
 -39358054.36348 -30642473.96046  20834737.9844                   20834736.9024
  -3567589.19746  -2751449.68444  24026807.5234                   24026809.2624
  -2412402.97246  -1851078.94043  23862770.5314                   23862769.9774
 11  8 23  0 11 30.0000000  0  9G17G09G12G02G04G05G10G25G30
 -60100909.73447 -46802817.62244  23179595.9304                   23179595.6954
 -26561581.97147 -20668543.64844  23686340.9694                   23686342.7664
 -29117991.97947 -22661665.57446  21338385.2504                   21338383.1024
 -45314963.54847 -35281359.43347  20577765.2664                   20577761.3984
 -50865381.80848 -39604445.88745  21750436.8134                   21750435.6374
 -23556046.68447 -18326993.68346  21780188.2734                   21780187.9414
 -39420260.07148 -30690945.93646  20822900.2274                   20822899.0274
  -3733497.30146  -2880728.68244  23995235.7114                   23995238.3444
  -2578971.01047  -1980872.26544  23831073.6254                   23831073.2624
 11  8 23  0 12  0.0000000  0  9G17G09G12G02G04G05G10G25G30
 -60115261.77647 -46814001.10244  23176865.1954                   23176864.8674
 -26550304.28147 -20659755.99544  23688487.0864                   23688489.9654
 -29243259.35848 -22759276.48646  21314547.8754                   21314545.3874
 -45380158.02748 -35332160.31147  20565358.6644                   20565355.3404
 -50854997.81548 -39596354.47745  21752412.5944                   21752411.8014
 -23710415.32747 -18447280.84446  21750813.0634                   21750812.2194
 -39481832.51348 -30738924.44946  20811183.8524                   20811181.8714
  -3899218.66146  -3009862.17144  23963700.7974                   23963702.9304
  -2745285.19647  -2110467.67044  23799425.4144                   23799425.2504
 11  8 23  0 12 30.0000000  0  9G17G09G12G02G04G05G10G25G30
 -60129448.91547 -46825056.03644  23174165.4924                   23174165.0354
 -26538877.70947 -20650852.26544  23690661.8594                   23690663.8284
 -29368082.93647 -22856541.60246  21290794.4844                   21290791.8364
 -45445071.33048 -35382742.09746  20553006.8134                   20553002.4264
 -50844490.97347 -39588167.37145  21754412.0084                   21754411.0084
 -23864452.81747 -18567309.98346  21721500.6644                   21721500.3524
 -39542769.83848 -30786408.06646  20799587.4924                   20799586.4304
  -4064749.13147  -3138846.85544  23932201.0634                   23932203.2114
  -2911341.05047  -2239861.83344  23767826.3594                   23767825.0554
 11  8 23  0 13  0.0000000  0  9G17G09G12G02G04G05G10G25G30
 -60143472.19647 -46835983.31844  23171496.9384                   23171496.4024
 -26527306.73646 -20641836.00544  23692863.6334                   23692865.9384
 -29492461.13448 -22953459.66646  21267126.0554                   21267124.0664
 -45509705.77547 -35433106.59346  20540707.0314                   20540703.1844
 -50833863.90047 -39579886.59245  21756433.7974                   21756433.6764
 -24018157.01647 -18687079.40446  21692251.7114                   21692250.8834
 -39603073.31848 -30833397.77846  20788112.1334                   20788110.8634
  -4230087.05746  -3267681.49544  23900737.4774                   23900740.7584
  -3077136.76747  -2369053.28544  23736276.1094                   23736274.7624
 11  8 23  0 13 30.0000000  0  9G17G09G12G02G04G05G10G25G30
 -60157335.21747 -46846785.72544  23168859.1024                   23168857.5984
 -26515599.23946 -20632713.37344  23695090.7424                   23695094.2304
 -29616396.31647 -23050032.51846  21243541.9614                   21243540.2544
 -45574066.80348 -35483258.03246  20528459.7504                   20528455.5664
 -50823123.32147 -39571517.35045  21758477.9224                   21758477.6374
 -24171529.67447 -18806590.47546  21663065.9694                   21663064.8754
 -39662747.52248 -30879897.14046  20776756.5864                   20776755.3524
  -4395234.27747  -3396367.57244  23869312.0164                   23869313.1564
  -3242674.06247  -2498043.37544  23704775.1884                   23704774.6564
 11  8 23  0 14  0.0000000  0  9G17G09G12G02G04G05G10G25G30
 -60171035.27147 -46857461.15644  23166251.7344                   23166251.2464
 -26503756.14447 -20623485.09044  23697345.2034                   23697346.9344
 -29739883.73848 -23146256.47746  21220043.1024                   21220040.9964
 -45638153.45248 -35533195.66946  20516264.4454                   20516260.5124
 -50812268.65148 -39563059.22945  21760543.7664                   21760542.5824
 -24324566.03447 -18925839.51346  21633943.6884                   21633943.0434
 -39721790.43248 -30925904.59446  20765521.2194                   20765519.6214
  -4560186.02447  -3524901.36044  23837922.5084                   23837923.9844
  -3407947.81946  -2626828.05243  23673324.7734                   23673324.1524
 11  8 23  0 14 30.0000000  0  9G17G09G12G02G04G05G10G25G30
 -60184569.25347 -46868007.18344  23163676.6954                   23163675.8794
 -26491778.63546 -20614152.10144  23699624.9454                   23699627.0314
 -29862919.39948 -23242128.41946  21196630.6174                   21196628.4344
 -45701964.74448 -35582918.74446  20504121.4774                   20504117.8554
 -50801299.67047 -39554512.03145  21762631.2894                   21762629.8834
 -24477260.76047 -19044822.34846  21604886.9774                   21604886.2274
 -39780199.50548 -30971418.14446  20754406.2584                   20754404.6414
  -4724937.20847  -3653278.86644  23806572.1564                   23806573.2734
  -3572952.93646  -2755403.41843  23641924.8984                   23641924.0904
 11  8 23  0 15  0.0000000  0  9G17G09G12G02G04G05G10G25G30
 -58622518.41547 -45650824.78944  23460925.1334                   23460924.4734
 -24904252.90846 -19377119.18144  24001720.1414                   24001722.3094
 -28410078.86447 -22110044.88146  21473096.7114                   21473094.3954
 -44190081.86547 -34404828.17946  20791822.7504                   20791819.3554
 -49214800.91847 -38318279.26945  22064531.9924                   22064531.2774
 -23054188.19147 -17935934.54546  21875688.7034                   21875688.0354
 -38262555.65448 -29788838.49546  21043204.3524                   21043203.0664
  -3314062.12047  -2553895.62944  24075052.3204                   24075053.3204
  -2162263.40346  -1656164.75343  23910371.1094                   23910368.9024
 11  8 23  0 15 30.0000000  0  9G17G09G12G02G04G05G10G25G30
 -58635720.35446 -45661112.09144  23458413.1884                   23458412.3284
 -24892018.45746 -19367585.99144  24004048.3364                   24004050.8914
 -28532205.24347 -22205208.29546  21449856.6094                   21449854.2854
 -44253347.21748 -34454125.83846  20779783.9534                   20779780.0434
 -49203610.44647 -38309559.47345  22066661.0864                   22066661.0274
 -23206192.89347 -18054379.70146  21846762.7274                   21846762.1484
 -38319699.55548 -29833366.19946  21032329.9144                   21032328.5314
  -3478406.03047  -2681955.75744  24043778.9384                   24043780.2544
  -2326724.12546  -1784315.90343  23879075.2664                   23879074.4654
 11  8 23  0 16  0.0000000  0  9G17G09G12G02G04G05G10G25G30
 -58648757.73847 -45671271.16444  23455931.3914                   23455930.9774
 -24879662.81946 -19357958.31344  24006399.8284                   24006402.1294
 -28653875.74947 -22300016.48146  21426703.3594                   21426700.8484
 -44316343.46747 -34503213.81246  20767796.7114                   20767792.5204
 -49192314.11647 -38300757.20245  22068811.1884                   22068810.4264
 -23357850.53447 -18172554.42546  21817904.0004                   21817902.7344
 -38376213.28148 -29877402.84146  21021575.5314                   21021574.5664
  -3642544.34847  -2809855.68744  24012544.2274                   24012545.0204
  -2490910.62146  -1912253.33743  23847830.9384                   23847830.8244
 11  8 23  0 16 30.0000000  0  9G17G09G12G02G04G05G10G25G30
 -58661630.31547 -45681301.77444  23453482.4694                   23453482.0434
 -24867189.52346 -19348239.03644  24008773.6484                   24008776.6174
 -28775088.22447 -22394467.75546  21403637.6884                   21403635.9924
 -44379072.32348 -34552093.42646  20755859.8134                   20755855.2384
 -49180914.04047 -38291874.06245  22070980.8444                   22070979.8634
 -23509158.69647 -18290456.81846  21789110.0864                   21789109.1994
 -38432097.21448 -29920948.76546  21010941.2114                   21010940.1054
  -3806474.83047  -2937593.69744  23981349.1414                   23981349.8204
  -2654820.27046  -2039975.03243  23816639.2734                   23816639.3674
 11  8 23  0 17  0.0000000  0  9G17G09G12G02G04G05G10G25G30
 -58674337.08746 -45691203.26544  23451064.1254                   23451063.6604
 -24854601.44046 -19338430.24644  24011169.2424                   24011171.6374
 -28895840.58948 -22488560.51646  21380659.2034                   21380656.8524
 -44441534.37348 -34600765.14847  20743973.2814                   20743969.0704
 -49169411.65347 -38282911.22545  22073169.5004                   22073168.6054
 -23660114.27147 -18408084.48146  21760384.4304                   21760383.3554
 -38487351.19448 -29964003.78846  21000426.7114                   21000425.0824
  -3970194.35647  -3065167.30244  23950194.1644                   23950195.5164
  -2818449.92946  -2167478.64143  23785501.6804                   23785500.6524
 11  8 23  0 17 30.0000000  0  9G17G09G12G02G04G05G10G25G30
 -58686879.11647 -45700976.34444  23448678.2504                   23448677.4224
 -24841903.55746 -19328535.95244  24013585.7894                   24013587.8524
 -29016132.10648 -22582294.16546  21357768.5234                   21357766.6134
 -44503732.44448 -34649231.17046  20732137.1254                   20732133.6994
 -49157810.40847 -38273871.35045  22075376.6564                   22075376.2114
 -23810715.94447 -18525436.36246  21731725.8594                   21731724.8244
 -38541977.40848 -30006569.67346  20990031.9144                   20990030.7664
  -4133701.88147  -3192575.72844  23919079.3754                   23919081.3284
  -2981798.24346  -2294762.93443  23754417.9844                   23754417.0314
 11  8 23  0 18  0.0000000  0  9G17G09G12G02G04G05G10G25G30
 -58699254.99147 -45710619.92944  23446323.0944                   23446322.1484
 -24829098.61047 -19318558.19344  24016022.7424                   24016024.3554
 -29135959.76848 -22675666.35246  21334965.9694                   21334963.9144
 -44565666.80948 -34697491.70746  20720351.4924                   20720347.6724
 -49146111.33447 -38264755.23945  22077603.5084                   22077602.5704
 -23960960.33847 -18642509.85546  21703135.2664                   21703135.0234
 -38595975.31748 -30048645.96546  20979756.4224                   20979755.1604
  -4296993.89447  -3319816.22544  23888006.6414                   23888007.7894
  -3144861.58847  -2421825.24843  23723388.2974                   23723387.3754
 11  8 23  0 18 30.0000000  0  9G17G09G12G02G04G05G10G25G30
 -58711465.83047 -45720134.94844  23443999.5234                   23443999.3634
 -24816191.06747 -19308500.52044  24018479.0004                   24018481.5904
 -29255323.02648 -22768676.67646  21312251.8444                   21312249.9734
 -44627340.11048 -34745548.80547  20708615.5704                   20708611.9804
 -49134317.75848 -38255565.48245  22079847.9144                   22079846.9694
 -24110846.18647 -18759303.96246  21674612.8594                   21674612.0124
 -38649347.01048 -30090234.29946  20969600.1024                   20969598.8754
  -4460069.33947  -3446887.92044  23856974.1564                   23856975.2894
  -3307638.77447  -2548664.56444  23692411.9614                   23692411.7424
 11  8 23  0 19  0.0000000  0  9G17G09G12G02G04G05G10G25G30
 -58723510.16547 -45729520.16844  23441708.0864                   23441707.1134
 -24803183.40047 -19298364.77143  24020953.9304                   24020956.5554
 -29374218.77748 -22861322.69746  21289626.9064                   21289624.9304
 -44688753.00248 -34793402.99546  20696929.0314                   20696925.2664
 -49122430.67247 -38246302.83845  22082110.0084                   22082109.2344
 -24260369.90147 -18875815.87446  21646159.6644                   21646158.3914
 -38702091.71148 -30131334.07046  20959563.1724                   20959562.1174
  -4622924.72347  -3573788.17044  23825983.2194                   23825985.8984
  -3470126.09047  -2675278.00244  23661491.7814                   23661491.5704
 11  8 23  0 19 30.0000000  0  9G17G09G12G02G04G05G10G25G30
 -58735388.43147 -45738775.98344  23439447.2034                   23439446.9734
 -24790080.08147 -19288154.55543  24023447.9454                   24023450.0314
 -29492646.26547 -22953603.84746  21267090.8364                   21267089.2664
 -44749907.46948 -34841055.80946  20685291.9454                   20685287.8674
 -49110452.89747 -38236969.54245  22084389.6884                   22084388.4494
 -24409529.70347 -18992044.23046  21617775.5634                   21617774.8484
 -38754210.91548 -30171946.44446  20949645.3204                   20949643.7464
  -4785558.35947  -3700515.62244  23795034.7114                   23795036.8484
  -3632321.64947  -2801664.11444  23630627.0164                   23630626.0394
 11  8 23  0 20  0.0000000  0  9G17G09G12G02G04G05G10G25G30
 -58747099.89347 -45747901.83244  23437218.2114                   23437218.4884
 -24776884.14847 -19277872.15743  24025958.7504                   24025960.9964
 -29610602.81247 -23045518.02146  21244644.5394                   21244642.0164
 -44810804.60348 -34888508.10746  20673703.4144                   20673699.4574
 -49098385.81147 -38227566.63145  22086685.2424                   22086684.2894
 -24558322.59047 -19107986.67146  21589461.0704                   21589460.4144
 -38805704.45948 -30212071.28846  20939846.6884                   20939845.2974
  -4947967.10247  -3827067.85844  23764129.9224                   23764132.2464
  -3794222.30147  -2927820.42644  23599818.6484                   23599818.0824
 11  8 23  0 20 30.0000000  0  9G17G09G12G02G04G05G10G25G30
 -58758642.14247 -45756895.81044  23435022.0554                   23435022.1994
 -24763597.11847 -19267518.72543  24028487.5864                   24028489.7504
 -29728084.42647 -23137062.12846  21222288.8134                   21222286.4144
 -44871443.61748 -34935759.28847  20662164.7114                   20662160.5514
 -49086229.39147 -38218094.14545  22088998.4534                   22088998.1254
 -24706744.00047 -19223639.66046  21561217.2734                   21561216.0354
 -38856571.26448 -30251707.76646  20930166.7034                   20930165.0164
  -5110146.59547  -3953441.42244  23733268.1024                   23733270.1294
  -3955823.35547  -3053743.30843  23569067.0944                   23569065.4694
 11  8 23  0 21  0.0000000  0  9G17G09G12G02G04G05G10G25G30
 -58770015.44646 -45765758.18444  23432857.8834                   23432857.0864
 -24750222.76347 -19257097.32743  24031033.1954                   24031034.3794
 -29845089.55948 -23228234.93646  21200023.2894                   21200021.1844
 -44931826.30948 -34982810.72947  20650673.3674                   20650669.5824
 -49073985.97147 -38208553.85545  22091328.6484                   22091327.6094
 -24854792.02447 -19339001.69346  21533044.6254                   21533043.6334
 -38906812.41948 -30290856.71446  20920606.4224                   20920604.5274
  -5272094.67047  -4079634.70944  23702450.6724                   23702452.0044
  -4117122.59147  -3179430.99843  23538372.6094                   23538371.0594
 11  8 23  0 21 30.0000000  0  9G17G09G12G02G04G05G10G25G30
 -58781218.77746 -45774488.06744  23430725.5704                   23430726.3874
 -24736764.19447 -19246610.21544  24033594.2814                   24033596.4574
 -29961616.36048 -23319035.01946  21177848.6724                   21177846.7934
 -44991953.90848 -35029663.40547  20639231.7424                   20639228.1994
 -49061657.12347 -38198946.98845  22093674.5164                   22093673.9454
 -25002463.71947 -19454070.48446  21504943.2894                   21504942.4774
 -38956428.55848 -30329518.64146  20911164.5864                   20911163.5944
  -5433808.59647  -4205645.53244  23671677.7974                   23671678.4494
  -4278117.01947  -3304881.15043  23507736.7664                   23507735.6604
 11  8 23  0 22  0.0000000  0  9G17G09G12G02G04G05G10G25G30
 -58792251.25046 -45783084.86944  23428626.0864                   23428625.4184
 -24723224.34747 -19236059.83944  24036170.2194                   24036172.5004
 -30077661.92247 -23409460.11446  21155765.8914                   21155764.0944
 -45051827.09048 -35076317.82747  20627838.2274                   20627834.6684
 -49049244.11547 -38189274.53945  22096036.6174                   22096036.1134
 -25149755.68347 -19568843.38446  21476914.5004                   21476913.6684
 -39005419.31948 -30367693.26246  20901841.6644                   20901840.0274
  -5595284.99347  -4331471.22044  23640949.3284                   23640950.7234
  -4438803.28446  -3430091.16743  23477158.7584                   23477158.7304
 11  8 23  0 22 30.0000000  0  9G17G09G12G02G04G05G10G25G30
 -58803110.68246 -45791546.80444  23426559.7584                   23426559.6564
 -24709604.52146 -19225447.09944  24038762.3284                   24038764.9224
 -30193222.54548 -23499507.32546  21133775.4614                   21133773.6054
 -45111444.81948 -35122773.21446  20616493.4064                   20616489.6914
 -49036746.84447 -38179536.43045  22098414.9694                   22098414.2774
 -25296663.82148 -19683317.20646  21448958.6954                   21448958.6994
 -39053783.24648 -30405379.42746  20892638.4844                   20892636.9574
  -5756519.58347  -4457108.56544  23610267.4454                   23610268.5314
  -4599176.82246  -3555057.53943  23446640.5004                   23446639.9384
 11  8 23  0 23  0.0000000  0  9G17G09G12G02G04G05G10G25G30
 -58813796.55346 -45799873.50144  23424526.5474                   23424526.6174
 -24695907.98646 -19214774.62143  24041368.8914                   24041371.6294
 -30308296.14647 -23589175.04946  21111877.6724                   21111875.8794
 -45170808.48148 -35169030.60746  20605196.8444                   20605193.1054
 -49024166.73847 -38169733.77645  22100808.5864                   22100807.0594
 -25443185.25447 -19797489.68446  21421076.7114                   21421076.3244
 -39101520.88648 -30442577.60046  20883554.4924                   20883553.2934
  -5917509.40947  -4582555.16544  23579631.5704                   23579633.9534
  -4759234.55647  -3679777.81443  23416182.9144                   23416181.6454
 11  8 23  0 23 30.0000000  0  9G17G09G12G02G04G05G10G25G30
 -58824312.23846 -45808067.60444  23422525.7114                   23422525.8834
 -24682141.99646 -19204048.02243  24043988.5004                   24043990.5514
 -30422884.76448 -23678464.85446  21090071.8914                   21090069.7624
 -45229923.26948 -35215094.09046  20593947.8284                   20593943.6564
 -49011509.77747 -38159871.20345  22103218.1484                   22103216.4924
 -25589321.40648 -19911361.95546  21393268.1254                   21393267.3094
 -39148637.24648 -30479291.65346  20874588.5634                   20874587.0044
  -6078255.92847  -4707812.16644  23549043.3984                   23549044.1374
  -4918977.85046  -3804253.05744  23385784.5004                   23385784.0084
 11  8 23  0 24  0.0000000  0  9G17G09G12G02G04G05G10G25G30
 -58834657.04346 -45816128.52644  23420556.8444                   23420556.5004
 -24668309.62646 -19193269.76443  24046620.3674                   24046622.8674
 -30536985.80248 -23767374.74046  21068359.5634                   21068357.4344
 -45288790.34248 -35260964.54046  20582745.7424                   20582742.0664
 -48998777.40347 -38149949.90345  22105640.4774                   22105639.9844
 -25735069.51348 -20024931.84946  21365533.0164                   21365532.1884
 -39195132.89148 -30515522.03346  20865740.7584                   20865739.1174
  -6238756.16147  -4832877.22644  23518501.1414                   23518502.6994
  -5078403.47646  -3928480.80144  23355446.2034                   23355446.2934
 11  8 23  0 24 30.0000000  0  9G17G09G12G02G04G05G10G25G30
 -58844830.25347 -45824055.72244  23418621.1334                   23418620.5634
 -24654413.67346 -19182441.94343  24049265.4534                   24049267.9414
 -30650597.46448 -23855903.29146  21046739.7974                   21046737.5004
 -45347410.50148 -35306642.58746  20571590.6334                   20571586.6524
 -48985971.03447 -38139970.94045  22108077.1804                   22108076.8164
 -25880426.24148 -20138196.77746  21337872.6254                   21337871.8094
 -39241008.09048 -30551268.96646  20857010.7504                   20857009.5704
  -6399007.09547  -4957748.04744  23488005.9454                   23488007.7584
  -5237508.39247  -4052458.59244  23325170.4774                   23325169.8014
 11  8 23  0 25  0.0000000  0  9G17G09G12G02G04G05G10G25G30
 -58854830.80347 -45831848.39744  23416718.4774                   23416717.9534
 -24640456.70446 -19171566.60643  24051921.6564                   24051924.4064
 -30763716.98048 -23944048.35446  21025214.1414                   21025212.2664
 -45405784.16848 -35352128.55846  20560482.7114                   20560478.5634
 -48973091.47247 -38129934.92545  22110528.1724                   22110526.6484
 -26025388.54448 -20251154.35046  21310286.9144                   21310286.5204
 -39286262.75248 -30586532.34646  20848399.0004                   20848397.4534
  -6559005.36047  -5082421.98744  23457559.3134                   23457560.5124
  -5396289.02846  -4176183.71544  23294955.5394                   23294953.7384
 11  8 23  0 25 30.0000000  0  9G17G09G12G02G04G05G10G25G30
 -58864657.04347 -45839505.24144  23414848.5004                   23414847.5514
 -24626441.07346 -19160645.44543  24054588.7114                   24054590.7974
 -30876340.86048 -24031807.21746  21003782.4614                   21003780.5594
 -45463911.39848 -35397422.50546  20549421.5634                   20549417.4964
 -48960139.25547 -38119842.30145  22112992.6024                   22112992.3594
 -26169952.73848 -20363801.70646  21282777.3054                   21282776.4734
 -39330896.50148 -30621311.88346  20839905.6954                   20839904.3714
  -6718747.11647  -5206896.09544  23427161.1414                   23427162.4384
  -5554741.52046  -4299653.16444  23264802.7894                   23264801.9534
 11  8 23  0 26  0.0000000  0  9G17G09G12G02G04G05G10G25G30
 -58874308.92547 -45847026.22644  23413011.6954                   23413010.6214
 -24612370.53446 -19149681.59643  24057266.6564                   24057269.5084
 -30988468.52648 -24119179.40446  20982445.2194                   20982443.1604
 -45521794.00148 -35442525.83446  20538406.1644                   20538402.9964
 -48947116.88347 -38109695.05945  22115470.6884                   22115470.3014
 -26314116.76148 -20476137.25146  21255344.0084                   21255342.7624
 -39374910.77548 -30655608.73446  20831530.1954                   20831528.7344
  -6878230.38947  -5331168.73744  23396812.6334                   23396814.4144
  -5712863.70947  -4422865.24144  23234713.1724                   23234712.7114
 11  8 23  0 26 30.0000000  0  9G17G09G12G02G04G05G10G25G30
 -58883785.73747 -45854410.81744  23411208.3134                   23411208.4024
 -24598247.84846 -19138677.07343  24059953.5704                   24059956.8594
 -31100097.36348 -24206162.90446  20961202.6884                   20961200.6214
 -45579432.75148 -35487439.14346  20527438.3834                   20527434.5664
 -48934025.43547 -38099493.96345  22117962.9144                   22117961.5704
 -26457877.68648 -20588158.69346  21227986.8444                   21227985.6094
 -39418305.83748 -30689423.04546  20823272.0164                   20823270.8594
  -7037451.94047  -5455237.45244  23366513.8524                   23366515.4534
  -5870652.35746  -4545817.39943  23204686.5864                   23204685.1214
 11  8 23  0 27  0.0000000  0  9G17G09G12G02G04G05G10G25G30
 -57317669.01547 -44634060.18044  23709230.4694                   23709230.6134
 -23008659.13347 -17900036.69844  24362443.8444                   24362445.7624
 -29635803.94748 -23065155.03146  21239848.6094                   21239846.5004
 -44061409.20448 -34304563.64546  20816308.5784                   20816304.7344
 -47345449.41347 -36861642.55945  22420258.1094                   22420257.5594
 -25025810.48248 -19472262.10946  21500500.2424                   21500499.5944
 -37885663.58648 -29495156.35446  21114924.3054                   21114923.2774
  -5620986.24747  -4351497.90545  23636058.4304                   23636060.1844
  -4452681.69346  -3440905.21544  23474517.4224                   23474517.1524
 11  8 23  0 27 30.0000000  0  9G17G09G12G02G04G05G10G25G30
 -57326796.68247 -44641172.71244  23707493.3054                   23707493.3364
 -22994444.29146 -17888960.38843  24365148.1884                   24365151.3874
 -29746431.68948 -23151358.46246  21218796.7974                   21218794.9694
 -44118566.64748 -34349101.91246  20805431.6484                   20805427.9614
 -47332227.37047 -36851339.71545  22422774.8284                   22422773.9224
 -25168759.92148 -19583651.22546  21473298.0554                   21473297.2194
 -37927825.08248 -29528009.45346  21106901.0634                   21106899.8634
  -5779678.89347  -4475154.48144  23605859.8594                   23605860.9024
  -4609797.19347  -3563332.85144  23444619.3524                   23444618.3984
 11  8 23  0 28  0.0000000  0  9G17G09G12G02G04G05G10G25G30
 -57335751.20447 -44648150.28944  23705789.6484                   23705789.0354
 -22980190.23246 -17877853.50244  24367861.1414                   24367863.2854
 -29856558.09248 -23237171.23346  21197840.5634                   21197838.3094
 -44175487.13148 -34393455.54246  20794599.9384                   20794596.5314
 -47318944.17247 -36840989.22645  22425302.0704                   22425301.6644
 -25311302.02848 -19694722.94546  21446173.1564                   21446171.8524
 -37969373.22248 -29560384.60146  21098994.9534                   21098993.4574
  -5938105.05047  -4598603.38744  23575712.2034                   23575714.3634
  -4766573.95347  -3685496.54044  23414785.8444                   23414785.1724
 11  8 23  0 28 30.0000000  0  9G17G09G12G02G04G05G10G25G30
 -57344529.95446 -44654990.90144  23704119.4304                   23704119.2704
 -22965897.93146 -17866716.78644  24370580.1564                   24370584.1644
 -29966179.29448 -23322590.34046  21176980.4304                   21176978.1994
 -44232169.68448 -34437623.75546  20783813.9144                   20783810.1254
 -47305599.47047 -36830590.79145  22427841.1484                   22427840.2934
 -25453431.95348 -19805473.47846  21419126.3594                   21419125.7734
 -38010306.94048 -29592280.99146  21091205.3834                   21091204.6334
  -6096259.90047  -4721840.90444  23545615.8524                   23545618.6524
  -4923007.00847  -3807392.36744  23385017.8444                   23385017.2304
 11  8 23  0 29  0.0000000  0  9G17G09G12G02G04G05G10G25G30
 -57353133.44346 -44661694.95644  23702481.3524                   23702481.6054
 -22951571.51646 -17855553.49843  24373307.3674                   24373310.2034
 -30075293.94148 -23407614.73946  21156216.4304                   21156214.8014
 -44288616.45548 -34481608.24346  20773072.4774                   20773068.3524
 -47292195.69947 -36820146.35545  22430392.7424                   22430391.3714
 -25595147.91348 -19915901.44546  21392158.7664                   21392158.0664
 -38050627.79448 -29623699.80646  21083532.6024                   21083530.8014
  -6254141.60447  -4844865.53444  23515572.9454                   23515574.6414
  -5079094.56046  -3929018.99644  23355315.3284                   23355314.8324
 11  8 23  0 29 30.0000000  0  9G17G09G12G02G04G05G10G25G30
 -57361561.33346 -44668262.25844  23700878.5704                   23700878.5554
 -22937214.37947 -17844366.27444  24376038.8444                   24376042.3634
 -30183900.71148 -23492243.38346  21135549.3364                   21135547.0434
 -44344828.92448 -34525410.16546  20762375.8984                   20762371.4384
 -47278734.72347 -36809657.34045  22432954.0004                   22432952.6564
 -25736447.77348 -20026005.17746  21365270.0784                   21365269.0314
 -38090337.21148 -29654642.17146  21075976.2734                   21075974.4774
  -6411747.61947  -4967675.32645  23485581.3754                   23485583.2504
  -5234833.82046  -4050374.23244  23325679.0944                   23325678.0634
 11  8 23  0 30  0.0000000  0  9G17G09G12G02G04G05G10G25G30
 -57369813.45846 -44674692.50844  23699307.8444                   23699308.8594
 -22922829.95847 -17833157.74644  24378776.2034                   24378779.6454
 -30291998.25048 -23576475.22746  21114978.6484                   21114977.1334
 -44400808.48148 -34569030.59446  20751723.0234                   20751718.9144
 -47265218.54247 -36799125.31044  22435525.9304                   22435525.4654
 -25877329.39748 -20135783.00746  21338461.1254                   21338460.1454
 -38129436.22547 -29685108.91246  21068535.8364                   21068534.4534
  -6569075.64947  -5090268.56645  23455642.9384                   23455643.6724
  -5390222.53446  -4171456.31044  23296109.6174                   23296109.2194
 11  8 23  0 30 30.0000000  0  9G17G09G12G02G04G05G10G25G30
 -57377886.85146 -44680983.55144  23697771.6254                   23697771.9454
 -22908418.84046 -17821928.41444  24381518.7814                   24381522.0514
 -30399582.08548 -23660306.78946  21094506.4064                   21094503.6524
 -44456553.48448 -34612468.24646  20741114.7814                   20741110.9024
 -47251645.61547 -36788549.07144  22438109.2114                   22438108.4694
 -26017787.59148 -20245230.89646  21311733.0474                   21311732.2304
 -38167923.30147 -29715098.80746  21061211.7894                   21061209.9304
  -6726120.22047  -5212640.92945  23425757.8204                   23425759.2274
  -5545254.98746  -4292260.76344  23266607.2114                   23266607.1724
 11  8 23  0 31  0.0000000  0  9G17G09G12G02G04G05G10G25G30
 -57385783.76946 -44687137.06244  23696268.7114                   23696269.7274
 -22893987.02446 -17810682.98843  24384264.6564                   24384268.1174
 -30506653.21848 -23743738.83446  21074131.2974                   21074129.0864
 -44512068.31648 -34655726.54546  20730550.7734                   20730546.4614
 -47238020.60547 -36777932.20145  22440701.0634                   22440701.4534
 -26157822.58148 -20354349.01446  21285084.8754                   21285083.5354
 -38205802.49347 -29744615.02746  21054003.7114                   21054002.4654
  -6882881.53947  -5334792.56845  23395927.6644                   23395928.5474
  -5699931.41047  -4412787.79444  23237173.8364                   23237173.0984
 11  8 23  0 31 30.0000000  0  9G17G09G12G02G04G05G10G25G30
 -57393503.04046 -44693152.20444  23694799.5634                   23694800.7344
 -22879536.46246 -17799422.92843  24387014.3834                   24387018.6024
 -30613208.50648 -23826768.92946  21053854.6484                   21053852.5904
 -44567353.04948 -34698805.53046  20720030.5554                   20720026.5554
 -47224343.97447 -36767275.12845  22443304.6414                   22443303.4734
 -26297431.20948 -20463134.90546  21258518.6094                   21258517.4184
 -38243073.87448 -29773657.65846  21046911.1254                   21046910.2154
  -7039356.01047  -5456720.68245  23366151.5474                   23366152.7934
  -5854248.05847  -4533034.48244  23207808.5394                   23207807.7854
 11  8 23  0 32  0.0000000  0  9G17G09G12G02G04G05G10G25G30
 -57401048.16246 -44699031.57844  23693364.2814                   23693364.5434
 -22865074.66746 -17788154.03943  24389767.0944                   24389770.9654
 -30719250.88048 -23909399.35546  21033675.5234                   21033673.8324
 -44622412.91648 -34741709.31546  20709553.2114                   20709549.1994
 -47210621.38847 -36756582.27345  22445915.6254                   22445915.1054
 -26436614.89548 -20571589.67946  21232032.7664                   21232031.8874
 -38279742.29648 -29802230.43046  21039933.6254                   21039932.0044
  -7195544.80747  -5578426.15645  23336429.5314                   23336430.9494
  -6008206.07147  -4653001.72144  23178511.4384                   23178510.5554
 11  8 23  0 32 30.0000000  0  9G17G09G12G02G04G05G10G25G30
 -57408414.78846 -44704771.86144  23691962.0634                   23691963.0944
 -22850601.21746 -17776876.16243  24392521.9454                   24392524.7074
 -30824774.76648 -23991625.75346  21013594.6334                   21013592.8134
 -44677245.55848 -34784436.03546  20699118.8054                   20699115.3634
 -47196850.57647 -36745851.78445  22448536.5474                   22448535.1334
 -26575367.51448 -20679708.55246  21205628.7424                   21205627.6884
 -38315805.17047 -29830331.36046  21033070.7974                   21033069.3914
  -7351441.76847  -5699904.26745  23306763.5164                   23306764.8524
  -6161799.22247  -4772684.62144  23149282.9844                   23149282.3984
 11  8 23  0 33  0.0000000  0  9G17G09G12G02G04G05G10G25G30
 -57415605.75746 -44710375.29244  23690593.8754                   23690594.0354
 -22836121.65646 -17765593.50443  24395276.4384                   24395279.5514
 -30929781.37048 -24073449.08446  20993613.3054                   20993610.2504
 -44731854.82248 -34826988.68746  20688726.6564                   20688723.1884
 -47183036.01247 -36735087.20244  22451165.0784                   22451164.2074
 -26713689.60848 -20787491.95646  21179306.9144                   21179306.3984
 -38351266.64247 -29857963.68646  21026323.3284                   21026321.7114
  -7507047.03247  -5821155.07045  23277152.5864                   23277153.8954
  -6315027.51147  -4892083.24444  23120123.9224                   23120123.8754
 11  8 23  0 33 30.0000000  0  9G17G09G12G02G04G05G10G25G30
 -57422618.45446 -44715839.79744  23689259.7194                   23689260.0124
 -22821637.31846 -17754307.05243  24398033.1334                   24398036.9614
 -31034266.47348 -24154866.05346  20973729.9924                   20973727.8484
 -44786239.83648 -34869366.60646  20678377.6254                   20678374.1524
 -47169176.89147 -36724287.94245  22453802.3444                   22453802.1804
 -26851576.63548 -20894936.35246  21153067.7504                   21153066.9494
 -38386125.65347 -29885126.55346  21019689.4064                   21019688.0204
  -7662355.56947  -5942174.67244  23247598.5554                   23247599.1374
  -6467885.95347  -5011193.66944  23091036.8054                   23091036.8164
 11  8 23  0 34  0.0000000  0  9G17G09G12G02G04G05G10G25G30
 -57429453.12347 -44721165.51644  23687959.1644                   23687959.7664
 -22807151.55346 -17743019.55543  24400788.7034                   24400793.3634
 -31138229.17448 -24235875.96146  20953946.7194                   20953944.5044
 -44840402.31348 -34911571.12746  20668070.9144                   20668067.0234
 -47155275.14047 -36713455.44245  22456447.7814                   22456447.1564
 -26989026.55048 -21002040.13246  21126912.3444                   21126911.0394
 -38420384.00248 -29911821.35546  21013170.3204                   21013168.5984
  -7817365.16147  -6062961.31345  23218100.8054                   23218102.6684
  -6620372.21347  -5130014.05444  23062019.1094                   23062018.5434
 11  8 23  0 34 30.0000000  0  9G17G09G12G02G04G05G10G25G30
 -57436108.61847 -44726351.66044  23686692.9534                   23686692.3984
 -22792666.83846 -17731732.90843  24403544.2194                   24403548.9344
 -31241667.22448 -24316477.03946  20934263.0704                   20934260.8874
 -44894342.71248 -34953602.57846  20657806.2584                   20657803.0274
 -47141331.82847 -36702590.53644  22459101.0084                   22459099.9384
 -27126036.34648 -21108800.97146  21100839.8914                   21100839.1214
 -38454042.33848 -29938048.64346  21006765.5474                   21006764.1844
  -7972072.73047  -6183512.62344  23188661.1724                   23188661.7154
  -6772483.16247  -5248542.04844  23033073.5084                   23033072.3714
 11  8 23  0 35  0.0000000  0  9G17G09G12G02G04G05G10G25G30
 -57442584.00347 -44731397.42844  23685461.0164                   23685460.8164
 -22778185.93646 -17720449.22443  24406300.9144                   24406305.5354
 -31344578.22948 -24396667.42746  20914679.9064                   20914677.5944
 -44948061.57248 -34995461.41546  20647584.2584                   20647580.4734
 -47127347.61247 -36691693.76145  22461763.1174                   22461761.6764
 -27262603.31948 -21215216.74546  21074852.2974                   21074850.9534
 -38487101.07548 -29963808.69246  21000474.4064                   21000472.6724
  -8126474.84547  -6303825.95444  23159279.4924                   23159279.8674
  -6924215.29047  -5366774.85344  23004200.2894                   23004199.1884
 11  8 23  0 35 30.0000000  0  9G17G09G12G02G04G05G10G25G30
 -57448881.18446 -44736304.35944  23684262.2504                   23684263.1844
 -22763713.71646 -17709172.28743  24409056.1174                   24409059.2894
 -31446962.89048 -24476447.67546  20895196.5704                   20895194.2814
 -45001562.66248 -35037150.56546  20637402.8284                   20637398.9384
 -47113326.12747 -36680767.93545  22464430.5164                   22464429.8984
 -27398727.29248 -21321287.32846  21048948.4924                   21048947.4454
 -38519563.94548 -29989104.43446  20994296.9454                   20994295.8444
  -8280571.06847  -6423900.88844  23129955.2974                   23129956.7974
  -7075568.16647  -5484712.10944  22975398.4454                   22975397.0204
 11  8 23  0 36  0.0000000  0  9G17G09G12G02G04G05G10G25G30
 -57454998.36746 -44741071.00244  23683098.2504                   23683097.9184
 -22749252.45446 -17697903.86343  24411807.2344                   24411811.9184
 -31548818.73348 -24555815.85946  20875814.2344                   20875811.6644
 -45054845.74448 -35078669.83546  20627263.7894                   20627260.1604
 -47099267.83447 -36669813.46845  22467105.5004                   22467104.4574
 -27534404.72448 -21427009.96046  21023129.9844                   21023128.9414
 -38551431.04048 -30013935.94246  20988232.9694                   20988231.9694
  -8434357.69347  -6543734.60945  23100690.5164                   23100692.6604
  -7226538.02347  -5602350.90044  22946670.0784                   22946668.7234
 11  8 23  0 36 30.0000000  0  9G17G09G12G02G04G05G10G25G30
 -57460937.14046 -44745698.65944  23681967.6024                   23681968.0314
 -22734807.13946 -17686647.87443  24414556.3984                   24414559.8634
 -31650146.03048 -24634772.18346  20856532.2424                   20856529.9534
 -45107913.88148 -35120021.62146  20617165.6724                   20617161.4384
 -47085175.82047 -36658832.66944  22469787.2194                   22469786.6334
 -27669634.87048 -21532384.04446  20997396.4924                   20997395.0124
 -38582705.62648 -30038305.75646  20982281.5864                   20982280.1884
  -8587833.72547  -6663326.27345  23071484.7194                   23071486.2464
  -7377123.90847  -5719690.52744  22918014.4694                   22918012.7894
 11  8 23  0 37  0.0000000  0  9G17G09G12G02G04G05G10G25G30
 -57466696.64546 -44750186.57244  23680872.2194                   23680871.5394
 -22720380.13746 -17675406.24743  24417302.2274                   24417306.3054
 -31750942.27448 -24713314.71046  20837351.3754                   20837348.8674
 -45160767.47748 -35161206.23946  20607107.1564                   20607103.9534
 -47071050.81747 -36647826.20645  22472475.0394                   22472474.8524
 -27804415.02348 -21637407.50246  20971748.7584                   20971747.6604
 -38613388.19448 -30062214.26546  20976443.0394                   20976441.7074
  -8740995.83147  -6782673.33145  23042338.8984                   23042340.6334
  -7527322.42147  -5836728.27744  22889432.1804                   22889431.4804
 11  8 23  0 37 30.0000000  0  9G17G09G12G02G04G05G10G25G30
 -57472276.10146 -44754534.21544  23679810.2974                   23679810.5314
 -22705974.12646 -17664180.92343  24420042.9614                   24420047.0514
 -31851205.71348 -24791442.06146  20818271.9454                   20818269.4104
 -45213407.26648 -35202224.24846  20597090.5474                   20597086.6764
 -47056894.02547 -36636794.97645  22475168.5704                   22475169.3794
 -27938742.50248 -21742078.22146  20946186.9144                   20946186.0904
 -38643479.74748 -30085662.23146  20970716.6414                   20970715.6564
  -8893841.00447  -6901773.46445  23013254.1884                   23013255.4614
  -7677130.41047  -5953461.74044  22860924.9774                   22860923.7894
 11  8 23  0 38  0.0000000  0  9G17G09G12G02G04G05G10G25G30
 -57477676.42746 -44758742.25044  23678782.7664                   23678782.9184
 -22691593.30046 -17652975.20343  24422780.5784                   24422784.4414
 -31950936.10748 -24869154.03946  20799293.8054                   20799291.0864
 -45265836.14248 -35243077.91946  20587113.9144                   20587109.7544
 -47042708.08647 -36625741.00844  22477869.1094                   22477867.8014
 -28072616.28748 -21846395.41246  20920711.7344                   20920710.6374
 -38672983.02348 -30108651.80646  20965102.6644                   20965100.9224
  -9046367.91147  -7020625.53345  22984229.4224                   22984231.0984
  -7826546.60947  -6069889.90644  22832492.1884                   22832490.9184
 11  8 23  0 38 30.0000000  0  9G17G09G12G02G04G05G10G25G30
 -55907473.87846 -43535207.87144  23977582.7194                   23977582.7854
 -21101818.13546 -16414189.51343  24725304.8444                   24725308.1884
 -30474705.10848 -23718844.15246  21080211.1724                   21080208.6804
 -43742630.14548 -34056164.15046  20876969.7344                   20876965.7854
 -45453071.74147 -35387063.34545  22780366.5164                   22780365.5394
 -26630606.44448 -20722751.32546  21195116.9454                   21195115.9804
 -37126475.28948 -28903580.85746  21259393.0314                   21259391.7934
  -7623145.63547  -5911621.11845  23255059.7034                   23255060.7304
  -6400140.14847  -4958404.30544  23103928.0004                   23103927.3094
 11  8 23  0 39  0.0000000  0  9G17G09G12G02G04G05G10G25G30
 -55912511.88946 -43539133.61743  23976624.2664                   23976623.2234
 -21087493.92846 -16403028.04043  24728030.6564                   24728034.6844
 -30573361.62148 -23795719.34346  21061437.7034                   21061435.2734
 -43794636.82348 -34096688.83446  20867073.3834                   20867070.6254
 -45438828.34847 -35375964.63144  22783077.5474                   22783076.7424
 -26763563.21248 -20826353.96046  21169815.8834                   21169814.8524
 -37154802.97948 -28925654.39246  21254002.1954                   21254001.1054
  -7775024.77347  -6029968.45945  23226157.9224                   23226158.9184
  -6548761.48547  -5074213.11344  23075646.2584                   23075644.5864
 11  8 23  0 39 30.0000000  0  9G17G09G12G02G04G05G10G25G30
 -55917367.65946 -43542917.38944  23975699.8524                   23975700.6764
 -21073201.72146 -16391891.44743  24730751.1954                   24730754.5824
 -30671478.63348 -23872174.15346  21042766.3524                   21042764.0704
 -43846433.69548 -34137050.04246  20857217.1724                   20857213.1174
 -45424557.71347 -35364844.68744  22785792.3204                   22785792.5004
 -26896057.66748 -20929596.34746  21144603.0394                   21144601.6024
 -37182544.36748 -28947271.06146  21248723.6484                   21248722.2154
  -7926575.40947  -6148059.81945  23197318.5314                   23197319.1564
  -6696980.68047  -5189708.55044  23047440.7344                   23047440.1954
 11  8 23  0 40  0.0000000  0  9G17G09G12G02G04G05G10G25G30
 -55922038.01446 -43546556.71344  23974811.3284                   23974811.0634
 -21058941.86746 -16380780.00643  24733464.2664                   24733468.1484
 -30769051.62848 -23948205.04346  21024198.6024                   21024195.8954
 -43898019.13748 -34177246.49046  20847400.1024                   20847396.5634
 -45410258.22547 -35353702.28144  22788513.3914                   22788513.0394
 -27028084.30448 -21032474.20246  21119479.3364                   21119478.0394
 -37209698.26248 -28968429.94146  21243556.1024                   21243554.9804
  -8077791.98847  -6265890.87045  23168543.0784                   23168544.1254
  -6844792.25947  -5304886.35944  23019313.5704                   23019312.0664
 11  8 23  0 40 30.0000000  0  9G17G09G12G02G04G05G10G25G30
 -55926527.48046 -43550054.98644  23973957.1334                   23973957.3094
 -21044722.60746 -16369700.24944  24736170.0474                   24736174.6954
 -30866084.19848 -24023814.81946  21005733.8524                   21005731.8984
 -43949399.47748 -34217283.12146  20837623.2274                   20837619.2624
 -45395936.25447 -35342542.30144  22791239.1174                   22791238.3164
 -27159646.13548 -21134989.86546  21094443.6254                   21094442.3364
 -37236271.15548 -28989136.09146  21238499.6024                   21238498.5434
  -8228677.06947  -6383463.61445  23139830.4534                   23139831.6254
  -6992198.81047  -5419748.52444  22991262.5084                   22991261.6484
 11  8 23  0 41  0.0000000  0  9G17G09G12G02G04G05G10G25G30
 -55930835.38846 -43553411.83144  23973137.8134                   23973136.5394
 -21030545.80846 -16358653.64343  24738867.8594                   24738871.4534
 -30962574.58148 -24099002.13346  20987372.5234                   20987370.8284
 -44000574.87148 -34257160.06946  20827884.6644                   20827880.9144
 -45381592.70647 -35331365.57144  22793968.7894                   22793968.6724
 -27290740.40948 -21237141.21546  21069497.4304                   21069496.1994
 -37262263.76748 -29009390.10346  21233553.5944                   21233552.3714
  -8379227.18147  -6500775.31745  23111180.9844                   23111182.4224
  -7139196.73947  -5534292.38344  22963290.0554                   22963288.4264
 11  8 23  0 41 30.0000000  0  9G17G09G12G02G04G05G10G25G30
 -55934959.35846 -43556625.35844  23972352.7194                   23972352.3484
 -21016412.60846 -16347640.93343  24741558.2274                   24741561.8874
 -31058519.27848 -24173764.22146  20969115.1334                   20969112.7304
 -44051544.37948 -34296876.56146  20818185.2584                   20818181.8364
 -45367226.54347 -35320171.20645  22796702.7424                   22796702.6334
 -27421362.75348 -21338924.81746  21044640.4384                   21044639.2704
 -37287675.86548 -29029191.73946  21228717.7504                   21228715.6414
  -8529437.68547  -6617822.44244  23082597.1804                   23082597.7664
  -7285781.48047  -5648514.20544  22935395.7814                   22935395.7464
 11  8 23  0 42  0.0000000  0  9G17G09G12G02G04G05G10G25G30
 -55938901.37046 -43559697.07144  23971603.0634                   23971602.5944
 -21002328.76146 -16336666.74244  24744237.7894                   24744242.0164
 -31153919.21448 -24248101.83046  20950960.4384                   20950958.5474
 -44102311.81248 -34336435.60546  20808524.6644                   20808520.9224
 -45352841.62647 -35308962.20344  22799439.5474                   22799439.2544
 -27551513.77948 -21440341.16746  21019873.7664                   21019872.1684
 -37312511.46148 -29048544.17246  21223991.4534                   21223990.4024
  -8679308.38947  -6734604.79645  23054078.3444                   23054079.3444
  -7431952.79647  -5762413.91644  22907579.7974                   22907578.9614
 11  8 23  0 42 30.0000000  0  9G17G09G12G02G04G05G10G25G30
 -55942660.43046 -43562626.22044  23970886.2114                   23970886.2854
 -20988295.99647 -16325732.30244  24746908.1024                   24746912.5314
 -31248772.27048 -24322013.30446  20932910.7504                   20932908.7734
 -44152877.41148 -34375837.37246  20798902.8054                   20798898.8674
 -45338438.31147 -35297738.91144  22802180.1174                   22802179.5634
 -27681190.30848 -21541387.76346  20995197.0314                   20995195.6174
 -37336770.85448 -29067447.60246  21219374.8284                   21219373.7114
  -8828835.75447  -6851119.58545  23025624.0004                   23025624.5944
  -7577707.29347  -5875988.78645  22879843.8134                   22879843.4614
 11  8 23  0 43  0.0000000  0  9G17G09G12G02G04G05G10G25G30
 -55946239.73746 -43565415.29944  23970205.6094                   23970205.9964
 -20974320.74246 -16314842.69044  24749568.6094                   24749572.5784
 -31343080.54448 -24395500.26146  20914965.1024                   20914962.6254
 -44203245.78748 -34415085.46946  20789317.8594                   20789314.0044
 -45324021.53147 -35286505.12144  22804923.8284                   22804923.8014
 -27810393.78348 -21642065.76346  20970610.1484                   20970609.1054
 -37360459.59348 -29085906.36646  21214867.4384                   21214866.0594
  -8978020.77547  -6967367.63645  22997235.5634                   22997235.7584
  -7723045.86647  -5989239.60844  22852187.2114                   22852186.1724
 11  8 23  0 43 30.0000000  0  9G17G09G12G02G04G05G10G25G30
 -55949635.28246 -43568061.17144  23969559.9844                   23969559.2544
 -20960402.19146 -16303997.21443  24752216.8054                   24752221.0434
 -31436839.18048 -24468558.93346  20897123.0164                   20897120.6884
 -44253414.36348 -34454177.87246  20779771.1024                   20779767.1604
 -45309588.71247 -35275258.84444  22807670.5084                   22807671.0704
 -27939118.16548 -21742370.43546  20946115.0394                   20946113.8554
 -37383575.68848 -29103918.92146  21210468.4064                   21210466.9654
  -9126856.93247  -7083343.85245  22968912.1804                   22968912.7704
  -7867962.08347  -6102161.31544  22824610.1414                   22824610.0664
 11  8 23  0 44  0.0000000  0  9G17G09G12G02G04G05G10G25G30
 -55952850.79146 -43570566.79344  23968948.1414                   23968946.6884
 -20946547.50747 -16293201.64243  24754853.7894                   24754857.5704
 -31530051.08848 -24541191.58346  20879385.2344                   20879382.9494
 -44303388.49748 -34493118.74446  20770261.3914                   20770257.4344
 -45295145.04647 -35264004.14144  22810419.1174                   22810418.5204
 -28067365.67947 -21842303.52346  20921710.1804                   20921708.8444
 -37406124.80848 -29121489.67746  21206177.6484                   21206176.2704
  -9275345.73147  -7199049.42845  22940655.6644                   22940656.9654
  -8012457.48147  -6214755.10344  22797113.3134                   22797112.4654
 11  8 23  0 44 30.0000000  0  9G17G09G12G02G04G05G10G25G30
 -55955881.44246 -43572928.38244  23968370.9614                   23968371.0164
 -20932754.85446 -16282454.28643  24757478.3984                   24757482.3634
 -31622709.65948 -24613393.05846  20861753.2424                   20861750.6564
 -44353164.20748 -34531905.01946  20760789.3284                   20760785.3284
 -45280686.94947 -35252738.14944  22813170.7114                   22813170.2384
 -28195129.59748 -21941859.77846  20897397.5634                   20897396.2194
 -37428103.83447 -29138616.19546  21201995.1724                   21201993.6454
  -9423479.70747  -7314478.47945  22912466.6094                   22912468.2074
  -8156524.55847  -6327015.16344  22769698.6414                   22769698.2034
 11  8 23  0 45  0.0000000  0  9G17G09G12G02G04G05G10G25G30
 -55958728.67546 -43575147.01043  23967828.5314                   23967828.4414
 -20919029.17346 -16271759.24143  24760090.2814                   24760094.4064
 -31714816.51948 -24685164.64446  20844225.8054                   20844223.0824
 -44402744.91348 -34570539.33246  20751354.2114                   20751350.5234
 -45266217.95047 -35241463.64044  22815924.2194                   22815923.6764
 -28322409.61248 -22041038.97346  20873177.0394                   20873175.3324
 -37449516.15847 -29155301.13046  21197920.6954                   21197919.1914
  -9571258.25347  -7429630.57345  22884345.7424                   22884346.6294
  -8300162.92747  -6438941.12844  22742365.0314                   22742364.1374
 11  8 23  0 45 30.0000000  0  9G17G09G12G02G04G05G10G25G30
 -55961390.96546 -43577221.53943  23967322.3284                   23967322.7074
 -20905372.05346 -16261117.51843  24762689.9304                   24762693.8524
 -31806368.77248 -24756504.05246  20826803.6484                   20826801.7894
 -44452130.46248 -34609021.57846  20741956.9384                   20741952.3484
 -45251737.63947 -35230180.36244  22818679.5004                   22818680.2624
 -28449202.52048 -22139838.60846  20849049.1884                   20849047.5474
 -37470362.37448 -29171544.94446  21193953.4454                   21193952.3554
  -9718677.55747  -7544502.76645  22856292.6954                   22856293.5824
  -8443368.69147  -6550530.01244  22715114.1564                   22715112.7274
 11  8 23  0 46  0.0000000  0  9G17G09G12G02G04G05G10G25G30
 -55963870.64446 -43579153.77943  23966851.2424                   23966850.3954
 -20891788.85046 -16250533.39643  24765274.5554                   24765278.0234
 -31897367.78948 -24827412.37946  20809487.2584                   20809484.7424
 -44501324.20548 -34647354.36146  20732595.1414                   20732591.5664
 -45237250.04047 -35218891.42144  22821436.3914                   22821436.9654
 -28575508.71148 -22238258.98146  20825013.6094                   20825012.4384
 -37490646.87347 -29187351.04846  21190093.2814                   21190092.0944
  -9865737.54847  -7659094.97045  22828308.1254                   22828309.0164
  -8586141.86747  -6661781.85444  22687945.3444                   22687943.8524
 11  8 23  0 46 30.0000000  0  9G17G09G12G02G04G05G10G25G30
 -55966168.15846 -43580944.05743  23966413.5234                   23966414.1134
 -20878282.68246 -16240009.37943  24767844.7114                   24767849.5124
 -31987812.32748 -24897888.62446  20792275.9844                   20792274.0864
 -44550328.04248 -34685539.16246  20723270.4844                   20723266.0434
 -45222756.49147 -35207597.78744  22824194.8364                   22824193.5434
 -28701326.77148 -22336298.98746  20801071.3754                   20801069.6484
 -37510371.58447 -29202720.96146  21186339.9534                   21186338.2384
 -10012435.84047  -7773405.35045  22800392.3754                   22800393.2424
  -8728480.08447  -6772694.73644  22660859.2974                   22660857.7194
 11  8 23  0 47  0.0000000  0  9G17G09G12G02G04G05G10G25G30
 -55968282.18746 -43582591.33443  23966011.8054                   23966011.0434
 -20864855.63745 -16229547.02742  24770398.9774                   24770403.9494
 -32077700.54648 -24967931.38746  20775171.0004                   20775168.9734
 -44599141.98848 -34723576.00646  20713981.5234                   20713977.1804
 -45208257.33847 -35196299.81344  22826953.7034                   22826953.0594
 -28826653.81548 -22433956.39646  20777222.2034                   20777220.9494
 -37529537.73947 -29217655.63846  21182692.6024                   21182691.4614
 -10158769.12947  -7887431.27645  22772546.2194                   22772547.4734
  -8870380.09747  -6883266.16944  22633856.5554                   22633855.3634
 11  8 23  0 47 30.0000000  0  9G17G09G12G02G04G05G10G25G30
 -55970210.96546 -43584094.33243  23965643.8284                   23965644.4734
 -20851509.14645 -16219147.41042  24772939.6024                   24772944.6294
 -32167030.55348 -25037539.18546  20758171.8284                   20758169.5004
 -44647765.67948 -34761464.60346  20704728.6174                   20704724.3404
 -45193752.23747 -35184997.17444  22829713.3984                   22829713.5314
 -28951486.33248 -22531228.44046  20753467.7194                   20753466.5394
 -37548145.45248 -29232155.15946  21179151.9924                   21179150.5514
 -10304733.24247  -8001169.55045  22744769.8134                   22744770.8714
  -9011837.90347  -6993493.04544  22606937.7194                   22606936.3714
 11  8 23  0 48  0.0000000  0  8G17G12G02G04G05G10G25G30
 -55971957.78246 -43585455.47644  23965312.3674                   23965311.8404
 -32255804.15048 -25106713.39546  20741279.2504                   20741276.7234
 -44696203.59148 -34799208.43246  20695510.8754                   20695507.2734
 -45179245.87247 -35173693.57344  22832474.6884                   22832474.1914
 -29075825.68148 -22628116.21146  20729806.3284                   20729804.9184
 -37566199.74347 -29246223.43546  21175716.1414                   21175715.2814
 -10450328.93547  -8114620.74245  22717063.9144                   22717065.0744
  -9152854.25147  -7103375.91244  22580102.9304                   22580102.7194
 11  8 23  0 48 30.0000000  0  8G17G12G02G04G05G10G25G30
 -55973521.09746 -43586673.65443  23965014.1174                   23965014.9184
 -32344019.15648 -25175452.36146  20724492.3984                   20724490.2624
 -44744455.71048 -34836807.49046  20686328.9384                   20686324.7624
 -45164738.33746 -35162389.03544  22835235.1484                   22835234.7504
 -29199668.93948 -22724617.41646  20706239.6804                   20706238.5004
 -37583701.53847 -29259861.17346  21172386.0004                   21172384.1454
 -10595552.51147  -8227781.94345  22689428.9064                   22689430.2584
  -9293425.41747  -7212911.89144  22553353.5474                   22553352.5664
 11  8 23  0 49  0.0000000  0  8G17G12G02G04G05G10G25G30
 -55974893.36346 -43587742.98743  23964752.9454                   23964752.7894
 -32431666.95948 -25243749.33846  20707813.4774                   20707811.2234
 -44792515.47548 -34874256.65446  20677183.2114                   20677179.7384
 -45150222.91546 -35151078.29544  22837997.3054                   22837997.2814
 -29323006.92048 -22820724.89946  20682769.3364                   20682767.6414
 -37600645.43147 -29273064.20246  21169161.5004                   21169160.2934
 -10740394.02147  -8340645.44945  22661866.5234                   22661867.3714
  -9433541.60647  -7322093.30344  22526689.9144                   22526689.1914
 11  8 23  0 49 30.0000000  0  8G17G12G02G04G05G10G25G30
 -55976073.88346 -43588662.82643  23964528.9454                   23964527.7894
 -32518746.26048 -25311603.33046  20691242.8674                   20691239.9064
 -44840383.81748 -34911556.64646  20668074.5164                   20668070.6524
 -45135700.34847 -35139762.04944  22840760.9534                   22840761.1994
 -29445837.05848 -22916436.65746  20659395.8444                   20659393.9264
 -37617032.77647 -29285833.54745  21166043.3984                   21166041.6024
 -10884850.33347  -8453208.79945  22634377.2114                   22634378.1804
  -9573199.85147  -7430917.91144  22500114.2734                   22500113.1524
 11  8 23  0 50  0.0000000  0  8G17G12G02G04G05G10G25G30
 -55977065.31446 -43589435.38044  23964340.5164                   23964340.4614
 -32605258.97848 -25379015.84246  20674780.1254                   20674777.5274
 -44888064.92348 -34948710.75346  20659001.0704                   20658997.1764
 -45121174.89547 -35128443.54844  22843525.2734                   22843525.0864
 -29568160.48148 -23011753.58746  20636118.5634                   20636116.8244
 -37632868.44747 -29298173.02645  21163029.1254                   21163028.4454
 -11028921.93447  -8565472.35145  22606961.1024                   22606962.6134
  -9712400.77247  -7539386.14644  22473625.2584                   22473624.0514
 11  8 23  0 50 30.0000000  0  8G17G12G02G04G05G10G25G30
 -54402447.45346 -42362460.43744  24263979.9144                   24263980.6254
 -31115781.29748 -24218383.87246  20958218.0944                   20958215.9264
 -43360137.97148 -33758118.32246  20949755.8984                   20949751.7734
 -43531228.11047 -33889523.97844  23146082.1804                   23146082.3134
 -28114551.27848 -21879071.04146  20912730.8204                   20912729.5824
 -36072733.55447 -28082483.48845  21459913.4614                   21459911.7504
  -9597181.48547  -7449830.39545  22879412.5554                   22879413.6804
  -8275717.05047  -6419892.32945  22747017.0164                   22747015.9654
 11  8 23  0 51  0.0000000  0  8G17G12G02G04G05G10G25G30
 -54403066.96146 -42362943.16944  24263862.0784                   24263861.8984
 -31201163.99648 -24284915.83346  20941970.3364                   20941968.2464
 -43407453.56648 -33794987.61046  20940751.8594                   20940748.3014
 -43516706.36346 -33878208.30744  23148845.1804                   23148844.9064
 -28235862.03848 -21973598.87046  20889646.2504                   20889644.3634
 -36087477.44548 -28093972.21945  21457107.4774                   21457106.0704
  -9740482.18447  -7561493.22745  22852143.4614                   22852144.3554
  -8414001.90347  -6527646.73545  22720702.5784                   22720701.5704
 11  8 23  0 51 30.0000000  0  8G17G12G02G04G05G10G25G30
 -54403504.79546 -42363284.28444  24263778.6804                   24263779.2584
 -31285985.28848 -24351010.34046  20925829.3204                   20925827.2894
 -43454592.84948 -33831719.51246  20931781.8364                   20931777.5744
 -43502192.77647 -33866899.03144  23151607.1174                   23151606.4104
 -28356668.53448 -22067733.75546  20866657.4224                   20866655.9384
 -36101683.42348 -28105041.79445  21454404.5944                   21454403.5204
  -9883398.54147  -7672856.57045  22824947.5474                   22824948.8094
  -8551829.96447  -6635045.20945  22694474.7664                   22694472.7624
 11  8 23  0 52  0.0000000  0  8G17G12G02G04G05G10G25G30
 -54403759.67746 -42363482.88244  24263730.0004                   24263729.5944
 -31370242.60748 -24416665.39846  20909795.7814                   20909793.3324
 -43501555.77848 -33868313.99446  20922845.0554                   20922840.8554
 -43487687.15846 -33855595.93044  23154367.6954                   23154367.3954
 -28476967.74148 -22161473.36446  20843765.1804                   20843763.6764
 -36115352.21548 -28115692.78845  21451803.5634                   21451801.9104
 -10025926.60247  -7783917.34245  22797824.7584                   22797825.9924
  -8689197.41447  -6742084.74445  22668334.1334                   22668333.0944
 11  8 23  0 52 30.0000000  0  8G17G12G02G04G05G10G25G30
 -54403836.42846 -42363542.70244  24263715.0164                   24263716.2384
 -31453940.22648 -24481884.31446  20893868.8984                   20893866.5354
 -43548347.90348 -33904775.37746  20913940.6724                   20913936.5274
 -43473195.70646 -33844303.88244  23157125.0704                   23157125.1484
 -28596762.80948 -22254820.12846  20820968.9614                   20820967.5124
 -36128490.73447 -28125930.58746  21449303.2114                   21449301.8164
 -10168068.78147  -7894677.40045  22770775.7274                   22770777.0594
  -8826106.79147  -6848767.33345  22642282.0394                   22642280.2274
 11  8 23  0 53  0.0000000  0  8G17G12G02G04G05G10G25G30
 -54403730.26446 -42363459.93143  24263735.7424                   24263735.7464
 -31537072.87748 -24546663.00446  20878048.9694                   20878047.1764
 -43594966.32048 -33941101.40346  20905069.3364                   20905065.2624
 -43458714.67246 -33833019.97144  23159880.3054                   23159881.2774
 -28716047.51848 -22347769.22946  20798269.9304                   20798268.0474
 -36141096.47848 -28135753.24645  21446904.0784                   21446902.7974
 -10309818.13347  -8005131.39545  22743802.2194                   22743803.4024
  -8962551.30047  -6955087.69145  22616316.6484                   22616315.5984
 11  8 23  0 53 30.0000000  0  8G17G12G02G04G05G10G25G30
 -54403442.51246 -42363235.73143  24263790.0314                   24263790.0984
 -31619640.78148 -24611001.62846  20862336.7344                   20862335.0664
 -43641413.33248 -33977293.87246  20896231.1804                   20896226.9224
 -43444246.56147 -33821746.12143  23162633.9534                   23162633.8134
 -28834821.44748 -22440320.29746  20775668.2814                   20775666.0204
 -36153172.43648 -28145163.07445  21444606.2974                   21444604.9614
 -10451173.40547  -8115278.30445  22716902.8134                   22716903.7814
  -9098529.77947  -7061044.90845  22590440.5004                   22590439.8094
 11  8 23  0 54  0.0000000  0  8G17G12G02G04G05G10G25G30
 -54402972.89246 -42362869.75543  24263879.0704                   24263879.7584
 -31701643.61348 -24674899.95046  20846732.2194                   20846730.1644
 -43687689.72648 -34013353.39446  20887424.6484                   20887420.7584
 -43429792.31747 -33810483.04444  23165384.4454                   23165383.3874
 -28953082.92248 -22532472.05846  20753163.3054                   20753161.9884
 -36164720.87148 -28154161.85745  21442408.8364                   21442407.5394
 -10592132.19347  -8225116.24345  22690079.2584                   22690080.1884
  -9234039.88247  -7166637.16245  22564653.8834                   22564652.7384
 11  8 23  0 54 30.0000000  0  8G17G12G02G04G05G10G25G30
 -54402322.66246 -42362363.13243  24264002.8364                   24264003.5234
 -31783081.59248 -24738358.10746  20831235.1334                   20831232.9654
 -43733798.17348 -34049282.04946  20878650.5784                   20878646.1414
 -43415354.31646 -33799232.59544  23168132.2584                   23168131.3634
 -29070831.27148 -22624223.97746  20730756.9924                   20730755.2384
 -36175745.69148 -28162752.62545  21440310.8914                   21440309.4494
 -10732693.30447  -8334644.32745  22663331.5394                   22663331.6764
  -9369080.74147  -7271863.74445  22538956.8204                   22538955.8324
 11  8 23  0 55  0.0000000  0  8G17G12G02G04G05G10G25G30
 -54401491.34746 -42361715.39543  24264161.3134                   24264161.5234
 -31863953.30248 -24801375.03446  20815845.9844                   20815843.3364
 -43779738.91548 -34085080.03146  20869908.4614                   20869904.5634
 -43400933.07846 -33787995.27444  23170875.9774                   23170875.4694
 -29188064.89548 -22715574.81647  20708447.5864                   20708446.1804
 -36186247.83447 -28170936.12245  21438312.3984                   21438311.2154
 -10872853.67347  -8443860.13245  22636659.8984                   22636660.1724
  -9503649.27247  -7376722.28645  22513349.0474                   22513348.4804
 11  8 23  0 55 30.0000000  0  8G17G12G02G04G05G10G25G30
 -54400474.93946 -42360923.32943  24264354.7894                   24264354.8914
 -31944254.47548 -24863947.38746  20800565.0944                   20800562.8794
 -43825509.58548 -34120745.48346  20861198.4614                   20861194.7814
 -43386525.98546 -33776768.98444  23173617.9224                   23173617.4734
 -29304778.28148 -22806520.27246  20686237.7504                   20686235.8914
 -36196226.01848 -28178711.33245  21436413.4534                   21436411.8594
 -11012607.25347  -8552758.96745  22610065.4224                   22610066.0274
  -9637739.64047  -7481208.21345  22487832.5234                   22487831.9024
 11  8 23  0 56  0.0000000  0  8G17G12G02G04G05G10G25G30
 -54399277.31246 -42359990.11943  24264582.9224                   24264583.0164
 -32023987.90548 -24926077.34446  20785392.3594                   20785390.2304
 -43871114.75348 -34156281.97246  20852520.2424                   20852516.6094
 -43372137.35747 -33765557.04344  23176356.1954                   23176355.0434
 -29420973.24148 -22897061.76347  20664126.6484                   20664125.2624
 -36205685.94348 -28186082.70745  21434613.5394                   21434611.2274
 -11151955.26147  -8661341.77445  22583548.5394                   22583549.1564
  -9771353.17147  -7585322.60045  22462406.3204                   22462405.7814
 11  8 23  0 56 30.0000000  0  8G17G12G02G04G05G10G25G30
 -54397898.26246 -42358915.60643  24264845.5944                   24264845.5274
 -32103153.14248 -24987764.54046  20770327.6954                   20770325.3914
 -43916555.73748 -34191690.52046  20843872.9384                   20843869.0594
 -43357768.73847 -33754360.68544  23179090.5164                   23179089.5904
 -29536648.47748 -22987198.26946  20642114.4304                   20642113.0514
 -36214629.83647 -28193051.97945  21432911.8834                   21432910.3754
 -11290895.31547  -8769606.70145  22557108.6484                   22557109.4774
  -9904487.68047  -7689063.69845  22437072.1414                   22437071.1994
 11  8 23  0 57  0.0000000  0  8G17G12G02G04G05G10G25G30
 -54396339.84746 -42357701.27243  24265141.5704                   24265142.6804
 -32181751.88348 -25049010.32846  20755370.3834                   20755368.5514
 -43961835.58348 -34226973.52246  20835256.8674                   20835252.7034
 -43343422.92946 -33743182.13444  23181819.8204                   23181819.2814
 -29651804.74648 -23076930.39746  20620200.6024                   20620199.0274
 -36223062.12147 -28199622.59645  21431306.7584                   21431305.8324
 -11429427.24247  -8877553.62145  22530747.4064                   22530747.7274
 -10037143.10747  -7792431.51045  22411828.4224                   22411827.9224
 11  8 23  0 57 30.0000000  0  8G17G12G02G04G05G10G25G30
 -54394599.13646 -42356344.86543  24265473.3914                   24265473.3444
 -32259780.21348 -25109811.63446  20740522.4844                   20740519.8524
 -44006952.21048 -34262129.33846  20826671.2504                   20826666.9574
 -43329098.09846 -33732019.88744  23184546.3204                   23184545.1844
 -29766437.34248 -23166254.45847  20598386.9694                   20598385.5664
 -36230982.10447 -28205794.02345  21429799.8054                   21429798.2234
 -11567545.53547  -8985178.21645  22504463.9774                   22504464.5434
 -10169314.19347  -7895421.89545  22386676.1884                   22386675.7544
 11  8 23  0 58  0.0000000  0  8G17G12G02G04G05G10G25G30
 -54392674.45346 -42354845.05043  24265839.4924                   24265838.7384
 -32337236.24848 -25170166.99046  20725783.2114                   20725781.0204
 -44051905.46748 -34297157.86046  20818116.9694                   20818112.9024
 -43314793.50246 -33720873.46344  23187268.3984                   23187268.3714
 -29880543.14048 -23255168.02946  20576673.5234                   20576671.9064
 -36238390.50648 -28211566.81045  21428390.2974                   21428388.7034
 -11705246.33947  -9092477.50345  22478260.8134                   22478260.8954
 -10300997.19447  -7998031.96945  22361618.3054                   22361618.3714
 11  8 23  0 58 30.0000000  0  8G17G12G02G04G05G10G25G30
 -54390568.04346 -42353203.73043  24266240.4064                   24266239.6764
 -32414121.68448 -25230077.72446  20711152.3594                   20711150.1724
 -44096698.56348 -34332061.56846  20809593.1724                   20809589.4024
 -43300512.52246 -33709745.41244  23189985.8524                   23189985.6134
 -29994123.16048 -23343671.90147  20555059.6884                   20555058.0164
 -36245291.72847 -28216944.40045  21427076.9304                   21427075.2274
 -11842529.56847  -9199451.41745  22452136.2814                   22452136.4144
 -10432192.21147  -8100261.80545  22336652.5944                   22336651.9184
 11  8 23  0 59  0.0000000  0  8G17G12G02G04G05G10G25G30
 -54388280.65446 -42351421.33843  24266675.3524                   24266674.7854
 -32490436.23048 -25289543.60746  20696630.1414                   20696628.5004
 -44141332.99348 -34366841.65046  20801099.4924                   20801094.8984
 -43286256.79446 -33698637.02344  23192698.2194                   23192697.5984
 -30107176.61348 -23431765.46347  20533546.3754                   20533544.3714
 -36251688.79047 -28221929.12045  21425859.3284                   21425857.8094
 -11979393.46547  -9306098.58745  22426092.0554                   22426093.2074
 -10562897.69647  -8202110.17245  22311780.2734                   22311779.7384
 11  8 23  0 59 30.0000000  0  9G17G29G12G02G04G05G10G25G30
 -54385813.86646 -42349499.19543  24267146.0784                   24267144.2814
   7664680.94856   5985511.64453  24556657.3754                   24556659.2464
 -32566181.50547 -25348565.90546  20682216.2814                   20682213.7114
 -44185811.70548 -34401500.38046  20792635.5864                   20792631.7384
 -43272028.78146 -33687550.20644  23195405.5394                   23195405.6094
 -30219703.52448 -23519448.74047  20512133.2344                   20512132.0594
 -36257585.28847 -28226523.80845  21424736.9534                   21424736.0904
 -12115837.30747  -9412418.44745  22400127.5474                   22400128.1994
 -10693113.12347  -8303576.69945  22287000.8914                   22286999.2544
 11  8 23  1  0  0.0000000  0  9G17G29G12G02G04G05G10G25G30
 -54383171.79346 -42347440.43243  24267648.4304                   24267647.8674
   7517669.19546   5870957.09643  24528681.8914                   24528681.2734
 -32641360.94648 -25407147.28546  20667910.0234                   20667907.9844
 -44230139.73148 -34436041.69746  20784199.8284                   20784195.6524
 -43257833.32546 -33676488.78544  23198106.3594                   23198106.8954
 -30331706.37948 -23606723.65747  20490819.7344                   20490818.2074
 -36262987.84547 -28230733.59545  21423709.3834                   21423708.1054
 -12251862.73547  -9518412.27445  22374243.0784                   22374243.3674
 -10822840.38447  -8404662.85345  22262314.8674                   22262313.5204
 11  8 23  1  0 30.0000000  0  9G17G29G12G02G04G05G10G25G30
 -54380355.53346 -42345245.92643  24268182.8754                   24268183.9804
   7370561.23746   5756327.67043  24500688.4694                   24500688.1094
 -32715975.41848 -25465288.43446  20653711.7424                   20653709.3404
 -44274319.29048 -34470467.34246  20775792.7974                   20775788.9344
 -43243672.77946 -33665454.62844  23200801.2344                   23200801.8794
 -30443185.50448 -23693590.47847  20469605.8444                   20469604.2584
 -36267900.09447 -28234561.32745  21422773.9924                   21422773.4534
 -12387469.01447  -9624079.51245  22348437.2894                   22348438.1294
 -10952078.74147  -8505368.03745  22237721.7584                   22237720.0744
 11  8 23  1  1  0.0000000  0  9G17G29G12G02G04G05G10G25G30
 -54377365.35246 -42342915.89044  24268753.1484                   24268752.2464
   7223357.89946   5641623.80843  24472676.2344                   24472676.3094
 -32790024.23148 -25522988.80146  20639620.4304                   20639618.6374
 -44318351.28648 -34504777.97946  20767413.9144                   20767409.7974
 -43229548.05246 -33654448.33944  23203489.4224                   23203490.2774
 -30554139.31648 -23780047.96247  20448492.1024                   20448489.7344
 -36272324.24247 -28238008.73245  21421932.2344                   21421931.1724
 -12522653.50047  -9729418.07045  22322713.1024                   22322714.3204
 -11080825.94747  -8605690.51345  22213222.1174                   22213220.2704
 11  8 23  1  1 30.0000000  0  9G17G29G12G02G04G05G10G25G30
 -54374196.37446 -42340446.52443  24269356.4534                   24269355.7854
   7076064.45946   5526849.69643  24444646.9534                   24444647.9574
 -32863502.85148 -25580244.85346  20625638.1334                   20625635.7894
 -44362232.49047 -34538971.12546  20759063.6334                   20759059.5784
 -43215455.43946 -33643467.11744  23206170.8444                   23206171.0164
 -30664561.46548 -23866091.16747  20427479.2194                   20427477.2894
 -36276258.32647 -28241074.24645  21421183.8754                   21421182.4774
 -12657409.36547  -9834422.64945  22297069.6174                   22297070.2384
 -11209075.30547  -8705625.09245  22188816.8914                   22188815.6994
 11  8 23  1  2  0.0000000  0  9G17G29G12G02G04G05G10G25G30
 -52795423.90646 -41110234.21843  24569786.5704                   24569786.4614
   8504111.48346   6639613.66343  24716395.7344                   24716396.0164
 -31360982.98447 -24409450.14146  20911557.6954                   20911556.0744
 -42830537.07647 -33345442.22746  21050535.6724                   21050531.2234
 -41625971.26347 -32404908.01944  23508640.0314                   23508639.7814
 -29199022.38148 -22724112.62247  20706362.4614                   20706360.5664
 -34704279.29047 -27016155.52445  21720321.7974                   21720320.3594
 -11216304.75047  -8711484.01845  22571303.2114                   22571303.3404
  -9761395.52347  -7577562.94045  22464301.0004                   22464299.5164
 11  8 23  1  2 30.0000000  0  9G17G29G12G02G04G05G10G25G30
 -52791888.52546 -41107479.38043  24570458.8674                   24570459.7544
   8356649.11946   6524707.95043  24688334.1254                   24688333.8754
 -31433309.47548 -24465808.44346  20897794.5554                   20897792.1214
 -42874109.63848 -33379394.87646  21042243.6724                   21042239.9804
 -41611935.95947 -32393971.44944  23511310.9844                   23511309.9964
 -29308368.89048 -22809317.65347  20685554.1414                   20685552.3834
 -34707230.28747 -27018455.01145  21719760.2894                   21719758.9104
 -11350187.09047  -8815807.94145  22545826.0784                   22545826.7704
  -9888633.63647  -7676709.49145  22440088.9224                   22440087.8484
 11  8 23  1  3  0.0000000  0  9G17G29G12G02G04G05G10G25G30
 -52788169.94046 -41104581.78543  24571166.2194                   24571166.7464
   8209102.99746   6409737.02143  24660257.8284                   24660256.5634
 -31505059.92148 -24521717.87646  20884141.0314                   20884138.8284
 -42917529.78048 -33413228.75046  21033981.2274                   21033977.1334
 -41597930.94947 -32383058.42944  23513976.3054                   23513975.9264
 -29417175.75748 -22894102.18747  20664848.9534                   20664847.3914
 -34709693.33547 -27020374.27245  21719291.3134                   21719289.9454
 -11483629.37247  -8919788.95045  22520433.0634                   22520433.6684
 -10015363.14547  -7775459.79245  22415972.8204                   22415971.3134
 11  8 23  1  3 30.0000000  0  9G17G29G12G02G04G05G10G25G30
 -52784268.76946 -41101541.96543  24571908.4534                   24571909.5554
   8061473.02846   6294700.71744  24632164.5784                   24632164.3284
 -31576234.38048 -24577178.48546  20870596.9304                   20870594.6174
 -42960799.01648 -33446945.02746  21025747.5944                   21025743.2424
 -41583957.38146 -32372169.98344  23516635.1174                   23516635.1524
 -29525442.24548 -22978465.65447  20644246.5554                   20644244.5044
 -34711671.42448 -27021915.63945  21718915.0944                   21718913.6524
 -11616629.97447  -9023425.81245  22495123.4694                   22495124.5004
 -10141582.72047  -7873812.72145  22391953.8674                   22391951.9144
 11  8 23  1  4  0.0000000  0  9G17G29G12G02G04G05G10G25G30
 -52780181.73446 -41098357.27643  24572686.7344                   24572686.8594
   7913763.16547   6179602.15844  24604056.2274                   24604056.0004
 -31646829.83248 -24632187.92546  20857162.7114                   20857160.8954
 -43003914.90648 -33480541.82046  21017543.0084                   21017538.6994
 -41570012.87046 -32361304.15244  23519288.4844                   23519288.9184
 -29633163.75548 -23062404.45847  20623747.4384                   20623745.6954
 -34713163.91347 -27023078.63245  21718631.2814                   21718629.8984
 -11749183.22147  -9126714.06845  22469899.2424                   22469900.2034
 -10267286.90647  -7971764.05945  22368032.7894                   22368032.6484
 11  8 23  1  4 30.0000000  0  9G17G29G12G02G04G05G10G25G30
 -52775912.99746 -41095030.97443  24573498.9534                   24573498.8754
   7765970.38247   6064439.00844  24575932.3984                   24575932.0084
 -31716849.31648 -24686748.55746  20843838.6724                   20843836.1914
 -43046882.36448 -33514022.96546  21009366.5864                   21009362.1804
 -41556102.12546 -32350464.64244  23521935.8524                   23521936.0314
 -29740343.04348 -23145920.75147  20603351.8984                   20603350.4024
 -34714177.22247 -27023868.22045  21718438.5084                   21718437.0864
 -11881290.83047  -9229655.08645  22444760.2664                   22444760.4964
 -10392477.60447  -8069315.26545  22344209.9534                   22344209.2114
 11  8 23  1  5  0.0000000  0  9G17G29G12G02G04G05G10G25G30
 -52771460.73446 -41091561.68743  24574346.1564                   24574346.1884
   7618097.00347   5949213.03244  24547792.6804                   24547792.9494
 -31786291.13248 -24740859.04946  20830624.3834                   20830622.3594
 -43089700.37048 -33547387.65046  21001218.3834                   21001214.3364
 -41542224.14446 -32339650.65044  23524577.0314                   23524575.8324
 -29846976.79648 -23229011.96147  20583060.2974                   20583059.0634
 -34714711.57347 -27024284.61245  21718336.2894                   21718335.2344
 -12012948.69247  -9332245.62645  22419706.6804                   22419707.1294
 -10517151.06047  -8166463.42945  22320485.6564                   22320483.7274
 11  8 23  1  5 30.0000000  0  8G29G12G02G04G05G10G25G30
   7470144.77047   5833925.64444  24519638.3364                   24519638.1094
 -31855153.95747 -24794518.38846  20817520.0864                   20817517.9804
 -43132369.29748 -33580636.16446  20993098.9614                   20993094.7464
 -41528378.87346 -32328862.14044  23527211.4304                   23527210.2304
 -29953063.42348 -23311676.83847  20562872.8054                   20562871.2274
 -34714768.71448 -27024329.13745  21718325.3754                   21718324.2894
 -12144153.75247  -9434483.34345  22394739.0634                   22394739.8984
 -10641304.30947  -8263206.23545  22296860.4774                   22296859.0664
 11  8 23  1  6  0.0000000  0  8G29G12G02G04G05G10G25G30
   7322111.62946   5718575.20444  24491468.7814                   24491468.7154
 -31923440.26547 -24847728.50346  20804525.5554                   20804523.7274
 -43174892.77048 -33613771.33946  20985006.9924                   20985003.1094
 -41514569.79246 -32318101.85243  23529839.7344                   23529838.5514
 -30058604.16248 -23393916.33547  20542789.2114                   20542787.6024
 -34714353.70447 -27024005.71945  21718404.2034                   21718402.4734
 -12274906.56547  -9536368.65445  22369857.7424                   22369858.3404
 -10764938.32647  -8359544.46745  22273333.3524                   22273333.0594
 11  8 23  1  6 30.0000000  0  8G29G12G02G04G05G10G25G30
   7174005.05547   5603167.54544  24463284.7114                   24463284.5394
 -31991142.87948 -24900483.78346  20791642.1334                   20791640.1134
 -43217264.80948 -33646788.51046  20976943.7504                   20976939.4844
 -41500790.75546 -32307365.01844  23532461.3524                   23532461.0554
 -30163590.78848 -23475724.06647  20522810.5004                   20522808.8524
 -34713462.28347 -27023311.10445  21718574.4224                   21718572.8524
 -12405197.92647  -9637894.37445  22345064.3674                   22345065.1954
 -10888044.04747  -8455470.99345  22249907.0554                   22249905.4224
 11  8 23  1  7  0.0000000  0  8G29G12G02G04G05G10G25G30
   7025832.54646   5487708.46244  24435088.0164                   24435088.0274
 -32058255.04148 -24952778.97146  20778871.2974                   20778869.0434
 -43259479.65548 -33679683.19746  20968910.2584                   20968906.5704
 -41487035.88347 -32296646.96544  23535079.0554                   23535079.4924
 -30268016.13448 -23557094.42247  20502939.0234                   20502937.4884
 -34712089.96248 -27022241.76345  21718835.8594                   21718834.1564
 -12535019.02647  -9739053.65645  22320359.9384                   22320360.7664
 -11010612.97847  -8550979.26845  22226583.3444                   22226581.8714
 11  8 23  1  7 30.0000000  0  8G29G12G02G04G05G10G25G30
   6877586.77747   5372192.32044  24406877.5234                   24406877.8634
 -32124784.37947 -25004620.02546  20766210.9844                   20766209.4534
 -43301545.99348 -33712462.17546  20960905.5164                   20960901.4184
 -41473313.99347 -32285954.63844  23537690.1484                   23537689.8754
 -30371886.90448 -23638032.65747  20483173.3204                   20483171.6644
 -34710247.34747 -27020805.95745  21719186.0944                   21719184.2424
 -12664375.62247  -9839850.99745  22295744.5004                   22295745.6374
 -11132651.22847  -8646073.99445  22203359.7584                   22203359.0664
 11  8 23  1  8  0.0000000  0  8G29G12G02G04G05G10G25G30
   6729267.06347   5256618.58144  24378653.8054                   24378654.0434
 -32190733.35348 -25056008.84546  20753661.5784                   20753659.5004
 -43343467.02547 -33745127.91346  20952927.9614                   20952924.0824
 -41459627.79147 -32275290.09644  23540294.6564                   23540293.8134
 -30475203.76747 -23718539.26447  20463512.7114                   20463510.9104
 -34707938.95347 -27019007.19545  21719625.0554                   21719623.7504
 -12793267.57147  -9940286.22845  22271217.0234                   22271217.3244
 -11254158.84147  -8740755.23645  22180237.5394                   22180236.6134
 11  8 23  1  8 30.0000000  0  8G29G12G02G04G05G10G25G30
   6580868.55946   5140983.40144  24350414.5004                   24350414.6684
 -32256106.72148 -25106949.14146  20741221.4384                   20741219.1994
 -43385248.70148 -33777685.07646  20944977.3914                   20944972.9184
 -41445982.84547 -32264657.69843  23542891.0704                   23542890.4574
 -30577970.85748 -23798617.48146  20443956.8524                   20443954.6524
 -34705172.21047 -27016851.28545  21720152.0234                   21720150.2544
 -12921697.76647 -10040361.66245  22246777.3054                   22246778.3014
 -11375139.02247  -8835025.50745  22157216.2424                   22157215.1724
 11  8 23  1  9  0.0000000  0  8G29G12G02G04G05G10G25G30
   6432391.08246   5025286.76443  24322159.1804                   24322158.8284
 -32320905.05348 -25157441.37046  20728891.1414                   20728888.2424
 -43426892.68248 -33810134.92446  20937053.0784                   20937049.3484
 -41432380.71147 -32254058.67644  23545479.8364                   23545479.8914
 -30680187.91448 -23878267.11147  20424505.1804                   20424503.5044
 -34701950.41647 -27014340.78845  21720764.1254                   21720762.9344
 -13049664.90447 -10140076.28345  22222426.1884                   22222426.3204
 -11495590.72847  -8928883.96745  22134295.0784                   22134293.5864
 11  8 23  1  9 30.0000000  0  8G29G12G02G04G05G10G25G30
   6283834.46746   4909528.44943  24293888.8834                   24293889.4144
 -32385129.80948 -25207486.63746  20716669.1174                   20716667.1644
 -43468401.04148 -33842479.08946  20929153.9064                   20929149.9614
 -41418823.49647 -32243494.67244  23548060.2194                   23548059.2344
 -30781855.37148 -23957488.46547  20405158.6174                   20405156.6174
 -34698277.55847 -27011478.81345  21721463.7114                   21721462.3014
 -13177168.17847 -10239429.42845  22198162.8524                   22198163.4224
 -11615513.56147  -9022330.29945  22111474.3524                   22111472.9454
 11  8 23  1 10  0.0000000  0  8G29G12G02G04G05G10G25G30
   6135198.61845   4793708.39343  24265604.6954                   24265605.7384
 -32448781.60048 -25257085.46246  20704556.5164                   20704554.2814
 -43509775.49248 -33874718.93246  20921280.9144                   20921277.2274
 -41405312.61847 -32232966.73944  23550631.3594                   23550630.0784
 -30882972.83548 -24036281.26947  20385916.5474                   20385915.2974
 -34694156.89347 -27008267.88445  21722247.9844                   21722246.3014
 -13304206.12147 -10338419.97945  22173988.4844                   22173989.6294
 -11734906.29847  -9115363.59345  22088754.2114                   22088753.1334
 11  8 23  1 10 30.0000000  0  8G29G12G02G04G05G10G25G30
   5986484.31146   4677827.23043  24237305.6644                   24237306.1994
 -32511860.38748 -25306237.77646  20692553.0164                   20692550.6094
 -43551016.57948 -33906854.84946  20913432.7974                   20913428.8204
 -41391848.35247 -32222475.14444  23553192.6254                   23553193.2894
 -30983539.01648 -24114644.48247  20366779.4384                   20366777.7234
 -34689590.58447 -27004709.72145  21723116.7584                   21723115.5044
 -13430776.41947 -10437046.11546  22149902.6804                   22149903.8594
 -11853766.89247  -9207982.19845  22066136.5474                   22066134.3484
 11  8 23  1 11  0.0000000  0  8G29G12G02G04G05G10G25G30
   5837692.72446   4561885.83043  24208991.0474                   24208991.2974
 -32574366.41248 -25354943.80046  20680658.5944                   20680656.6094
 -43592125.41847 -33938887.69846  20905610.1484                   20905606.1684
 -41378431.52747 -32212020.46743  23555745.5634                   23555746.1334
 -31083553.40047 -24192577.74047  20347747.2274                   20347745.6764
 -34684581.19347 -27000806.30545  21724070.0084                   21724068.6524
 -13556877.04847 -10535306.29345  22125906.2734                   22125907.8244
 -11972093.64947  -9300184.85345  22043619.3754                   22043618.4694
 11  8 23  1 11 30.0000000  0  8G29G12G02G04G05G10G25G30
   5688824.83746   4445884.90443  24180663.9384                   24180662.6954
 -32636298.95748 -25403202.93846  20668873.2344                   20668871.1914
 -43633102.69347 -33970818.05146  20897812.3134                   20897808.1174
 -41365062.47947 -32201603.05343  23558289.5164                   23558290.1334
 -31183014.36447 -24270079.74847  20328820.1174                   20328818.8634
 -34679130.87947 -26996559.29145  21725107.3594                   21725105.9654
 -13682505.64147 -10633198.64446  22102000.4384                   22102001.3834
 -12089884.48047  -9391969.86845  22021204.0234                   22021203.1684
 11  8 23  1 12  0.0000000  0  8G29G12G02G04G05G10G25G30
   5539880.25146   4329824.21543  24152320.6094                   24152318.3874
 -32697659.70648 -25451016.52946  20657197.2194                   20657194.2774
 -43673950.36848 -34002647.40846  20890039.2274                   20890035.4304
 -41351743.10347 -32191224.42744  23560824.9304                   23560824.7974
 -31281922.61748 -24347151.08447  20309999.2584                   20309997.0314
 -34673243.87647 -26991972.02045  21726227.3204                   21726226.1054
 -13807661.44548 -10730722.58745  22078183.7504                   22078184.5394
 -12207139.07147  -9483337.05245  21998891.5234                   21998889.4224
 11  8 23  1 12 30.0000000  0  8G29G12G02G04G05G10G25G30
   5390861.98846   4213706.19143  24123962.6564                   24123960.6844
 -32758446.34948 -25498382.75946  20645629.8444                   20645627.5784
 -43714667.04748 -34034374.67546  20882291.3754                   20882287.2664
 -41338471.88847 -32180883.26744  23563350.4614                   23563349.5164
 -31380275.08148 -24423789.34147  20291282.8364                   20291281.0664
 -34666920.31648 -26987044.57745  21727430.9064                   21727429.2504
 -13932340.19748 -10827874.81545  22054458.4304                   22054458.6414
 -12323853.37448  -9574283.21845  21976682.0634                   21976680.3094
 11  8 23  1 13  0.0000000  0  8G29G12G02G04G05G10G25G30
   5241770.79346   4097531.25343  24095592.0004                   24095591.8164
 -32818659.39248 -25545302.03146  20634171.3834                   20634169.5274
 -43755253.79348 -34066000.70746  20874567.5634                   20874564.1764
 -41325249.78747 -32170580.36844  23565865.9224                   23565866.6914
 -31478071.12848 -24499994.00547  20272673.1804                   20272670.8914
 -34660163.12147 -26981779.23645  21728716.3594                   21728714.9844
 -14056540.21848 -10924654.00446  22030823.5864                   22030824.6564
 -12440026.10347  -9664807.37345  21954574.4304                   21954573.7624
 11  8 23  1 13 30.0000000  0  8G29G12G02G04G05G10G25G30
   5092604.34446   3981297.67344  24067206.3754                   24067205.5784
 -32878302.33848 -25591777.06246  20622821.9694                   20622819.3594
 -43795714.36648 -34097528.42146  20866868.7734                   20866863.8674
 -41312080.15247 -32160318.36544  23568372.3204                   23568372.4774
 -31575312.95948 -24575766.83447  20254168.7034                   20254166.5354
 -34652978.03448 -26976180.46345  21730084.1094                   21730082.3634
 -14180262.32348 -11021060.77946  22007279.6954                   22007280.8754
 -12555658.33147  -9754910.35945  21932570.5234                   21932569.5864
 11  8 23  1 14  0.0000000  0  8G29G12G02G04G05G10G25G30
   6518790.37646   5092611.47944  24338600.6954                   24338599.6334
 -31361951.06848 -24410204.64846  20911373.9064                   20911371.7504
 -42260626.12648 -32901355.75146  21158986.0864                   21158982.1054
 -39723542.16846 -30922496.61944  23870661.3364                   23870661.4064
 -30096574.36748 -23423502.96147  20535562.9924                   20535561.4804
 -33069945.65947 -25742648.73545  22031324.9304                   22031323.5234
 -12728078.47948  -9889488.90646  22283621.2974                   22283622.2934
 -11095322.85548  -8616986.56545  22210463.2584                   22210461.4344
 11  8 23  1 14 30.0000000  0  8G29G12G02G04G05G10G25G30
   6369483.93346   4976268.79744  24310188.7114                   24310188.0514
 -31420445.66548 -24455784.86546  20900242.6954                   20900240.6954
 -42300829.36748 -32932682.93946  21151335.6564                   21151331.6524
 -39710471.76647 -30912311.95543  23873148.7894                   23873147.8794
 -30192697.05648 -23498403.72347  20517271.3364                   20517269.8594
 -33061904.13348 -25736382.61845  22032855.5394                   22032853.7464
 -12850831.11948  -9985140.27046  22260262.5784                   22260263.6334
 -11209861.62347  -8706237.49045  22188667.1094                   22188665.8634
 11  8 23  1 15  0.0000000  0  8G29G12G02G04G05G10G25G30
   6220106.86946   4859871.11844  24281763.3134                   24281763.1094
 -31478369.01048 -24500919.94046  20889220.1564                   20889217.9884
 -42340907.25448 -32963912.45046  21143709.2734                   21143705.0004
 -39697454.02346 -30902168.31343  23875625.5704                   23875625.6174
 -30288261.63348 -23572869.59147  20499085.9614                   20499084.0744
 -33053440.66747 -25729787.73545  22034465.4454                   22034464.2194
 -12973098.19248 -10080413.25946  22236995.9614                   22236996.8094
 -11323853.45847  -8795062.24245  22166975.1024                   22166973.1134
 11  8 23  1 15 30.0000000  0  8G29G12G02G04G05G10G25G30
   6070660.17247   4743419.12344  24253324.8204                   24253324.8324
 -31535720.74348 -24545609.60246  20878306.4614                   20878304.2304
 -42380860.48348 -32995044.83446  21136106.4534                   21136102.0084
 -39684488.97346 -30892065.80044  23878092.6414                   23878093.4614
 -30383266.97348 -23646899.69847  20481007.1334                   20481005.1214
 -33044557.77647 -25722865.99345  22036156.2344                   22036154.8984
 -13094877.50448 -10175306.20846  22213821.9454                   22213822.6884
 -11437296.38547  -8883459.28745  22145387.5864                   22145385.5434
 11  8 23  1 16  0.0000000  0  8G29G12G02G04G05G10G25G30
   5921144.11347   4626913.11144  24224872.2974                   24224871.4144
 -31592502.20948 -24589854.90746  20867501.7274                   20867499.8054
 -42420690.42148 -33026081.12646  21128526.4064                   21128522.8954
 -39671578.32047 -30882005.57644  23880549.7274                   23880550.0084
 -30477713.15448 -23720494.09647  20463034.6884                   20463032.5394
 -33035258.88447 -25715620.12445  22037925.5314                   22037924.3594
 -13216167.97948 -10269818.22246  22190740.7974                   22190741.7114
 -11550189.78747  -8971428.14545  22123904.3134                   22123902.8794
 11  8 23  1 16 30.0000000  0  8G29G12G02G04G05G10G25G30
   5771559.69746   4510353.87544  24196407.5554                   24196406.8444
 -31648713.42448 -24633655.85846  20856804.6724                   20856802.4024
 -42460397.92248 -33057022.01846  21120970.5554                   21120966.5314
 -39658722.12246 -30871987.76943  23882996.3204                   23882996.1374
 -30571599.17848 -23793652.00347  20445168.5864                   20445167.2664
 -33025546.19247 -25708051.81645  22039774.3984                   22039772.3014
 -13336967.41448 -10363947.64046  22167753.6644                   22167754.3914
 -11662531.73447  -9058967.27845  22102525.6954                   22102524.5314
 11  8 23  1 17  0.0000000  0  8G29G12G02G04G05G10G25G30
   5621907.20946   4393741.51844  24167929.6644                   24167928.6684
 -31704355.47848 -24677013.29546  20846216.5234                   20846214.6054
 -42499984.22148 -33087868.48146  21113437.1414                   21113433.9804
 -39645921.75646 -30862013.57943  23885432.1564                   23885432.1524
 -30664925.25248 -23866373.58547  20427409.5704                   20427407.3874
 -33015422.98547 -25700163.61045  22041700.1804                   22041698.8014
 -13457274.66448 -10457693.52446  22144859.6954                   22144860.5394
 -11774321.55647  -9146076.19245  22081253.7814                   22081251.9224
 11  8 23  1 17 30.0000000  0  8G29G12G02G04G05G10G25G30
   5472188.90946   4277077.92644  24139439.1564                   24139439.3834
 -31759427.22648 -24719926.35046  20835736.3054                   20835734.1684
 -42539448.81548 -33118620.11246  21105927.8984                   21105924.0274
 -39633176.56946 -30852082.35543  23887857.1884                   23887857.7704
 -30757689.29748 -23938657.23647  20409756.8754                   20409755.2234
 -33004890.65847 -25691956.60145  22043704.6954                   22043702.6644
 -13577086.58248 -10551053.46446  22122060.4304                   22122060.9304
 -11885556.45547  -9232752.69845  22060086.2034                   22060084.3164
 11  8 23  1 18  0.0000000  0  8G29G12G02G04G05G10G25G30
   5322406.80846   4160364.64944  24110936.6644                   24110937.0124
 -31813928.38548 -24762394.77246  20825365.4774                   20825362.9574
 -42578791.86348 -33149277.02746  21098440.9614                   21098436.8834
 -39620486.30847 -30842193.83443  23890272.8594                   23890272.4884
 -30849890.02848 -24010501.92747  20392211.7424                   20392209.5944
 -32993951.11947 -25683432.28745  22045786.4614                   22045784.9774
 -13696400.42948 -10644025.26046  22099355.7584                   22099356.3284
 -11996234.15547  -9318995.03345  22039025.1334                   22039023.8674
 11  8 23  1 18 30.0000000  0  8G29G12G02G04G05G10G25G30
   5172561.43146   4043602.06544  24082421.6724                   24082421.9264
 -31867860.04548 -24804419.44746  20815102.3914                   20815100.7304
 -42618014.34748 -33179840.01046  21090977.3594                   21090973.4104
 -39607851.17347 -30832348.32743  23892676.9614                   23892677.2584
 -30941526.99148 -24081907.31547  20374773.6564                   20374771.6954
 -32982607.28947 -25674592.94745  22047945.0864                   22047943.3324
 -13815214.59648 -10736607.71846  22076746.0784                   22076746.4924
 -12106353.30547  -9404802.13645  22018070.1954                   22018068.7544
 11  8 23  1 19  0.0000000  0  8G29G12G02G04G05G10G25G30
   5022656.09346   3926792.75444  24053895.5784                   24053895.5784
 -31921219.96448 -24845998.60446  20804948.3834                   20804946.5594
 -42657114.73648 -33210307.84746  21083536.6024                   21083532.5204
 -39595269.87247 -30822544.68243  23895071.1484                   23895070.7154
 -31032597.21048 -24152871.09647  20357443.6094                   20357441.4884
 -32970859.46247 -25665438.79745  22050180.6804                   22050179.0554
 -13933524.97648 -10828797.62846  22054232.7664                   22054233.1764
 -12215910.25347  -9490171.16645  21997222.1644                   21997220.7194
 11  8 23  1 19 30.0000000  0  8G29G12G02G04G05G10G25G30
   4872686.55146   3809933.47843  24025356.9304                   24025357.9024
 -31974013.70948 -24887136.58546  20794901.8364                   20794900.3594
 -42696098.91948 -33240685.13946  21076117.9144                   21076114.3954
 -39582748.07547 -30812787.39443  23897454.0394                   23897454.1684
 -31123105.96648 -24223397.36047  20340220.4694                   20340218.2704
 -32958715.48047 -25655975.96345  22052491.4224                   22052489.7854
 -14051335.01248 -10920597.64246  22031813.9774                   22031814.2664
 -12324908.87747  -9575105.13945  21976479.7974                   21976478.6844
 11  8 23  1 20  0.0000000  0  8G29G12G02G04G05G10G25G30
   4722654.86246   3693025.76944  23996806.3984                   23996806.7814
 -32026240.70348 -24927832.94046  20784963.4454                   20784961.4494
 -42734966.42048 -33270971.51246  21068721.9614                   21068717.7034
 -39570285.00347 -30803075.85343  23899825.1414                   23899824.6374
 -31213051.29548 -24293484.60247  20323104.5314                   20323102.4924
 -32946177.20647 -25646205.87145  22054877.5314                   22054875.5474
 -14168641.72648 -11012005.46746  22009490.9384                   22009491.3164
 -12433346.58447  -9659602.01945  21955845.2424                   21955844.4344
 11  8 23  1 20 30.0000000  0  8G29G12G02G04G05G10G25G30
   4572563.18546   3576071.31144  23968245.3674                   23968245.2074
 -32077900.78448 -24968087.54646  20775133.3444                   20775130.6374
 -42773716.71748 -33301166.54946  21061348.0704                   21061343.7814
 -39557879.85647 -30793409.45043  23902186.7114                   23902184.9264
 -31302431.59948 -24363131.55547  20306095.6024                   20306093.7894
 -32933246.23147 -25636129.80245  22057338.1094                   22057336.8134
 -14285442.22048 -11103018.82946  21987264.4534                   21987265.3484
 -12541220.90347  -9743659.91945  21935317.6484                   21935315.8714
 11  8 23  1 21  0.0000000  0  8G29G12G02G04G05G10G25G30
   4422413.42646   3459071.50744  23939673.2344                   23939672.6644
 -32128993.51348 -25007900.06046  20765410.4304                   20765408.3554
 -42812350.28248 -33331270.62946  21053996.5634                   21053992.3914
 -39545532.80746 -30783788.36143  23904536.1884                   23904534.4414
 -31391245.60648 -24432337.24547  20289195.0554                   20289193.0204
 -32919924.42947 -25625749.16145  22059872.9844                   22059871.6484
 -14401734.06348 -11193635.85246  21965134.9224                   21965135.3634
 -12648529.73947  -9827277.18745  21914897.2274                   21914895.7584
 11  8 23  1 21 30.0000000  0  8G29G12G02G04G05G10G25G30
   4272206.13746   3342026.93444  23911089.6254                   23911089.5864
 -32179519.96148 -25047271.32146  20755795.5084                   20755793.4534
 -42850868.18248 -33361284.56646  21046666.5164                   21046662.7274
 -39533244.27146 -30774212.84043  23906873.7894                   23906874.2814
 -31479493.58348 -24501101.86947  20272402.1644                   20272399.9574
 -32906214.92647 -25615066.41645  22062481.8674                   22062480.0164
 -14517516.01348 -11283855.54646  21943102.6884                   21943103.6764
 -12755272.42147  -9910453.29745  21894584.8984                   21894583.7074
 11  8 23  1 22  0.0000000  0  8G29G12G02G04G05G10G25G30
   4121941.00247   3224937.29244  23882495.1884                   23882494.9534
 -32229482.14548 -25086202.89846  20746287.7194                   20746285.6524
 -42889272.91248 -33391210.32746  21039358.2344                   21039354.9494
 -39521016.61446 -30764684.75043  23909201.0164                   23909200.3594
 -31567176.76248 -24569426.39747  20255716.3984                   20255714.2154
 -32892122.29547 -25604085.14945  22065163.8984                   22065162.2814
 -14632788.06648 -11373677.93046  21921167.4534                   21921166.8754
 -12861449.31147  -9993188.52045  21874380.0004                   21874378.7304
 11  8 23  1 22 30.0000000  0  8G29G12G02G04G05G10G25G30
   3971617.41647   3107802.13544  23853889.2274                   23853889.1524
 -32278882.09648 -25124696.37846  20736887.3444                   20736885.1414
 -42927566.02348 -33421049.10446  21032071.6254                   21032067.6374
 -39508851.55746 -30755205.42443  23911515.0944                   23911515.3484
 -31654295.83648 -24637311.35147  20239138.1954                   20239136.2304
 -32877650.41947 -25592808.34745  22067917.5634                   22067916.2114
 -14747549.55848 -11463102.47446  21899328.6334                   21899329.4654
 -12967060.14447 -10075482.66445  21854282.5314                   21854281.0944
 11  8 23  1 23  0.0000000  0  8G29G12G02G04G05G10G25G30
   3821239.86447   2990624.88944  23825274.1644                   23825272.7194
 -32327717.25148 -25162749.74546  20727594.3754                   20727592.3244
 -42965745.03148 -33450798.96146  21024806.0474                   21024802.5004
 -39496746.03546 -30745772.48743  23913818.6094                   23913819.6564
 -31740847.34448 -24704754.04847  20222667.8984                   20222666.1174
 -32862798.38647 -25581235.33145  22070744.1094                   22070741.8634
 -14861795.53448 -11552125.29646  21877588.5554                   21877589.2664
 -13072100.45047 -10157332.24945  21834294.4694                   21834293.1094
 11  8 23  1 23 30.0000000  0  8G29G12G02G04G05G10G25G30
   3670805.88747   2873403.66544  23796646.8204                   23796645.6844
 -32375991.39748 -25200365.96946  20718408.2664                   20718406.0514
 -43003814.29148 -33480463.29446  21017561.9694                   21017557.4144
 -39484703.98546 -30736389.06343  23916109.9384                   23916110.6804
 -31826834.24648 -24771756.79647  20206305.0164                   20206302.4884
 -32847572.61447 -25569371.07645  22073641.0164                   22073639.6684
 -14975527.87248 -11640747.87946  21855946.1884                   21855946.7114
 -13176572.47548 -10238739.01745  21814414.0164                   21814412.9884
 11  8 23  1 24  0.0000000  0  8G29G12G02G04G05G10G25G30
   3520317.26547   2756139.86244  23768010.0944                   23768009.1804
 -32423705.23748 -25237545.59346  20709328.9384                   20709326.6174
 -43041773.85048 -33510042.14946  21010338.4924                   21010334.6604
 -39472725.29845 -30727054.90443  23918389.1334                   23918389.8444
 -31912255.64248 -24838318.88647  20190050.0784                   20190047.7304
 -32831975.27247 -25557217.30245  22076609.4844                   22076608.0864
 -15088744.44248 -11728968.57946  21834401.3754                   21834401.9304
 -13280474.71247 -10319701.79345  21794642.0314                   21794641.1054
 11  8 23  1 24 30.0000000  0  8G29G12G02G04G05G10G25G30
   3369775.23747   2638834.40444  23739362.8284                   23739361.2424
 -32470859.12348 -25274288.89046  20700355.2814                   20700353.1374
 -43079623.81848 -33539535.60246  21003135.6804                   21003131.7304
 -39460810.06845 -30717770.35443  23920656.4304                   23920657.6374
 -31997110.97248 -24904439.88947  20173902.4304                   20173901.1054
 -32816008.82447 -25544775.91145  22079647.4694                   22079646.4924
 -15201443.18448 -11816785.77346  21812955.6484                   21812956.4654
 -13383805.39047 -10400219.20545  21774978.6334                   21774977.6414
 11  8 23  1 25  0.0000000  0  8G29G12G02G04G05G10G25G30
   3219179.62247   2521487.22344  23710704.8444                   23710704.2344
 -32517455.07248 -25310597.43946  20691488.8204                   20691486.5394
 -43117366.59848 -33568945.54546  20995953.7194                   20995949.8164
 -39448960.04046 -30708536.50543  23922912.2894                   23922911.4804
 -32081401.98948 -24970121.18147  20157862.1564                   20157860.3324
 -32799677.53347 -25532050.21345  22082755.2424                   22082754.0514
 -15313624.04647 -11904199.41846  21791608.2114                   21791609.1684
 -13486564.94547 -10480291.59045  21755424.2584                   21755423.4844
 11  8 23  1 25 30.0000000  0  8G29G12G02G04G05G10G25G30
   4643959.26447   3631705.20344  23981831.8054                   23981830.5204
 -30988069.84348 -24118868.70246  20982521.1724                   20982518.6254
 -41579579.38848 -32370669.76546  21288584.5704                   21288580.7814
 -37861753.50346 -29471752.16743  24224948.0784                   24224947.4694
 -30589702.81448 -23807758.15647  20441723.4304                   20441721.1134
 -31207562.28447 -24291440.92345  22385725.1724                   22385723.4964
 -13849859.18148 -10763603.41646  22070153.4694                   22070154.3714
 -12013326.23147  -9332313.35945  22035772.7734                   22035771.6524
 11  8 23  1 26  0.0000000  0  8G29G12G02G04G05G10G25G30
   4493264.70346   3514280.92944  23953154.8594                   23953154.7304
 -31033547.50448 -24154305.85546  20973866.9454                   20973865.0234
 -41617104.98648 -32399910.45846  21281443.6094                   21281439.9414
 -37850030.33246 -29462617.20844  24227178.4144                   24227178.5514
 -30672858.70648 -23872554.92147  20425899.5234                   20425897.0554
 -31190504.89947 -24278149.43145  22388970.5864                   22388969.1454
 -13960994.66948 -10850202.48446  22049005.2114                   22049005.6914
 -12114935.31647  -9411489.27345  22016436.7734                   22016435.6764
 11  8 23  1 26 30.0000000  0  8G29G12G02G04G05G10G25G30
   4342522.41547   3396819.50144  23924470.2344                   23924469.2194
 -31078467.32748 -24189308.31846  20965319.1254                   20965317.2194
 -41654522.99748 -32429067.32746  21274323.3134                   21274319.3554
 -37838371.11346 -29453532.07344  24229397.9224                   24229397.6294
 -30755446.85648 -23936909.29947  20410183.2734                   20410180.7464
 -31173088.38947 -24264578.12645  22392285.1724                   22392283.0824
 -14071605.16548 -10936392.48246  22027956.5234                   22027956.6764
 -12215967.58347  -9490215.72245  21997210.8284                   21997209.1174
 11  8 23  1 27  0.0000000  0  8G29G12G02G04G05G10G25G30
   4191732.57647   3279321.04444  23895775.6094                   23895775.2114
 -31122830.80048 -24223877.28046  20956877.0004                   20956874.9384
 -41691834.52148 -32458141.22746  21267222.9534                   21267219.1524
 -37826777.01346 -29444497.71144  24231602.8754                   24231603.4224
 -30837467.87748 -24000821.76447  20394575.0004                   20394572.9024
 -31155316.36447 -24250729.78245  22395667.4534                   22395664.8054
 -14181689.94848 -11022172.83046  22007008.1954                   22007008.3984
 -12316422.84747  -9568492.55145  21978094.6564                   21978094.5274
 11  8 23  1 27 30.0000000  0  8G29G12G02G04G05G10G25G30
   4040895.72047   3161785.92044  23867071.4844                   23867071.0474
 -31166639.94548 -24258014.28946  20948540.2974                   20948537.9574
 -41729041.59348 -32487133.74446  21260142.9844                   21260139.3404
 -37815249.45746 -29435515.19644  24233797.1174                   24233798.2114
 -30918922.93148 -24064293.21047  20379074.9224                   20379073.1254
 -31137192.68947 -24236607.42245  22399115.0784                   22399114.1054
 -14291248.55248 -11107543.16046  21986159.6414                   21986160.7664
 -12416301.02147  -9646319.70545  21959089.2894                   21959087.3134
 11  8 23  1 28  0.0000000  0  8G29G12G02G04G05G10G25G30
   3890014.30646   3044216.09044  23838359.7814                   23838358.5164
 -31209894.16848 -24291718.89546  20940309.7194                   20940307.3594
 -41766143.28648 -32516044.14746  21253082.6564                   21253078.6094
 -37803786.95846 -29426583.40443  24235978.2814                   24235977.7384
 -30999810.08648 -24127322.13347  20363682.5234                   20363680.5044
 -31118718.55247 -24222211.99745  22402630.7274                   22402628.9534
 -14400277.86748 -11192501.06846  21965412.0004                   21965412.7194
 -12515599.47347  -9723695.13745  21940193.0164                   21940191.6804
 11  8 23  1 28 30.0000000  0  8G29G12G02G04G05G10G25G30
   3739089.23947   2926612.23744  23809639.8834                   23809639.1374
 -31252594.59248 -24324991.96546  20932183.4844                   20932182.0664
 -41803140.55247 -32544873.17146  21246042.2344                   21246038.3364
 -37792390.20346 -29417702.78443  24238147.3674                   24238146.4384
 -31080129.61548 -24189908.76647  20348397.9304                   20348396.0084
 -31099897.19347 -24207545.99545  22406212.2424                   22406211.2584
 -14508776.81648 -11277045.70546  21944765.2034                   21944766.2034
 -12614317.68547  -9800618.41845  21921407.4064                   21921406.3444
 11  8 23  1 29  0.0000000  0  8G29G12G02G04G05G10G25G30
   3588122.23647   2808975.69744  23780911.8134                   23780911.4494
 -31294741.78448 -24357833.94646  20924163.2194                   20924161.1994
 -41840033.30047 -32573620.73846  21239021.3754                   21239017.7974
 -37781059.13946 -29408873.36543  24240303.0314                   24240301.8914
 -31159880.89948 -24252052.59747  20333221.9144                   20333219.8834
 -31080730.53147 -24192610.94645  22409859.8594                   22409858.3754
 -14616743.35648 -11361175.47746  21924220.3674                   21924220.3634
 -12712454.12147  -9877088.38145  21902732.5784                   21902731.4844
 11  8 23  1 29 30.0000000  0  8G29G12G02G04G05G10G25G30
   3437113.56447   2691306.66544  23752175.3984                   23752175.7234
 -31336337.54448 -24390246.24946  20916247.9924                   20916246.0234
 -41876822.96848 -32602288.00646  21232020.8984                   21232016.6884
 -37769794.94546 -29400096.06243  24242446.7734                   24242446.1604
 -31239065.07648 -24313754.52547  20318153.6724                   20318151.7504
 -31061222.61847 -24177409.96645  22413572.3134                   22413571.1524
 -14724177.12848 -11444890.10246  21903776.5234                   21903776.2074
 -12810008.85447  -9953105.05545  21884168.9454                   21884167.5864
 11  8 23  1 30  0.0000000  0  8G29G12G02G04G05G10G25G30
   3286065.16247   2573606.62944  23723432.8364                   23723431.6374
 -31377382.12448 -24422229.05646  20908437.5704                   20908435.3524
 -41913509.68447 -32630875.05746  21225039.4384                   21225035.7974
 -37758597.20646 -29391370.51843  24244578.3984                   24244576.5784
 -31317681.55148 -24375014.09047  20303193.4454                   20303191.2274
 -31041375.41347 -24161944.61244  22417348.9384                   22417347.4384
 -14831076.01448 -11528187.93946  21883434.1024                   21883435.0204
 -12906980.34747 -10028667.25945  21865716.0234                   21865714.1174
 11  8 23  1 30 30.0000000  0  9G26G29G12G02G04G05G10G25G30
  12372919.16955   9655320.80952  24835494.7344                   24835495.7504
   3134976.04447   2455874.88644  23694681.1254                   23694679.2814
 -31417878.87448 -24453784.98046  20900731.1254                   20900728.7584
 -41950096.04248 -32659383.89446  21218077.5864                   21218073.3954
 -37747468.57946 -29382698.78143  24246694.9924                   24246695.6724
 -31395732.39348 -24435832.90047  20288340.9454                   20288338.8984
 -31021193.82947 -24146218.70244  22421189.7274                   22421187.4184
 -14937440.83947 -11611069.61546  21863193.9064                   21863194.3284
 -13003369.87247 -10103775.98145  21847373.5554                   21847371.7974
 11  8 23  1 31  0.0000000  0  9G26G29G12G02G04G05G10G25G30
  12213416.56846   9531033.22143  24805142.5314                   24805143.4454
   2983842.26347   2338108.30444  23665920.7344                   23665920.0164
 -31457833.93648 -24484918.81246  20893127.9774                   20893125.6254
 -41986587.90248 -32687819.10846  21211133.3914                   21211129.6094
 -37736414.15846 -29374084.92943  24248798.7114                   24248798.2464
 -31473222.71148 -24496214.94047  20273594.5394                   20273592.5594
 -31000685.95647 -24130238.55044  22425091.8594                   22425090.3634
 -15043275.40748 -11693538.11046  21843054.0634                   21843054.2774
 -13099181.75747 -10178434.58145  21829140.8054                   21829139.5944
 11  8 23  1 31 30.0000000  0  9G26G29G12G02G04G05G10G25G30
  12053759.69945   9406625.31943  24774761.2194                   24774760.9844
   2832664.86447   2220307.77544  23637152.3674                   23637151.5394
 -31497249.02148 -24515631.88146  20885627.6094                   20885625.1844
 -42022986.44747 -32716181.61346  21204206.7274                   21204203.5394
 -37725434.67246 -29365529.56543  24250888.2274                   24250887.1804
 -31550153.08848 -24556160.66147  20258955.4534                   20258953.4144
 -30979854.75647 -24114006.44844  22429056.1724                   22429054.8134
 -15148578.74348 -11775592.66346  21823015.3524                   21823016.3244
 -13194415.55847 -10252642.74345  21811018.4454                   21811016.9184
 11  8 23  1 32  0.0000000  0  9G26G29G12G02G04G05G10G25G30
  11893954.47146   9282101.97143  24744350.2034                   24744351.8594
   2681447.78047   2102476.26944  23608377.7114                   23608375.4844
 -31536122.34848 -24545922.79246  20878230.1804                   20878227.9694
 -42059289.48547 -32744469.67946  21197298.9614                   21197294.4024
 -37714527.79546 -29357030.66043  24252963.7194                   24252963.1254
 -31626520.95348 -24615668.07447  20244423.1174                   20244420.7384
 -30958700.73847 -24097522.78545  22433081.4924                   22433079.4964
 -15253346.96648 -11857230.23346  21803078.5474                   21803078.8554
 -13289067.89047 -10326397.79145  21793006.7664                   21793005.4694
 11  8 23  1 32 30.0000000  0  9G26G29G12G02G04G05G10G25G30
  11734006.60746   9157467.40743  24713914.1334                   24713914.2934
   2530194.91347   1984616.87944  23579594.8054                   23579593.6134
 -31574452.25248 -24575790.27146  20870936.0004                   20870934.2424
 -42095494.75247 -32772681.57246  21190409.0004                   21190404.8914
 -37703690.94346 -29348586.45243  24255025.3754                   24255026.1684
 -31702323.44248 -24674734.91047  20229998.1564                   20229996.1414
 -30937223.75147 -24080787.46344  22437168.5164                   22437166.4804
 -15357575.92448 -11938447.60446  21783244.3524                   21783244.9384
 -13383135.16148 -10399696.96245  21775106.5164                   21775104.9494
 11  8 23  1 33  0.0000000  0  9G26G29G12G02G04G05G10G25G30
  11573922.19046   9032726.35543  24683450.4694                   24683451.1484
   2378910.94447   1866733.22244  23550806.3284                   23550804.9654
 -31612236.23047 -24605232.35246  20863746.1644                   20863743.7664
 -42131599.01547 -32800814.75046  21183538.8674                   21183534.5084
 -37692920.88546 -29340194.08843  24257074.9774                   24257075.6914
 -31777557.41748 -24733358.75047  20215681.5944                   20215679.6414
 -30915422.95347 -24063799.82845  22441317.1724                   22441316.1214
 -15461260.80848 -12019241.01346  21763514.3284                   21763515.0984
 -13476613.16247 -10472536.94645  21757317.9924                   21757316.4344
 11  8 23  1 33 30.0000000  0  9G26G29G12G02G04G05G10G25G30
  11413705.81446   8907882.52943  24652962.1094                   24652962.9884
   2227598.96546   1748827.77944  23522012.5634                   23522010.9924
 -31649474.42348 -24634249.12546  20856660.0164                   20856657.7114
 -42167601.44747 -32828868.59446  21176687.6884                   21176683.5004
 -37682216.38646 -29331852.83043  24259111.6724                   24259111.0354
 -31852221.86448 -24791538.82047  20201473.2424                   20201471.3484
 -30893299.74346 -24046560.98244  22445526.9534                   22445525.6484
 -15564399.02547 -12099608.44246  21743887.1564                   21743887.8674
 -13569499.64748 -10544916.01845  21739642.5164                   21739640.9024
 11  8 23  1 34  0.0000000  0  9G26G29G12G02G04G05G10G25G30
  11253358.44346   8782936.66143  24622449.5314                   24622449.9184
   2076258.28347   1630899.94844  23493212.8674                   23493212.5234
 -31686169.86748 -24662843.00046  20849677.2034                   20849675.4224
 -42203504.72648 -32856845.15946  21169855.4694                   21169850.9144
 -37671579.77246 -29323564.53543  24261136.1884                   24261134.6844
 -31926318.64248 -24849276.54247  20187373.7274                   20187370.9494
 -30870858.97846 -24029074.66544  22449796.8524                   22449795.0864
 -15666991.35648 -12179550.51246  21724364.7814                   21724365.3984
 -13661796.08347 -10616835.31645  21722078.7344                   21722077.1094
 11  8 23  1 34 30.0000000  0  9G26G29G12G02G04G05G10G25G30
  11092884.87346   8657892.40343  24591911.6954                   24591913.1024
   1924891.87147   1512952.12644  23464409.1644                   23464408.6684
 -31722321.61048 -24691013.19746  20842797.5554                   20842795.6564
 -42239307.64448 -32884743.51146  21163042.3914                   21163038.3984
 -37661009.20846 -29315327.68043  24263147.3984                   24263145.7664
 -31999846.07248 -24906570.61347  20173381.7114                   20173379.6374
 -30848101.63646 -24011341.66145  22454127.9304                   22454126.2894
 -15769034.64248 -12259064.75346  21704946.5314                   21704947.0394
 -13753499.86347 -10688292.79645  21704628.6254                   21704626.8834
 11  8 23  1 35  0.0000000  0  9G26G29G12G02G04G05G10G25G30
  10932288.88046   8532752.73444  24561351.1094                   24561351.5634
   1773502.07047   1394986.06844  23435600.4304                   23435600.2544
 -31757930.33448 -24718760.27346  20836021.7034                   20836020.1524
 -42275009.76148 -32912563.33346  21156248.5004                   21156243.8714
 -37650504.05046 -29307141.80243  24265147.1024                   24265146.7814
 -32072803.46048 -24963420.49847  20159498.1724                   20159496.3244
 -30825029.39746 -23993363.28944  22458518.1954                   22458517.2704
 -15870526.86447 -12338149.58846  21685633.0474                   21685633.8244
 -13844609.41447 -10759287.24045  21687291.0864                   21687289.5944
 11  8 23  1 35 30.0000000  0  9G26G29G12G02G04G05G10G25G30
  10771570.94146   8407518.08043  24530767.7584                   24530768.0434
   1622087.65346   1277000.84644  23406787.5554                   23406786.9884
 -31792999.85548 -24746087.19246  20829348.1414                   20829346.1294
 -42310614.07248 -32940306.94346  21149473.1174                   21149469.4184
 -37640067.03146 -29299009.06443  24267133.1174                   24267132.9224
 -32145193.80548 -25019828.53347  20145722.8054                   20145720.5204
 -30801647.80846 -23975143.89044  22462967.7584                   22462966.1374
 -15971469.48148 -12416806.16246  21666424.1644                   21666424.0864
 -13935126.79747 -10829820.27345  21670065.7664                   21670064.2894
 11  8 23  1 36  0.0000000  0  9G26G29G12G02G04G05G10G25G30
  10610736.84446   8282192.86343  24500161.1804                   24500162.0394
   1470652.75146   1158999.69444  23377970.9384                   23377969.8524
 -31827528.58448 -24772992.69646  20822777.6024                   20822775.7034
 -42346118.21347 -32967972.49046  21142716.8284                   21142712.8284
 -37629695.82746 -29290927.61443  24269106.6564                   24269106.0704
 -32217014.98848 -25075793.06847  20132055.6484                   20132053.4064
 -30777956.86147 -23956683.41744  22467475.6804                   22467474.4884
 -16071858.54747 -12495031.39946  21647321.1414                   21647321.2974
 -14025048.69548 -10899889.26745  21652954.6954                   21652953.2464
 11  8 23  1 36 30.0000000  0  9G26G29G12G02G04G05G10G25G30
  10449786.65146   8156777.30443  24469533.5864                   24469534.6604
   1319196.12547   1040981.61545  23349149.2504                   23349149.5434
 -31861520.44547 -24799479.87546  20816309.1564                   20816306.8444
 -42381525.56847 -32995562.62546  21135978.9694                   21135974.7344
 -37619393.03846 -29282899.51243  24271066.7734                   24271066.8794
 -32288269.41448 -25131315.97647  20118496.5314                   20118494.0474
 -30753961.87047 -23937985.99644  22472041.8284                   22472040.6024
 -16171695.67048 -12572826.52946  21628322.4384                   21628323.5904
 -14114377.21248 -10969495.90345  21635955.8444                   21635954.6174
 11  8 23  1 37  0.0000000  0  9G26G29G12G02G04G05G10G25G30
  11864150.92746   9258879.38043  24738678.4694                   24738678.2854
   2743145.73047   2150552.80944  23620117.4694                   23620117.5514
 -30319554.21048 -23597947.76646  21109735.6724                   21109733.6454
 -40841413.94748 -31795475.62346  21429052.8444                   21429048.4774
 -36033737.80746 -28047323.96743  24572807.4384                   24572807.2504
 -30783533.96248 -23958794.82547  20404837.8754                   20404835.7464
 -29154245.22546 -22691453.54944  22776457.9304                   22776456.6024
 -14695554.99347 -11422587.03646  21909222.9614                   21909223.3364
 -12627687.35548  -9811036.26546  21918863.4454                   21918862.5554
 11  8 23  1 37 30.0000000  0  9G26G29G12G02G04G05G10G25G30
  11702979.35846   9133291.27343  24708007.8364                   24708009.9064
   2591650.80246   2032504.88244  23591289.3364                   23591288.4064
 -30352475.07948 -23623600.40046  21103470.8914                   21103468.9924
 -40876627.84248 -31822915.01946  21422351.4224                   21422347.6214
 -36023571.18246 -28039401.98143  24574742.2424                   24574742.5394
 -30853655.49848 -24013434.96747  20391494.2584                   20391492.3134
 -29129650.09147 -22672288.53844  22781138.3594                   22781136.2504
 -14794283.87448 -11499518.61746  21890435.3444                   21890435.8054
 -12715826.38948  -9879716.02845  21902090.9064                   21902089.0634
 11  8 23  1 38  0.0000000  0  9G26G29G12G02G04G05G10G25G30
  11541701.72946   9007620.53143  24677317.5164                   24677319.2074
   2440138.87947   1914443.72845  23562457.7344                   23562456.1724
 -30384862.86848 -23648837.65646  21097307.6024                   21097306.1294
 -40911745.64448 -31850279.52546  21415668.6644                   21415664.4184
 -36013472.96946 -28031533.24143  24576663.4144                   24576663.7424
 -30923211.10248 -24067634.12447  20378258.5004                   20378256.5824
 -29104758.60147 -22652892.57944  22785874.9224                   22785872.9494
 -14892457.01947 -11576017.15146  21871753.8284                   21871754.3244
 -12803369.94748  -9947931.78645  21885432.7034                   21885431.0984
 11  8 23  1 38 30.0000000  0  9G26G29G12G02G04G05G10G25G30
  11380319.91146   8881868.55543  24646608.1024                   24646608.0354
   2288610.02647   1796369.41345  23533622.3754                   23533621.8284
 -30416720.04948 -23673661.44946  21091245.4924                   21091243.3674
 -40946768.98648 -31877570.44046  21409003.6564                   21408999.9454
 -36003444.49846 -28023718.84043  24578571.4144                   24578571.1644
 -30992202.11048 -24121393.33247  20365129.7814                   20365127.6954
 -29079575.17147 -22633269.14044  22790667.1484                   22790665.4534
 -14990074.62748 -11652082.81446  21853177.7424                   21853178.2544
 -12890318.79948 -10015684.13145  21868886.5084                   21868884.5704
 11  8 23  1 39  0.0000000  0  9G26G29G12G02G04G05G10G25G30
  11218838.91746   8756039.32842  24615879.6174                   24615879.4924
   2137067.89547   1678284.71044  23504784.2424                   23504784.0864
 -30448046.04548 -23698071.32346  21085284.5704                   21085282.6844
 -40981696.45748 -31904786.64846  21402357.7344                   21402353.2384
 -35993483.64546 -28015957.13443  24580466.5474                   24580466.7734
 -31060627.41048 -24174711.73447  20352108.8674                   20352106.6954
 -29054100.25247 -22613418.55544  22795514.6644                   22795513.6644
 -15087133.69047 -11727713.24146  21834707.9694                   21834707.9414
 -12976670.47348 -10082971.13846  21852454.1724                   21852453.3554
 11  8 23  1 39 30.0000000  0  9G26G29G12G02G04G05G10G25G30
  11057259.21646   8630133.17242  24585131.1644                   24585131.6564
   1985511.13946   1560188.63744  23475943.7034                   23475943.3204
 -30478844.79448 -23722070.35446  21079423.3444                   21079421.5474
 -41016531.02347 -31931930.45346  21395729.2814                   21395724.6764
 -35983593.53446 -28008250.60743  24582349.8754                   24582348.2154
 -31128489.82748 -24227591.52647  20339195.1484                   20339192.9224
 -29028339.67947 -22593345.37844  22800416.8594                   22800415.5314
 -15183635.82847 -11802909.71046  21816344.0004                   21816344.0164
 -13062427.24648 -10149794.59745  21836134.7344                   21836133.7934
 11  8 23  1 40  0.0000000  0  9G26G29G12G02G04G05G10G25G30
  10895584.03246   8504152.58943  24554365.6094                   24554365.9734
   1833941.39247   1442082.39444  23447101.4534                   23447100.5554
 -30509117.43148 -23745659.43746  21073663.1484                   21073660.8524
 -41051272.84247 -31959001.98646  21389117.9304                   21389113.3554
 -35973773.66756 -28000598.80853  24584218.3914                   24584217.1174
 -31195789.69448 -24280032.96447  20326388.3594                   20326386.1604
 -29002295.95046 -22573051.54444  22805372.8594                   22805370.9654
 -15279579.97547 -11877671.36346  21798086.2584                   21798087.3874
 -13147588.52248 -10216154.02645  21819929.3054                   21819927.6804
 11  8 23  1 40 30.0000000  0  9G26G29G12G02G04G05G10G25G30
  10733815.38046   8378099.17642  24523582.4844                   24523582.3714
   1682359.26447   1323966.52845  23418256.9454                   23418255.7734
 -30538866.37948 -23768840.45046  21068001.7034                   21067999.8794
 -41085923.48147 -31986002.47946  21382523.8834                   21382520.5124
 -35964026.47256 -27993003.86352  24586071.5554                   24586071.8754
 -31262528.45048 -24332037.17047  20313688.6024                   20313686.4184
 -28975972.70046 -22552539.91444  22810382.4384                   22810380.4414
 -15374966.07047 -11951998.18846  21779935.4224                   21779936.1134
 -13232154.92848 -10282049.93145  21803837.0474                   21803835.5354
 11  8 23  1 41  0.0000000  0  9G26G29G12G02G04G05G10G25G30
  10571957.99346   8251976.68043  24492781.5394                   24492782.2624
   1530767.63847   1205843.24145  23389409.8284                   23389408.2154
 -30568092.04748 -23791613.69846  21062440.7194                   21062438.4144
 -41120481.71447 -32012930.95446  21375947.5944                   21375943.6334
 -35954348.22346 -27985462.41442  24587914.4224                   24587913.5354
 -31328705.20947 -24383603.45447  20301095.3134                   20301093.2774
 -28949371.53346 -22531811.74044  22815444.5234                   22815442.7584
 -15469791.81448 -12025888.36246  21761890.4694                   21761891.3554
 -13316124.69348 -10347480.91645  21787857.8594                   21787856.2974
 11  8 23  1 41 30.0000000  0  9G26G29G12G02G04G05G10G25G30
  10410014.63946   8125787.10343  24461965.2034                   24461964.8164
   1379167.43047   1087713.24545  23360560.5784                   23360559.8794
 -30596796.15648 -23813980.55146  21056978.1094                   21056976.2544
 -41154948.62147 -32039788.28946  21369389.2194                   21369384.5944
 -35944740.81546 -27977976.14142  24589743.6884                   24589742.1844
 -31394320.85247 -24434732.50547  20288608.9384                   20288606.5314
 -28922495.30746 -22510869.24144  22820558.0864                   22820557.1884
 -15564056.86647 -12099341.64246  21743952.2974                   21743953.0744
 -13399498.09648 -10412447.20445  21771992.5704                   21771991.2544
 11  8 23  1 42  0.0000000  0  9G26G29G12G02G04G05G10G25G30
  10247988.03646   7999532.71943  24431131.5164                   24431132.3594
   1227560.05147    969577.65845  23331711.5554                   23331710.3914
 -30624980.62148 -23835942.48646  21051614.7664                   21051612.9104
 -41189325.04947 -32066575.10746  21362846.8134                   21362843.1564
 -35935204.71846 -27970545.47243  24591556.9454                   24591557.3954
 -31459376.61548 -24485425.29247  20276229.2974                   20276227.2194
 -28895347.32546 -22489714.96244  22825724.5314                   22825722.3054
 -15657760.69947 -12172357.60346  21726120.7894                   21726121.6024
 -13482275.26948 -10476948.89445  21756240.6414                   21756239.4804
 11  8 23  1 42 30.0000000  0  9G26G29G12G02G04G05G10G25G30
  10085880.83546   7873215.46143  24400284.1884                   24400284.2664
   1075946.03247    851436.88844  23302859.3594                   23302858.3364
 -30652647.76448 -23857501.29646  21046350.4304                   21046348.1254
 -41223612.03548 -32093292.23046  21356323.2664                   21356318.4884
 -35925740.34546 -27963170.63443  24593358.7664                   24593359.3364
 -31523873.63848 -24535682.68047  20263955.8364                   20263953.3404
 -28867931.30746 -22468351.82444  22830941.7584                   22830940.6254
 -15750903.13347 -12244936.11946  21708396.6724                   21708397.3164
 -13564456.50948 -10540986.21845  21740601.9454                   21740601.1604
 11  8 23  1 43  0.0000000  0  9G26G29G12G02G04G05G10G25G30
   9923694.12446   7746836.33643  24369421.2034                   24369421.5634
    924325.21447    733290.78044  23274007.1954                   23274005.3914
 -30679801.32048 -23878659.90846  21041182.7814                   21041180.7894
 -41257811.57248 -32119941.22146  21349815.0234                   21349810.4734
 -35916349.70346 -27955853.32743  24595146.8364                   24595146.0314
 -31587814.33048 -24585506.57547  20251788.4774                   20251786.2234
 -28840251.37146 -22446783.04944  22836209.2424                   22836207.1764
 -15843485.16547 -12317077.96146  21690778.9774                   21690779.2424
 -13646043.44448 -10604560.47245  21725076.9384                   21725074.7274
 11  8 23  1 43 30.0000000  0  9G26G29G12G02G04G05G10G25G30
   9761435.02046   7620400.77543  24338543.6414                   24338544.2234
    772702.75546    615143.41444  23245154.2504                   23245152.7154
 -30706438.42248 -23899416.11946  21036114.0164                   21036112.4414
 -41291920.01747 -32146519.21446  21343324.4144                   21343320.2854
 -35907029.11046 -27948590.56743  24596920.2274                   24596918.9804
 -31651195.54247 -24634894.50447  20239727.1804                   20239725.2234
 -28812306.55447 -22425007.86144  22841527.2034                   22841525.3914
 -15935502.19548 -12388779.53146  21673268.7974                   21673269.2194
 -13727032.18548 -10667668.56945  21709665.0084                   21709663.5984
 11  8 23  1 44  0.0000000  0  9G26G29G12G02G04G05G10G25G30
   9599106.26146   7493910.95144  24307653.3914                   24307654.5474
    621080.00946    496995.81345  23216301.3444                   23216300.6484
 -30732561.72748 -23919771.93846  21031142.8054                   21031141.3284
 -41325938.31247 -32173026.97146  21336850.4064                   21336846.6644
 -35897779.01346 -27941382.68943  24598680.3134                   24598679.1954
 -31714018.45948 -24683847.39347  20227772.2974                   20227770.9024
 -28784100.39146 -22403029.01544  22846894.2584                   22846892.0944
 -16026953.98348 -12460040.64646  21655865.8834                   21655866.3054
 -13807423.00348 -10730310.77345  21694367.2194                   21694365.9414
 11  8 23  1 44 30.0000000  0  9G26G29G12G02G04G05G10G25G30
   9436710.63247   7367369.02643  24276751.1174                   24276750.5864
    469458.24846    378848.98044  23187448.8674                   23187448.4264
 -30758173.01848 -23939728.79146  21026269.2344                   21026268.0204
 -41359867.45247 -32199465.24246  21330393.9064                   21330390.0044
 -35888599.83446 -27934230.13743  24600426.8364                   24600427.2814
 -31776284.10547 -24732366.06247  20215923.8054                   20215921.4654
 -28755635.79746 -22380848.84944  22852310.4534                   22852309.6684
 -16117840.07447 -12530860.97246  21638570.9064                   21638571.2894
 -13887216.06548 -10792487.17646  21679182.9774                   21679182.1884
 11  8 23  1 45  0.0000000  0  9G26G29G12G02G04G05G10G25G30
   9274247.98747   7240774.88543  24245834.8984                   24245835.3954
    317835.47446    260701.38144  23158595.5554                   23158594.5554
 -30783277.38048 -23959290.64346  21021491.7664                   21021490.1024
 -41393711.17648 -32225836.96146  21323953.8204                   21323949.9144
 -35879494.97746 -27927135.55243  24602159.2814                   24602158.3014
 -31837996.72747 -24780453.78147  20204180.1334                   20204178.2154
 -28726919.11646 -22358472.23244  22857775.4924                   22857773.2304
 -16208163.24547 -12601242.66746  21621382.8524                   21621383.3094
 -13966414.77048 -10854200.45545  21664112.1644                   21664111.4024
 11  8 23  1 45 30.0000000  0  8G26G29G12G02G05G10G25G30
   9111724.45147   7114133.32343  24214907.9144                   24214908.6684
    166216.01046    142556.32444  23129743.9304                   23129743.3674
 -30807873.38348 -23978456.37146  21016811.3134                   21016809.2774
 -41427466.83248 -32252140.06746  21317530.6564                   21317526.1604
 -31899153.97847 -24828108.74647  20192541.9774                   20192539.7114
 -28697950.13146 -22335898.96544  22863288.1564                   22863286.1764
 -16297919.86347 -12671182.85446  21604302.7584                   21604303.5354
 -14045016.15048 -10915448.28946  21649154.3834                   21649153.1644
 11  8 23  1 46  0.0000000  0  8G26G29G12G02G05G10G25G30
   8949142.12846   6987445.95943  24183969.2194                   24183969.5744
     14600.17346     24414.08845  23100892.5704                   23100891.0594
 -30831963.86248 -23997228.17046  21012227.3364                   21012225.2154
 -41461136.39748 -32278376.08446  21311123.4694                   21311119.4064
 -31959757.81448 -24875332.48347  20181009.8204                   20181007.4414
 -28668732.80146 -22313132.20444  22868847.4534                   22868846.3554
 -16387110.54548 -12740682.06146  21587330.2274                   21587330.5164
 -14123021.40548 -10976231.58945  21634310.8364                   21634309.2154
 11  8 23  1 46 30.0000000  0  8G26G29G12G02G05G10G25G30
   8786510.28046   6860719.96743  24153021.1334                   24153022.3244
   -137003.73247    -93718.81944  23072042.8914                   23072042.3554
 -30855544.91248 -24015603.03346  21007739.7034                   21007738.5514
 -41494712.81348 -32304539.53846  21304734.0394                   21304729.8404
 -32019802.73447 -24922120.70647  20169583.2734                   20169581.0864
 -28639263.31946 -22290168.98444  22874456.5004                   22874454.0314
 -16475728.28248 -12809734.83246  21570466.6254                   21570467.3404
 -14200424.13848 -11036545.40345  21619581.5394                   21619580.5204
 11  8 23  1 47  0.0000000  0  8G26G29G12G02G05G10G25G30
   8623832.12846   6733957.90543  24122064.8364                   24122065.1374
   -288594.57847   -211841.56244  23043196.8204                   23043194.5904
 -30878618.13048 -24033582.16946  21003349.5004                   21003347.7274
 -41528197.26448 -32330631.31246  21298362.3364                   21298357.6524
 -32079289.75648 -24968474.21047  20158263.6254                   20158261.5204
 -28609544.93246 -22267011.78344  22880111.5004                   22880109.7814
 -16563772.76048 -12878340.89846  21553712.6334                   21553713.2504
 -14277224.60648 -11096389.90846  21604966.6724                   21604965.2504
 11  8 23  1 47 30.0000000  0  8G26G29G12G02G05G10G25G30
   8461108.60846   6607160.49843  24091099.0864                   24091099.6334
   -440173.29047   -329954.86645  23014351.6564                   23014350.5554
 -30901188.13748 -24051169.19946  20999054.7114                   20999052.3484
 -41561592.55448 -32356653.61146  21292007.0944                   21292002.9614
 -32138222.64647 -25014395.90647  20147049.0234                   20147046.9494
 -28579583.14246 -22243664.91544  22885812.6484                   22885810.2934
 -16651245.97148 -12946501.83046  21537067.0164                   21537067.7584
 -14353425.53448 -11155767.24546  21590466.3754                   21590464.7384
 11  8 23  1 48  0.0000000  0  8G26G29G12G02G05G10G25G30
   8298336.97546   6480325.53943  24060124.6954                   24060125.7934
   -591743.73247   -448061.65844  22985508.5394                   22985507.7384
 -30923261.65248 -24068369.33446  20994854.2034                   20994851.8404
 -41594904.71148 -32382611.13946  21285667.8754                   21285663.9614
 -32196607.52247 -25059890.59047  20135938.5474                   20135936.3014
 -28549386.24646 -22220134.87544  22891558.2034                   22891556.8594
 -16738152.92248 -13014221.52046  21520529.2424                   21520529.6414
 -14429032.49948 -11214681.75945  21576078.6414                   21576077.1724
 11  8 23  1 48 30.0000000  0  8G26G29G12G02G05G10G25G30
   9710945.65246   7581059.73443  24328934.7664                   24328934.8714
    832120.25247    661442.78145  23256461.2424                   23256460.4104
 -29369420.84248 -22857584.29346  21290540.0634                   21290538.0784
 -40052713.17648 -31180903.43946  21579137.5554                   21579133.3324
 -30679023.74648 -23877357.74747  20424725.2424                   20424722.9534
 -26943538.52946 -20968824.96444  23197141.8594                   23197140.1094
 -15249070.66748 -11853897.66846  21803892.1334                   21803892.6214
 -12928623.57148 -10045531.94345  21861597.1884                   21861595.5784
 11  8 23  1 49  0.0000000  0  8G26G29G12G02G05G10G25G30
   9548086.03046   7454156.24943  24297943.5394                   24297944.0824
    680568.99747    543350.94945  23227622.1724                   23227621.0944
 -29390510.04048 -22874017.43746  21286526.8204                   21286524.3794
 -40085862.07148 -31206733.75546  21572829.2114                   21572825.2894
 -30736317.51447 -23922002.22047  20413822.2974                   20413820.6804
 -26912881.62647 -20944936.47744  23202974.8594                   23202974.4614
 -15334845.64347 -11920735.30946  21787569.4694                   21787570.3364
 -13003045.05748 -10103522.69045  21847435.0944                   21847433.4534
 11  8 23  1 49 30.0000000  0  8G26G29G12G02G05G10G25G30
   9385184.45746   7327220.08243  24266944.2424                   24266943.9804
    529026.90147    425266.26945  23198784.6954                   23198783.6024
 -29411112.27748 -22890071.13146  21282606.0704                   21282604.2424
 -40118932.45748 -31232502.86346  21566536.3204                   21566532.1724
 -30793069.84648 -23966224.78147  20403022.9224                   20403020.9454
 -26882001.77247 -20920874.27144  23208851.4304                   23208850.6724
 -15420056.76748 -11987133.57746  21771354.4694                   21771354.7624
 -13076876.96748 -10161054.04246  21833384.9304                   21833383.7034
 11  8 23  1 50  0.0000000  0  8G26G29G12G02G05G10G25G30
   9222246.24546   7200255.41243  24235938.1174                   24235938.7854
    377497.83447    307191.71845  23169949.1884                   23169948.0434
 -29431227.84848 -22905745.61146  21278778.4384                   21278776.7584
 -40151922.89148 -31258209.69046  21560258.4454                   21560254.0514
 -30849279.69148 -24010024.64347  20392326.5554                   20392324.4844
 -26850899.59347 -20896638.77544  23214770.3284                   23214767.9064
 -15504701.66048 -12053090.63746  21755247.3594                   21755247.7274
 -13150117.48148 -10218124.56346  21819448.0634                   21819447.4494
 11  8 23  1 50 30.0000000  0  8G26G29G12G02G05G10G25G30
   9059273.09746   7073263.47743  24204924.8524                   24204924.6804
    225981.46047    189127.05645  23141116.5784                   23141115.7664
 -29450860.57648 -22921043.84746  21275042.6644                   21275040.2734
 -40184834.85148 -31283855.36946  21553995.4774                   21553991.2504
 -30904949.73248 -24053403.87047  20381732.6414                   20381730.4574
 -26819579.41747 -20872233.40643  23220730.0314                   23220728.3014
 -15588781.55248 -12118607.44146  21739247.3984                   21739247.7664
 -13222768.49947 -10274735.74345  21805622.9774                   21805621.3364
 11  8 23  1 51  0.0000000  0  8G26G29G12G02G05G10G25G30
   8896267.81946   6946246.50743  24173905.8054                   24173905.5474
     74479.10147     71073.36645  23112286.0944                   23112285.1024
 -29470012.25748 -22935967.23146  21271398.1334                   21271396.3714
 -40217669.36148 -31309440.69546  21547747.3594                   21547743.2114
 -30960081.80048 -24096363.89647  20371241.4064                   20371239.3444
 -26788044.61547 -20847660.86144  23226730.9454                   23226729.3754
 -15672296.44948 -12183683.98546  21723354.7114                   21723355.8094
 -13294830.63648 -10330888.05246  21791910.0944                   21791908.6254
 11  8 23  1 51 30.0000000  0  8G26G29G12G02G05G10G25G30
   8733234.46746   6819207.62443  24142881.8134                   24142882.2274
    -77006.50947    -46967.29645  23083460.0394                   23083458.4654
 -29488684.29448 -22950516.86846  21267844.9924                   21267843.1174
 -40250425.84848 -31334965.22446  21541513.8524                   21541509.5664
 -31014675.68948 -24138904.57747  20360852.7584                   20360850.0124
 -26756297.02547 -20822922.47744  23232772.2344                   23232769.8554
 -15755245.17548 -12248319.35146  21707570.7504                   21707571.1414
 -13366303.42947 -10386581.14245  21778309.2664                   21778307.8054
 11  8 23  1 52  0.0000000  0  8G26G29G12G02G05G10G25G30
   8570177.01846   6692149.93343  24111853.3754                   24111853.0354
   -228473.20847   -164993.26745  23054637.2974                   23054635.4304
 -29506877.65148 -22964693.51446  21264382.8054                   21264381.0234
 -40283103.93648 -31360428.66846  21535295.3284                   21535291.3954
 -31068731.92748 -24181026.29247  20350566.3674                   20350563.9734
 -26724339.01547 -20798020.10743  23238853.3914                   23238851.7734
 -15837626.85248 -12312512.88146  21691893.6724                   21691894.5474
 -13437186.57048 -10441814.77345  21764820.8134                   21764819.5314
 11  8 23  1 52 30.0000000  0  8G26G29G12G02G05G10G25G30
   8407098.30846   6565075.74343  24080820.9534                   24080820.4384
   -379920.17547   -283003.83645  23025817.0554                   23025816.3204
 -29524595.55948 -22978499.67546  21261011.4924                   21261009.4964
 -40315704.76148 -31385831.90346  21529091.9224                   21529087.8524
 -31122252.21148 -24222730.39447  20340381.6884                   20340379.3984
 -26692173.68647 -20772956.16544  23244974.7584                   23244972.4734
 -15919441.89748 -12376264.86846  21676324.7344                   21676325.6724
 -13507481.18548 -10496589.80145  21751444.2034                   21751442.9264
 11  8 23  1 53  0.0000000  0  8G26G29G12G02G05G10G25G30
   8244002.09647   6437987.88043  24049784.1804                   24049784.0234
   -531344.96947   -400997.09245  22997001.7274                   22997000.4264
 -29541839.50948 -22991936.51846  21257729.8914                   21257727.8324
 -40348227.91748 -31411174.61346  21522903.1094                   21522898.5824
 -31175237.17448 -24264017.35547  20330298.5704                   20330296.6724
 -26659803.36347 -20747732.53844  23251134.4064                   23251133.2624
 -16000689.54248 -12439574.75346  21660863.7504                   21660864.5904
 -13577187.08747 -10550906.10545  21738179.6334                   21738177.8634
 11  8 23  1 53 30.0000000  0  8G26G29G12G02G05G10G25G30
   8080891.26546   6310888.62143  24018745.1564                   24018745.0824
   -682746.36247   -518972.13245  22968191.4924                   22968189.6334
 -29558611.79848 -23005005.84646  21254538.4534                   21254536.4384
 -40380674.24248 -31436457.46446  21516728.6174                   21516724.5274
 -31227688.48748 -24304888.48547  20320317.7814                   20320315.0434
 -26627231.74147 -20722352.06344  23257332.9694                   23257331.6254
 -16081369.91948 -12502442.56946  21645511.0394                   21645511.3524
 -13646305.24347 -10604764.42745  21725026.3284                   21725025.8014
 11  8 23  1 54  0.0000000  0  8G26G29G12G02G05G10G25G30
   7917770.70746   6183781.83743  23987703.9534                   23987704.3244
   -834121.69547   -636926.88145  22939385.1724                   22939383.7154
 -29574913.02848 -23017708.10746  21251436.2194                   21251434.3634
 -40413041.98948 -31461679.06146  21510569.2114                   21510564.8594
 -31279605.72648 -24345343.45747  20310438.1484                   20310436.0164
 -26594459.71947 -20696815.39044  23263569.1414                   23263567.0514
 -16161481.36748 -12564867.09546  21630266.2504                   21630266.7234
 -13714834.42047 -10658163.80845  21711985.8054                   21711984.5314
 11  8 23  1 54 30.0000000  0  8G26G29G12G02G05G10G25G30
   7754645.50547   6056671.36843  23956662.6644                   23956661.7344
   -985466.77447   -754858.07045  22910584.7664                   22910584.1844
 -29590743.71248 -23030043.69746  21248423.6334                   21248421.6294
 -40445329.96048 -31486838.51746  21504424.5554                   21504420.1684
 -31330988.42648 -24385381.89947  20300660.4844                   20300658.3054
 -26561487.99447 -20671123.12944  23269843.1644                   23269841.6024
 -16241021.97248 -12626846.79846  21615129.7584                   21615130.3244
 -13782773.48847 -10711103.35346  21699057.7664                   21699056.1684
 11  8 23  1 55  0.0000000  0  8G26G29G12G02G05G10G25G30
   7591517.14546   5929558.46144  23925620.0474                   23925619.4774
  -1136782.03947   -872765.98445  22881791.5474                   22881790.1454
 -29606107.65248 -23042015.60346  21245499.8984                   21245497.9384
 -40477540.29048 -31511937.46846  21498295.4924                   21498291.5664
 -31381839.56848 -24425006.14747  20290983.5784                   20290980.7734
 -26528321.64547 -20645279.18844  23276154.6094                   23276152.9454
 -16319993.45448 -12688383.03346  21600102.4064                   21600102.6954
 -13850124.84647 -10763584.95845  21686240.9224                   21686240.1024
 11  8 23  1 55 30.0000000  0  8G26G29G12G02G05G10G25G30
   7428389.59546   5802446.19343  23894578.1024                   23894577.1724
  -1288065.16047   -990648.85145  22853002.6174                   22853001.7854
 -29621006.36548 -23053624.98746  21242665.2894                   21242662.6954
 -40509672.59648 -31536975.61146  21492180.7894                   21492176.8134
 -31432159.81148 -24464216.70347  20281408.1724                   20281405.7774
 -26494962.69847 -20619285.21244  23282503.1024                   23282501.3284
 -16398395.08248 -12749475.22846  21585182.9454                   21585183.5434
 -13916888.26848 -10815608.42445  21673536.3834                   21673535.3674
 11  8 23  1 56  0.0000000  0  8G26G29G12G02G05G10G25G30
   7265269.28346   5675339.54643  23863536.9064                   23863537.2034
  -1439311.44647  -1108503.04945  22824221.1644                   22824220.2814
 -29635438.91848 -23064871.12546  21239918.8444                   21239916.8404
 -40541724.25648 -31561950.91646  21486081.3834                   21486076.9694
 -31481947.33948 -24503012.16447  20271933.9694                   20271931.3204
 -26461411.03947 -20593141.06144  23288887.0394                   23288886.0824
 -16476223.82148 -12810121.00146  21570372.7814                   21570373.9304
 -13983061.51748 -10867171.99545  21660944.4224                   21660943.5984
 11  8 23  1 56 30.0000000  0  8G26G29G12G02G05G10G25G30
   7102157.63646   5548239.68643  23832497.7114                   23832498.0274
  -1590520.90747  -1226328.53345  22795447.4064                   22795445.8984
 -29649409.39448 -23075757.20546  21237259.9694                   21237258.1884
 -40573697.25648 -31586864.92546  21479997.3674                   21479993.4734
 -31531205.61248 -24541395.20947  20262560.1414                   20262557.4774
 -26427671.18847 -20566850.26744  23295307.1484                   23295305.4344
 -16553481.45848 -12870321.75946  21555670.8594                   21555671.9104
 -14048646.96048 -10918277.54645  21648463.5314                   21648461.5594
 11  8 23  1 57  0.0000000  0  8G26G29G12G02G05G10G25G30
   6939055.98946   5421147.58343  23801460.3754                   23801459.7424
  -1741694.13947  -1344125.80445  22766679.8134                   22766678.7854
 -29662922.16348 -23086286.64646  21234688.4304                   21234686.6054
 -40605594.18948 -31611719.66446  21473927.3914                   21473923.2034
 -31579938.01448 -24579368.49047  20253286.3594                   20253284.5004
 -26393747.97646 -20540416.57044  23301762.2344                   23301760.8134
 -16630170.22048 -12930079.22846  21541077.4454                   21541078.2734
 -14113647.57248 -10968927.39246  21636094.5554                   21636093.7664
 11  8 23  1 57 30.0000000  0  8G26G29G12G02G05G10G25G30
   6775966.44246   5294064.92044  23770425.6174                   23770424.7464
  -1892830.47447  -1461894.29045  22737919.4304                   22737918.9774
 -29675980.77648 -23096462.18746  21232203.4924                   21232201.4774
 -40637416.22748 -31636516.04546  21467872.2424                   21467867.6054
 -31628146.75748 -24616933.72847  20244112.5784                   20244110.2274
 -26359644.97146 -20513842.76243  23308252.1884                   23308251.8284
 -16706291.21148 -12989394.28846  21526592.6564                   21526593.1994
 -14178065.08548 -11019122.84746  21623836.5084                   21623834.9144
 11  8 23  1 58  0.0000000  0  8G26G29G12G02G05G10G25G30
   6612895.15146   5166996.48943  23739394.1954                   23739393.0744
  -2043925.67947  -1579630.77945  22709167.5944                   22709165.2584
 -29688584.93248 -23106283.61346  21229804.8364                   21229802.9264
 -40669161.01747 -31661252.21146  21461831.3204                   21461826.3524
 -31675830.65948 -24654090.00447  20235039.0084                   20235036.2194
 -26325362.42246 -20487129.14444  23314776.1254                   23314774.9694
 -16781841.82548 -13048264.89646  21512215.3984                   21512215.7934
 -14241897.52948 -11068862.42246  21611689.6564                   21611687.8524
 11  8 23  1 58 30.0000000  0  8G26G29G12G02G05G10G25G30
   6449844.07646   5039943.75843  23708367.0084                   23708365.3244
  -2194979.18347  -1697334.76545  22680422.2424                   22680421.2774
 -29700738.23748 -23115753.73446  21227492.2814                   21227490.1604
 -40700830.23647 -31685929.52146  21455804.6484                   21455800.3484
 -31722992.58948 -24690839.53847  20226064.3984                   20226061.8404
 -26290904.81946 -20460279.05543  23321333.4224                   23321332.7624
 -16856823.59148 -13106692.23046  21497946.8054                   21497947.5474
 -14305147.18747 -11118147.86746  21599653.1804                   21599652.6524
 11  8 23  1 59  0.0000000  0  8G26G29G12G02G05G10G25G30
   6286818.20646   4912910.68643  23677343.7344                   23677343.5274
  -2345987.69447  -1815003.63945  22651686.2504                   22651685.1334
 -29712441.04548 -23124872.80146  21225265.6804                   21225263.6374
 -40732422.57447 -31710546.91946  21449792.6484                   21449788.3524
 -31769632.30248 -24727182.15447  20217188.8674                   20217186.5164
 -26256273.34547 -20433293.49043  23327924.0704                   23327921.8204
 -16931234.96648 -13164675.09946  21483786.9454                   21483787.9494
 -14367813.03447 -11166978.39146  21587728.3674                   21587727.3794
 11  8 23  1 59 30.0000000  0  8G26G29G12G02G05G10G25G30
   6123818.25146   4785897.81643  23646325.4844                   23646325.0314
  -2496951.87047  -1932638.01245  22622958.7584                   22622957.1804
 -29723698.42648 -23133644.79346  21223123.4304                   21223121.0274
 -40763940.55448 -31735106.36746  21443795.2274                   21443791.1604
 -31815754.17748 -24763121.26747  20208412.0164                   20208409.5784
 -26221473.43847 -20406176.62243  23334545.6484                   23334543.1844
 -17005078.80748 -13222215.74446  21469734.7974                   21469735.5634
 -14429898.73247 -11215356.83246  21575913.8594                   21575912.4224
 11  8 23  2  0  0.0000000  0  8G26G29G12G02G05G10G25G30
   7536274.77947   5886513.42644  23915106.5704                   23915106.2194
  -1072443.53447   -822631.47445  22894034.2664                   22894032.4924
 -28159090.87748 -21914470.09146  21520858.2194                   21520856.0784
 -39219961.68248 -30532005.92946  21737604.4694                   21737600.5434
 -30285935.90048 -23571055.06947  20499527.3524                   20499524.5204
 -24611086.87847 -19151329.96144  23640992.3834                   23640990.2114
 -15502931.04548 -12051710.96246  21755584.2034                   21755584.1684
 -12915981.19147 -10035680.81546  21864002.8284                   21864001.8244
 11  8 23  2  0 30.0000000  0  8G26G29G12G02G05G10G25G30
   7373341.22846   5759552.29743  23884101.8054                   23884101.3874
  -1223310.14147   -940189.83245  22865324.5634                   22865323.8484
 -28169460.43848 -21922550.28646  21518884.9534                   21518882.9344
 -39251327.76648 -30556447.00546  21731635.7584                   21731631.3674
 -30331021.45948 -23606186.64847  20490947.6174                   20490945.1254
 -24575953.49747 -19123953.30444  23647678.2344                   23647676.1484
 -15575635.98348 -12108364.14846  21741748.8204                   21741748.9884
 -12976904.66647 -10083153.62846  21852409.6724                   21852408.1564
 11  8 23  2  1  0.0000000  0  8G26G29G12G02G05G10G25G30
   7210445.58346   5632620.69744  23853103.7424                   23853103.2074
  -1374125.49047  -1057708.24845  22836625.3834                   22836624.5554
 -28179390.12848 -21930287.71246  21516995.4694                   21516993.7774
 -39282618.71848 -30580829.55246  21725680.8914                   21725677.2664
 -30375591.62148 -23640916.63247  20482466.2894                   20482463.4454
 -24540658.14047 -19096450.41144  23654394.3914                   23654392.0044
 -15647772.34848 -12164574.28146  21728021.4924                   21728022.5904
 -13037248.85747 -10130175.05346  21840926.3364                   21840925.3714
 11  8 23  2  1 30.0000000  0  9G26G29G12G02G15G05G10G25G30
   7047590.59946   5505720.76744  23822113.8914                   23822112.8714
  -1524888.71047  -1175186.04445  22807936.2504                   22807935.1134
 -28188882.80447 -21937684.62546  21515189.2194                   21515187.0904
 -39313835.14147 -30605154.02546  21719741.0864                   21719736.9804
  17096675.29255  13336344.35753  24725781.2894                   24725781.9574
 -30419648.41448 -23675246.58847  20474082.2114                   20474080.2234
 -24505203.81747 -19068823.64843  23661141.1644                   23661139.2814
 -15719340.80048 -12220341.89046  21714402.5704                   21714403.3954
 -13097015.15147 -10176746.15446  21829553.2114                   21829552.1334
 11  8 23  2  2  0.0000000  0  9G26G29G12G02G15G05G10G25G30
   6884774.83246   5378851.41043  23791130.8054                   23791130.6954
  -1675602.72847  -1292625.48745  22779255.7424                   22779255.1684
 -28197945.66148 -21944746.60446  21513464.2504                   21513462.1564
 -39344982.27548 -30629424.49946  21713814.0864                   21713809.3954
  16935431.66245  13210700.13243  24695097.5704                   24695098.5984
 -30463198.43548 -23709181.66547  20465795.2664                   20465792.3094
 -24469598.46447 -19041079.26244  23667916.4534                   23667915.7424
 -15790346.70548 -12275671.14646  21700890.4304                   21700891.0124
 -13156209.58847 -10222871.67546  21818288.7274                   21818287.4494
 11  8 23  2  2 30.0000000  0  9G26G29G12G02G15G05G10G25G30
   6722000.33746   5252014.23844  23760155.7664                   23760154.9384
  -1826267.00547  -1410026.19345  22750585.6644                   22750584.5664
 -28206582.77647 -21951476.83846  21511821.2814                   21511819.3204
 -39376061.59148 -30653642.13346  21707899.3364                   21707895.3014
  16774040.30646  13084940.81743  24664386.1174                   24664387.3714
 -30506244.61848 -23742724.13247  20457603.4304                   20457601.4144
 -24433846.07347 -19013220.23644  23674719.5554                   23674718.3794
 -15860791.63847 -12330563.29146  21687485.5084                   21687485.3754
 -13214834.39348 -10268553.32846  21807133.0394                   21807131.6414
 11  8 23  2  3  0.0000000  0  9G26G29G12G02G15G05G10G25G30
   6559275.21546   5125215.54444  23729189.3834                   23729189.4694
  -1976875.32947  -1527383.30345  22721925.7194                   22721925.1294
 -28214791.76948 -21957873.45946  21510258.7194                   21510257.1414
 -39407069.07848 -30677803.80246  21701999.1484                   21701995.1374
  16612507.66946  12959071.37743  24633647.8204                   24633648.2734
 -30548783.97548 -23775871.67847  20449508.5784                   20449505.8484
 -24397944.95447 -18985245.32644  23681551.2114                   23681550.4734
 -15930671.57148 -12385015.18546  21674187.8204                   21674188.7934
 -13272886.17448 -10313788.45646  21796085.7734                   21796084.3674
 11  8 23  2  3 30.0000000  0  9G26G29G12G02G15G05G10G25G30
   6396605.86146   4998460.31544  23698234.7344                   23698234.9064
  -2127422.84447  -1644693.02145  22693276.9614                   22693276.1564
 -28222571.64947 -21963935.73046  21508778.5394                   21508776.1844
 -39438001.35648 -30701906.86346  21696112.7424                   21696108.8484
  16450839.97246  12833096.73044  24602883.8834                   24602884.1374
 -30590814.96748 -23808623.09047  20441510.5394                   20441507.7774
 -24361894.28246 -18957153.95043  23688411.3834                   23688410.3834
 -15999983.58348 -12439024.54046  21660998.2274                   21660998.6524
 -13330362.76648 -10358575.39545  21785148.2114                   21785146.7544
 11  8 23  2  4  0.0000000  0  9G26G29G12G02G15G05G10G25G30
   6233997.62346   4871752.69144  23667290.7274                   23667291.3134
  -2277905.85247  -1761952.49345  22664641.9064                   22664640.2504
 -28229924.15847 -21969664.96946  21507378.9924                   21507377.2274
 -39468857.11448 -30725950.30446  21690241.0864                   21690236.9574
  16289040.99346  12707019.77544  24572093.5314                   24572094.1054
 -30632337.67748 -23840978.43147  20433608.4614                   20433606.1764
 -24325695.54546 -18928947.20344  23695300.1254                   23695299.5554
 -16068726.43547 -12492590.39946  21647916.8284                   21647917.4884
 -13387263.55348 -10402913.66746  21774320.7424                   21774319.4224
 11  8 23  2  4 30.0000000  0  9G26G29G12G02G15G05G10G25G30
   6071458.23346   4745098.71144  23636361.4064                   23636360.6454
  -2428318.29647  -1879156.97945  22636018.8834                   22636017.9884
 -28236846.93347 -21975059.35646  21506061.9454                   21506059.7154
 -39499632.13348 -30749930.82646  21684384.4844                   21684380.5864
  16127117.94546  12580846.14444  24541279.4924                   24541281.4184
 -30673348.89248 -23872935.22047  20425804.8444                   20425802.3284
 -24289346.74046 -18900623.48143  23702217.9144                   23702215.9414
 -16136896.13647 -12545709.64846  21634944.6804                   21634944.8014
 -13443585.28848 -10446800.73446  21763603.2504                   21763602.0204
 11  8 23  2  5  0.0000000  0  9G26G29G12G02G15G05G10G25G30
   5908990.50347   4618500.57044  23605444.9774                   23605443.9654
  -2578658.63047  -1996305.23845  22607410.0474                   22607408.9804
 -28243342.78247 -21980121.06746  21504825.3914                   21504823.7154
 -39530326.76848 -30773848.72346  21678543.9224                   21678540.0004
  15965072.65946  12454577.24144  24510444.0234                   24510443.8244
 -30713851.06148 -23904495.34747  20418097.2274                   20418094.7734
 -24252851.52746 -18872185.69344  23709162.1724                   23709160.9884
 -16204493.65947 -12598383.04946  21622081.4224                   21622081.2544
 -13499329.61948 -10490237.86846  21752995.5164                   21752994.0354
 11  8 23  2  5 30.0000000  0  9G26G29G12G02G15G05G10G25G30
   5746598.67347   4491961.55644  23574541.8984                   23574541.9144
  -2728924.60447  -2113395.59545  22578815.9304                   22578814.4924
 -28249414.02847 -21984851.92346  21503670.4844                   21503668.9064
 -39560940.95748 -30797703.91746  21672718.4454                   21672713.8954
  15802908.07946  12328215.45043  24479584.4384                   24479584.6214
 -30753845.45748 -23935659.79947  20410486.8054                   20410484.3754
 -24216211.71446 -18843635.24243  23716133.5784                   23716133.1374
 -16271519.02248 -12650610.61046  21609326.9064                   21609327.0274
 -13554497.14048 -10533225.55446  21742497.5084                   21742495.8284
 11  8 23  2  6  0.0000000  0  9G26G29G12G02G15G05G10G25G30
   5584283.62647   4365482.37944  23543654.6174                   23543654.2344
  -2879116.74047  -2230428.39545  22550234.6724                   22550232.9614
 -28255065.34747 -21989255.56346  21502595.2274                   21502592.8524
 -39591477.35448 -30821498.50346  21666907.7584                   21666903.1214
  15640624.42346  12201760.76643  24448703.5864                   24448703.1094
 -30793336.20248 -23966431.80247  20402971.4144                   20402969.5784
 -24179432.55246 -18814976.20743  23723133.8054                   23723131.3874
 -16337975.18748 -12702394.64546  21596680.5704                   21596680.4694
 -13609091.43048 -10575766.57146  21732108.4064                   21732106.5704
 11  8 23  2  6 30.0000000  0  9G26G29G12G02G15G05G10G25G30
   5422049.93447   4239066.59844  23512782.8834                   23512782.1524
  -3029232.21247  -2347401.42945  22521668.3204                   22521667.5474
 -28260298.21947 -21993333.14246  21501599.1174                   21501597.2584
 -39621934.96948 -30845231.69346  21661111.3284                   21661106.4734
  15478224.89346  12075215.82543  24417799.1724                   24417799.6764
 -30832324.01148 -23996811.89447  20395552.7584                   20395550.3364
 -24142515.55846 -18786209.71944  23730158.5314                   23730156.6914
 -16403861.61748 -12753734.72146  21584142.6334                   21584142.9184
 -13663112.77148 -10617861.12846  21721828.3444                   21721826.7854
 11  8 23  2  7  0.0000000  0  9G26G29G12G02G15G05G10G25G30
   5259899.70147   4112715.82944  23481926.8834                   23481925.8094
  -3179270.50447  -2464314.35345  22493117.5004                   22493115.3364
 -28265116.53747 -21997087.68846  21500682.5634                   21500681.0044
 -39652315.39547 -30868904.74546  21655330.0554                   21655326.2504
  15315710.83146  11948581.64043  24386873.7584                   24386873.3244
 -30870811.66148 -24026802.26447  20388228.8204                   20388226.2974
 -24105464.74847 -18757338.95244  23737209.6884                   23737207.3914
 -16469180.20848 -12804632.33446  21571712.7974                   21571712.9414
 -13716563.72048 -10659511.22545  21711656.6724                   21711655.3874
 11  8 23  2  7 30.0000000  0  9G26G29G12G02G15G05G10G25G30
   5097836.08147   3986432.59544  23451086.4304                   23451086.8014
  -3329230.07947  -2581165.93945  22464580.9144                   22464579.1334
 -28269523.63847 -22000521.80646  21499843.8204                   21499842.3754
 -39682619.00248 -30892517.92546  21649563.6174                   21649559.2304
  15153084.85246  11821860.26543  24355926.9064                   24355927.9264
 -30908801.38548 -24056404.62347  20380999.5474                   20380997.4304
 -24068283.54947 -18728366.60344  23744284.4064                   23744283.2464
 -16533931.94048 -12855088.22546  21559391.0554                   21559391.4344
 -13769445.92348 -10700718.14945  21701593.9844                   21701592.7034
 11  8 23  2  8  0.0000000  0  9G26G29G12G02G15G05G10G25G30
   4935861.93347   3860219.02144  23420264.4924                   23420263.7304
  -3479109.59547  -2697955.11045  22436059.6484                   22436058.7384
 -28273522.59548 -22003637.89346  21499082.6644                   21499080.5394
 -39712846.43748 -30916071.76246  21643811.7194                   21643807.4224
  14990348.45546  11695052.86543  24324959.4774                   24324959.8054
 -30946295.73648 -24085620.99547  20373864.5004                   20373861.7774
 -24030974.91547 -18699294.92043  23751384.4454                   23751382.6724
 -16598118.11348 -12905103.42746  21547176.8524                   21547177.3244
 -13821761.25848 -10741483.36845  21691638.9304                   21691637.9184
 11  8 23  2  8 30.0000000  0  9G26G29G12G02G15G05G10G25G30
   4773982.19847   3734079.04944  23389459.1884                   23389458.7034
  -3628905.87447  -2814679.42045  22407554.9144                   22407552.5474
 -28277114.49548 -22006436.80146  21498398.6954                   21498397.3484
 -39742996.68048 -30939565.45045  21638074.3444                   21638069.9024
  14827505.40546  11568162.33043  24293971.0314                   24293971.7974
 -30983295.36448 -24114451.86147  20366823.5164                   20366821.7304
 -23993540.21646 -18670125.06643  23758507.5864                   23758506.7464
 -16661737.91548 -12954677.28046  21535070.5164                   21535070.8594
 -13873509.65548 -10781806.79445  21681791.5784                   21681789.7774
 11  8 23  2  9  0.0000000  0  9G26G29G12G02G15G05G10G25G30
   4612199.46547   3608014.65844  23358672.7974                   23358672.1644
  -3778618.00847  -2931338.16845  22379064.6414                   22379063.8284
 -28280302.97948 -22008921.33946  21497792.6884                   21497790.7424
 -39773070.72348 -30962999.76645  21632351.1564                   21632347.1374
  14664557.80046  11441190.31243  24262963.5704                   24262962.9964
 -31019802.53448 -24142898.98247  20359876.8984                   20359874.2504
 -23955982.91946 -18640859.63743  23765654.5704                   23765653.4104
 -16724792.98048 -13003811.08846  21523071.3594                   21523072.1054
 -13924693.42448 -10821690.26945  21672051.3284                   21672049.8484
 11  8 23  2  9 30.0000000  0  9G26G29G12G02G15G05G10G25G30
   4450517.49247   3482028.78844  23327905.5554                   23327905.0704
  -3928243.61947  -3047929.47645  22350592.0864                   22350590.5824
 -28283090.50748 -22011093.45446  21497262.1334                   21497260.1644
 -39803068.39548 -30986374.57145  21626642.6564                   21626638.8324
  14501508.26146  11314138.92943  24231935.2814                   24231935.1134
 -31055819.22748 -24170963.91947  20353023.0164                   20353020.8484
 -23918305.63147 -18611500.70643  23772824.7734                   23772822.7074
 -16787283.76748 -13052505.19046  21511179.7034                   21511180.1524
 -13975313.69848 -10861134.62845  21662418.5314                   21662416.8674
 11  8 23  2 10  0.0000000  0  9G26G29G12G02G15G05G10G25G30
   4288940.39647   3356124.64844  23297158.8914                   23297158.4224
  -4077780.28547  -3164451.48445  22322136.2034                   22322135.2114
 -28285478.54348 -22012954.28546  21496807.6484                   21496805.8554
 -39832988.86847 -31009689.22245  21620949.3364                   21620944.7894
  14338359.96946  11187010.57043  24200889.7584                   24200889.6454
 -31091346.03648 -24198647.12647  20346262.5234                   20346260.0394
 -23880509.92346 -18582049.44843  23780016.6414                   23780014.5864
 -16849210.27548 -13100759.59346  21499395.3054                   21499395.8244
 -14025371.15648 -10900140.42746  21652893.0474                   21652891.6764
 11  8 23  2 10 30.0000000  0  9G26G29G12G02G15G05G10G25G30
   4127471.74647   3230304.98744  23266432.7344                   23266432.3134
  -4227225.93947  -3280902.57745  22293697.7894                   22293696.3794
 -28287470.24747 -22014506.26946  21496428.6024                   21496426.2274
 -39862832.48547 -31032943.99146  21615270.5084                   21615266.3634
  14175115.54246  11059807.31044  24169825.0474                   24169825.4654
 -31126384.92748 -24225950.12847  20339594.5944                   20339592.0474
 -23842598.84746 -18552508.34543  23787230.1954                   23787228.8714
 -16910573.37648 -13148574.98246  21487718.6564                   21487718.8244
 -14074867.23448 -10938708.80846  21643473.9614                   21643472.7504
 11  8 23  2 11  0.0000000  0  9G26G29G12G02G15G05G10G25G30
   3966112.79347   3104570.81344  23235726.8444                   23235726.5514
  -4376581.24247  -3397283.26545  22265276.3134                   22265274.6844
 -28289070.87547 -22015753.54546  21496123.4454                   21496122.1054
 -39892601.60047 -31056140.70646  21609605.4384                   21609601.3054
  14011775.21746  10932529.30044  24138742.5554                   24138742.9614
 -31160940.36648 -24252876.42547  20333019.1804                   20333016.3794
 -23804577.26446 -18522881.16743  23794466.3754                   23794464.6374
 -16971376.12247 -13195953.70846  21476148.0704                   21476148.6804
 -14123805.74448 -10976842.70246  21634161.2894                   21634160.8954
 11  8 23  2 11 30.0000000  0  9G26G29G12G02G15G05G10G25G30
   5380294.67847   4206530.79344  23504836.4614                   23504835.7034
  -2950416.79247  -2285986.22445  22536666.2894                   22536665.2854
 -26714860.39447 -20789096.02846  21795686.6174                   21795684.4924
 -38346873.30447 -29851677.11345  21903747.2424                   21903743.2034
  15423769.41347  12032784.74444  24407435.9454                   24407435.3364
 -29619591.08748 -23051825.01747  20626327.9534                   20626325.3674
 -22191026.95746 -17265569.24143  24101514.1094                   24101513.0704
 -15456195.08447 -12015293.13346  21764477.6174                   21764477.4844
 -12596764.29548  -9786940.26445  21924747.3984                   21924745.8834
 11  8 23  2 12  0.0000000  0  9G26G29G12G02G15G05G10G25G30
   5219170.53247   4080979.62144  23474175.1254                   23474175.1214
  -3099580.35547  -2402217.47545  22508281.7194                   22508279.9774
 -26715680.91547 -20789735.41746  21795530.6094                   21795528.4264
 -38376488.98947 -29874754.27946  21898112.0084                   21898107.4264
  15260250.18847  11905367.29244  24376318.9774                   24376318.6054
 -29653180.45548 -23077998.53147  20619935.7894                   20619933.3054
 -22152787.30746 -17235772.16143  24108791.1954                   24108790.6414
 -15515874.73848 -12061796.73646  21753120.7424                   21753120.9414
 -12644587.24548  -9824204.89146  21915647.2344                   21915645.4414
 11  8 23  2 12 30.0000000  0  9G26G29G12G02G15G05G10G25G30
   5058167.62847   3955522.87344  23443537.7504                   23443537.2584
  -3248646.65847  -2518372.95245  22479914.8444                   22479912.9344
 -26716117.31947 -20790075.50546  21795447.5084                   21795445.7034
 -38406029.64447 -29897772.96945  21892490.6644                   21892486.2344
  15096643.85546  11777882.03544  24345185.3754                   24345185.6254
 -29686290.91448 -23103798.87047  20613635.4844                   20613633.0354
 -22114443.95046 -17205894.31843  24116087.6254                   24116086.8594
 -15574995.68948 -12107864.98746  21741870.6954                   21741871.2194
 -12691856.26648  -9861037.87146  21906652.3524                   21906651.0314
 11  8 23  2 13  0.0000000  0  9G26G29G12G02G15G05G10G25G30
   4897286.85347   3830161.31544  23412923.1254                   23412922.6804
  -3397616.06247  -2634452.93945  22451566.9534                   22451565.7734
 -26716174.74347 -20790120.26246  21795436.5164                   21795434.9344
 -38435497.58147 -29920735.01545  21886882.7274                   21886878.4884
  14932950.67447  11650329.04844  24314035.5864                   24314035.3444
 -29718927.30248 -23129229.79847  20607425.1484                   20607422.2664
 -22076002.10146 -17175939.62143  24123403.2114                   24123402.1454
 -15633561.25747 -12153500.46446  21730725.5784                   21730726.3094
 -12738575.29748  -9897442.29345  21897761.6804                   21897760.8524
 11  8 23  2 13 30.0000000  0  9G26G29G12G02G15G05G10G25G30
   4736536.43447   3704901.30944  23382333.1724                   23382332.4774
  -3546482.47547  -2750452.64745  22423238.6334                   22423237.0984
 -26715851.60647 -20789868.48346  21795497.6724                   21795496.0944
 -38464888.56947 -29943637.10345  21881289.8914                   21881285.6524
  14769177.52247  11522713.73844  24282870.8594                   24282870.0004
 -29751086.72548 -23154289.07546  20601305.0864                   20601302.6374
 -22037459.77346 -17145906.58144  24130737.5864                   24130736.4344
 -15691567.95048 -12198700.45746  21719687.4304                   21719688.0514
 -12784741.56348  -9933415.98445  21888976.8674                   21888975.8094
 11  8 23  2 14  0.0000000  0  9G26G29G12G02G15G05G10G25G30
   4575917.88847   3579744.06344  23351768.5864                   23351767.6254
  -3695245.66047  -2866371.95045  22394929.7814                   22394927.8324
 -26715152.43747 -20789323.70146  21795630.6724                   21795629.0434
 -38494204.39447 -29966480.61245  21875711.5864                   21875707.1054
  14605324.99946  11395036.62143  24251690.5864                   24251689.1254
 -29782773.23948 -23178979.85247  20595275.7894                   20595272.9224
 -21998821.69347 -17115799.05644  24138089.7034                   24138088.6024
 -15749018.62148 -12243467.18646  21708755.1644                   21708755.2854
 -12830358.59848  -9968961.70446  21880296.2424                   21880295.1414
 11  8 23  2 14 30.0000000  0  9G26G29G12G02G15G05G10G25G30
   4415434.19647   3454691.92144  23321228.8444                   23321228.0824
  -3843904.02847  -2982209.56945  22366641.2034                   22366639.6174
 -26714080.42147 -20788488.38546  21795835.2274                   21795833.4414
 -38523445.99447 -29989266.27945  21870146.8674                   21870142.6844
  14441395.54346  11267299.44543  24220495.9384                   24220493.6334
 -29813989.71548 -23203304.36847  20589334.9064                   20589332.7384
 -21960091.05647 -17085619.35743  24145460.0784                   24145459.0554
 -15805914.83648 -12287801.88046  21697927.9304                   21697928.4654
 -12875428.49348 -10004081.08745  21871719.6094                   21871718.9224
 11  8 23  2 15  0.0000000  0  9G26G29G12G02G15G05G10G25G30
   4255091.44047   3329749.58444  23290716.7974                   23290715.2154
  -3992453.42247  -3097962.27645  22338372.8524                   22338371.9774
 -26712635.98747 -20787362.86146  21796109.6954                   21796107.9024
 -38552610.80147 -30011992.10645  21864596.7504                   21864592.5204
  14277393.79647  11139506.00244  24189287.2504                   24189286.4574
 -29844735.29448 -23227261.95447  20583484.4534                   20583482.1604
 -21921267.96346 -17055367.61243  24152847.3754                   24152846.7544
 -15862255.25548 -12331703.49246  21687206.4534                   21687207.2664
 -12919950.67248 -10038773.67545  21863247.3754                   21863245.5864
 11  8 23  2 15 30.0000000  0  9G26G29G12G02G15G05G10G25G30
   4094893.42646   3204920.01344  23260231.6094                   23260230.5474
  -4140891.49447  -3213628.23745  22310126.2584                   22310123.7304
 -26710821.87747 -20785949.30146  21796455.3914                   21796452.7894
 -38581698.71247 -30034658.02645  21859061.8914                   21859057.2734
  14113323.09647  11011658.79044  24158065.4384                   24158065.2734
 -29875011.98448 -23250854.16347  20577722.8134                   20577720.4614
 -21882354.47146 -17025045.46043  24160252.7274                   24160252.4574
 -15918040.47748 -12375172.46846  21676591.3204                   21676591.8444
 -12963926.37347 -10073040.43745  21854879.2584                   21854877.9224
 11  8 23  2 16  0.0000000  0  9G26G29G12G02G15G05G10G25G30
   3934840.94846   3080203.86543  23229774.5164                   23229773.9804
  -4289218.85447  -3329207.94045  22281899.9224                   22281898.9064
 -26708643.39147 -20784251.80246  21796869.4384                   21796867.7584
 -38610712.20347 -30057265.94145  21853540.7814                   21853536.1294
  13949183.86446  10883758.21343  24126830.5004                   24126830.1884
 -29904824.03848 -23274084.33247  20572050.0084                   20572047.1294
 -21843355.91046 -16994656.93543  24167674.0554                   24167672.1334
 -15973274.23248 -12418211.74946  21666080.3444                   21666080.8954
 -13007360.03348 -10106884.82745  21846613.2664                   21846612.5944
 11  8 23  2 16 30.0000000  0  9G26G29G12G02G15G05G10G25G30
   3774937.86646   2955604.13144  23199346.0164                   23199345.8634
  -4437433.44247  -3444699.76645  22253695.8524                   22253694.7234
 -26706103.08647 -20782272.35746  21797353.3834                   21797351.3554
 -38639651.02847 -30079815.67245  21848033.1094                   21848029.2384
  13784977.99346  10755805.69744  24095583.4454                   24095582.6414
 -29934173.76748 -23296954.22547  20566464.8834                   20566462.2034
 -21804274.68146 -16964203.93743  24175109.9844                   24175109.3364
 -16027957.46448 -12460822.04546  21655674.8284                   21655675.2854
 -13050253.22348 -10140308.07945  21838451.4924                   21838450.2194
 11  8 23  2 17  0.0000000  0  9G26G29G12G02G15G05G10G25G30
   3615186.90546   2831122.93544  23168946.5634                   23168946.0944
  -4585534.10647  -3560102.82545  22225513.0634                   22225511.6374
 -26703204.71747 -20780013.92246  21797904.8134                   21797902.3244
 -38668516.55547 -30102308.28645  21842541.1334                   21842536.2384
  13620707.70846  10627802.98644  24064324.0084                   24064323.6024
 -29963063.84148 -23319465.96746  20560967.5314                   20560964.3364
 -21765113.91946 -16933689.11742  24182562.3674                   24182560.9414
 -16082092.18348 -12503004.93046  21645373.0554                   21645373.5824
 -13092608.55648 -10173312.22245  21830391.6024                   21830389.6174
 11  8 23  2 17 30.0000000  0  9G26G29G12G02G15G05G10G25G30
   3455592.04547   2706763.37844  23138576.7114                   23138575.9454
  -4733518.18647  -3675415.05145  22197352.6334                   22197351.6994
 -26699950.66147 -20777478.31546  21798523.8984                   21798521.7464
 -38697307.79147 -30124742.98945  21837062.0944                   21837058.0314
  13456376.30346  10499752.73044  24033051.7734                   24033052.0084
 -29991495.77248 -23341620.69847  20555556.7974                   20555554.4774
 -21725875.91246 -16903114.11342  24190029.3204                   24190027.9614
 -16135678.89948 -12544760.80846  21635175.7424                   21635176.5704
 -13134427.27248 -10205898.20845  21822433.7194                   21822432.2894
 11  8 23  2 18  0.0000000  0  9G26G29G12G02G15G05G10G25G30
   3296159.19146   2582530.05544  23108238.1094                   23108237.0354
  -4881381.61047  -3790633.23745  22169215.2664                   22169213.8484
 -26696341.26147 -20774665.81946  21799210.8674                   21799208.9414
 -38726022.60147 -30147118.15445  21831597.5634                   21831593.5434
  13291988.53947  10371658.52044  24001769.9144                   24001769.8634
 -30019469.69648 -23363418.54446  20550233.8054                   20550230.8324
 -21686560.77245 -16872478.96942  24197511.5004                   24197509.4184
 -16188716.78148 -12586089.01646  21625082.7584                   21625082.9104
 -13175709.17448 -10238065.93145  21814577.9144                   21814576.6604
 11  8 23  2 18 30.0000000  0  9G26G29G12G02G15G05G10G25G30
   3136887.95846   2458422.67644  23077929.9304                   23077928.6374
  -5029126.01147  -3905758.72745  22141100.8674                   22141098.3164
 -26692383.92447 -20771582.19246  21799963.7504                   21799961.3954
 -38754665.23647 -30169437.08345  21826147.1884                   21826142.8954
  13127543.09747  10243519.27944  23970476.5474                   23970476.5634
 -30046991.70948 -23384864.24746  20544996.1644                   20544993.6804
 -21647175.19546 -16841788.94142  24205006.2274                   24205004.2194
 -16241210.87348 -12626993.50146  21615093.8054                   21615094.3014
 -13216459.79847 -10269819.65945  21806823.5164                   21806822.1374
 11  8 23  2 19  0.0000000  0  9G26G29G12G02G15G05G10G25G30
   2977782.95047   2334444.81945  23047653.2504                   23047652.1214
  -5176748.63747  -4020789.29245  22113008.9534                   22113007.2384
 -26688079.99648 -20768228.49446  21800783.3674                   21800780.9184
 -38783234.76447 -30191699.05745  21820710.8284                   21820706.6524
  12963043.85246  10115338.17844  23939173.5164                   23939173.2814
 -30074062.71148 -23405958.51646  20539844.2344                   20539841.9264
 -21607720.80146 -16811045.22543  24212514.4924                   24212513.2384
 -16293161.40248 -12667474.43346  21605207.6804                   21605208.5474
 -13256680.20647 -10301160.22645  21799169.8674                   21799168.3054
 11  8 23  2 19 30.0000000  0  9G26G29G12G02G15G05G10G25G30
   2818849.03347   2210600.27044  23017408.8754                   23017407.1174
  -5324246.17347  -4135722.41146  22084941.1334                   22084939.3914
 -26683431.30847 -20764606.16846  21801667.6254                   21801665.5634
 -38811729.62047 -30213902.82245  21815288.1334                   21815284.3134
  12798494.90847   9987118.35244  23907861.3594                   23907860.9774
 -30100683.69248 -23426702.12746  20534778.8754                   20534776.0394
 -21568199.01146 -16780249.03543  24220034.7274                   24220033.7704
 -16344568.24448 -12707531.72046  21595425.5314                   21595426.1524
 -13296370.86247 -10332088.00145  21791617.0634                   21791615.0664
 11  8 23  2 20  0.0000000  0  9G26G29G12G02G15G05G10G25G30
   2660091.64847   2086893.27645  22987198.4774                   22987197.5394
  -5471614.30247  -4250554.68846  22056897.6884                   22056895.6134
 -26678438.62447 -20760715.77346  21802617.5474                   21802615.4304
 -38840148.07647 -30236047.05045  21809880.7194                   21809875.4614
  12633900.66247   9858863.23244  23876540.0234                   23876540.1024
 -30126854.73247 -23447095.13146  20529799.0474                   20529796.1094
 -21528609.99646 -16749400.38543  24227568.4304                   24227565.9654
 -16395430.80348 -12747164.88546  21585746.8134                   21585747.2424
 -13335531.83747 -10362603.05845  21784164.6954                   21784163.5594
 11  8 23  2 20 30.0000000  0  9G26G29G12G02G15G05G10G25G30
   2501511.73947   1963324.59845  22957021.0554                   22957020.0744
  -5618854.12947  -4365286.99446  22028879.0084                   22028877.5434
 -26673108.06947 -20756562.12146  21803631.7194                   21803630.1724
 -38868492.78547 -30258133.82145  21804486.7664                   21804482.3634
  12469261.04247   9730572.71844  23845210.1804                   23845209.9964
 -30152580.99248 -23467141.53746  20524903.3524                   20524900.6804
 -21488959.29046 -16718503.81943  24235113.7344                   24235111.4734
 -16445753.22748 -12786377.16546  21576170.4534                   21576171.0234
 -13374167.95347 -10392709.12045  21776812.4924                   21776811.0514
 11  8 23  2 21  0.0000000  0  9G26G29G12G02G15G05G10G25G30
   2343113.10847   1839897.15245  22926878.9224                   22926878.2274
  -5765963.01547  -4479917.25446  22000884.8914                   22000883.2344
 -26667441.47547 -20752146.61346  21804710.5164                   21804708.6214
 -38896763.30147 -30280162.77045  21799106.5944                   21799103.0274
  12304579.65147   9602249.69644  23813871.8204                   23813872.2814
 -30177864.07847 -23486842.62746  20520092.0704                   20520088.8674
 -21449248.86746 -16687560.59843  24242671.1644                   24242668.4694
 -16495536.31948 -12825169.19546  21566697.3204                   21566697.7464
 -13412280.48647 -10422407.19745  21769559.9534                   21769558.3094
 11  8 23  2 21 30.0000000  0  9G26G29G12G02G15G05G10G25G30
   2184898.78047   1716613.34344  22896771.6174                   22896770.6524
  -5912939.44447  -4594444.29646  21972916.0944                   21972914.0634
 -26661443.05547 -20747472.53846  21805851.3284                   21805849.6524
 -38924960.47547 -30302134.60645  21793741.1414                   21793736.9694
  12139858.05747   9473895.33144  23782526.1954                   23782525.5434
 -30202706.70348 -23506200.49546  20515364.6954                   20515361.5434
 -21409481.84646 -16656573.33743  24250238.3984                   24250236.7384
 -16544782.12248 -12863542.54946  21557325.8914                   21557326.9184
 -13449872.32247 -10451699.53745  21762406.5784                   21762404.9574
 11  8 23  2 22  0.0000000  0  9G26G29G12G02G15G05G10G25G30
   2026871.50346   1593475.25244  22866700.1564                   22866699.8674
  -6059782.50747  -4708867.44446  21944972.8594                   21944971.4534
 -26655116.42248 -20742542.70246  21807055.6644                   21807053.7704
 -38953084.77347 -30324049.62045  21788388.7034                   21788385.2384
  11975098.13547   9345511.05244  23751173.4454                   23751172.8634
 -30227111.94148 -23525217.54746  20510720.3754                   20510717.5664
 -21369661.67246 -16625544.71043  24257815.9844                   24257813.8284
 -16593492.84248 -12901498.96246  21548056.8204                   21548057.2304
 -13486946.17047 -10480588.25345  21755351.5164                   21755350.7034
 11  8 23  2 22 30.0000000  0  9G26G29G12G02G15G05G10G25G30
   1869037.98846   1470488.14344  22836664.7894                   22836664.9184
  -6206486.82747  -4823182.45945  21917055.8284                   21917053.8954
 -26648460.92948 -20737356.61546  21808321.9064                   21808320.4224
 -38981133.36547 -30345905.67345  21783051.4064                   21783047.6294
  11810305.79147   9217101.57944  23719813.8754                   23719813.4654
 -30251079.14148 -23543893.27446  20506159.5944                   20506157.0314
 -21329787.40746 -16594473.85343  24265403.4844                   24265401.6414
 -16641666.87348 -12939037.18046  21538889.7584                   21538890.0784
 -13523501.08248 -10509072.60945  21748395.8054                   21748393.9264
 11  8 23  2 23  0.0000000  0  9G26G29G12G02G15G05G10G25G30
   3286825.54846   2575257.75444  23106461.0704                   23106460.1134
  -4777626.98947  -3709785.14946  22188958.9694                   22188957.0234
 -25066062.16648 -19504318.66046  22109442.9384                   22109441.3134
 -37433686.48247 -29140102.90145  22077521.3834                   22077517.5234
  13220907.91047  10316272.17644  23988242.6564                   23988242.9264
 -28699191.38448 -22334630.08546  20801473.7974                   20801471.2344
 -19714444.40746 -15335765.02443  24572793.1644                   24572791.4654
 -15113885.52648 -11748558.22146  21829616.7894                   21829617.3524
 -11984119.34047  -9309554.38445  22041330.1414                   22041328.6134
 11  8 23  2 23 30.0000000  0  9G26G29G12G02G15G05G10G25G30
   3129387.26147   2452578.58144  23076501.8204                   23076500.6174
  -4924050.56147  -3823881.39545  22161095.4614                   22161093.4774
 -25058762.29247 -19498630.45246  22110831.9064                   22110829.8524
 -37461586.58947 -29161843.24245  22072211.9534                   22072207.6134
  13056056.25946  10187816.45644  23956872.7974                   23956872.1524
 -28722292.42548 -22352630.87246  20797077.9534                   20797075.1884
 -19674472.56946 -15304618.21043  24580399.2974                   24580397.3874
 -15160993.34448 -11785265.60146  21820652.8754                   21820653.0594
 -12019645.40147  -9337237.03145  22034569.8444                   22034568.3014
 11  8 23  2 24  0.0000000  0  9G26G29G12G02G15G05G10G25G30
   2972150.29447   2330056.32144  23046580.2504                   23046578.8794
  -5070332.22347  -3937867.04046  22133258.6644                   22133257.2774
 -25051146.06847 -19492695.75946  22112281.5474                   22112278.5554
 -37489413.70147 -29183526.72545  22066917.0394                   22066912.0514
  12891177.39046  10059339.56844  23925496.8914                   23925496.9804
 -28744965.03548 -22370297.82146  20792763.4224                   20792761.0084
 -19634457.48746 -15273437.60943  24588013.0554                   24588012.4694
 -15207571.94448 -11821560.62246  21811788.4454                   21811788.7854
 -12054661.97948  -9364522.69045  22027905.8524                   22027904.9024
 11  8 23  2 24 30.0000000  0  9G26G29G12G02G15G05G10G25G30
   2815121.06947   2207695.87744  23016698.5474                   23016697.2194
  -5216466.99247  -4051738.21946  22105450.7584                   22105448.4534
 -25043213.71748 -19486514.72046  22113790.7034                   22113788.5784
 -37517165.27247 -29205151.33345  22061635.3834                   22061631.4924
  12726277.04646   9930845.88544  23894117.3984                   23894116.6954
 -28767208.97648 -22387630.76046  20788530.3914                   20788528.2344
 -19594398.63646 -15242222.98042  24595636.8524                   24595635.8914
 -15253620.04548 -11857442.25746  21803026.1414                   21803026.5084
 -12089168.23247  -9391410.68445  22021339.8204                   22021338.8134
 11  8 23  2 25  0.0000000  0  9G26G29G12G02G15G05G10G25G30
   2658302.25347   2085499.43644  22986857.4844                   22986855.1094
  -5362454.03847  -4165494.30546  22077669.6954                   22077667.9224
 -25034969.17848 -19480090.42746  22115359.6804                   22115358.0164
 -37544842.27147 -29226717.83145  22056369.0004                   22056364.7894
  12561356.82846   9802336.76244  23862733.8134                   23862732.6884
 -28789027.38848 -22404632.10546  20784378.9224                   20784375.8874
 -19554299.90646 -15210977.26543  24603266.7344                   24603265.5314
 -15299140.20648 -11892912.51346  21794363.7974                   21794364.7034
 -12123167.47947  -9417903.59645  22014869.8834                   22014868.8324
 11  8 23  2 25 30.0000000  0  9G26G29G12G02G15G05G10G25G30
   2501697.61247   1963469.88244  22957056.2424                   22957055.3444
  -5508290.88747  -4279133.32546  22049917.9064                   22049916.4494
 -25026415.05948 -19473424.89746  22116987.5474                   22116985.8014
 -37572444.24547 -29248225.85545  22051116.7664                   22051111.6214
  12396419.57546   9673814.33744  23831347.1724                   23831346.1884
 -28810422.27348 -22421303.43046  20780307.1884                   20780304.7344
 -19514162.96146 -15179701.75443  24610905.4694                   24610903.9574
 -15344133.62748 -11927972.30846  21785802.0704                   21785802.1024
 -12156661.44548  -9444002.78945  22008496.6334                   22008494.6804
 11  8 23  2 26  0.0000000  0  9G26G29G12G02G15G05G10G25G30
   2345310.95047   1841610.15844  22927296.5944                   22927295.5274
  -5653975.22147  -4392653.50645  22022195.0704                   22022193.3054
 -25017554.32948 -19466520.44446  22118673.4304                   22118671.5784
 -37599971.01547 -29269675.30945  22045878.3444                   22045873.9344
  12231468.69846   9545281.29744  23799958.2194                   23799956.8714
 -28831395.68648 -22437646.33746  20776316.2734                   20776313.5234
 -19473989.80746 -15148397.84143  24618549.9454                   24618548.8984
 -15388601.68748 -11962622.74346  21777339.8364                   21777340.3204
 -12189652.15748  -9469709.83145  22002218.5474                   22002216.7114
 11  8 23  2 26 30.0000000  0  9G26G29G12G02G15G05G10G25G30
   2189144.96447   1719922.44145  22897579.1884                   22897577.8874
  -5799505.84747  -4506053.91946  21994501.3284                   21994499.6684
 -25008390.84748 -19459380.09046  22120417.4844                   22120415.8634
 -37627423.36647 -29291066.75645  22040654.4304                   22040649.9104
  12066505.82846   9416738.89644  23768567.2274                   23768567.1174
 -28851950.96048 -22453663.43146  20772404.3914                   20772402.2194
 -19433783.81846 -15117068.40943  24626200.5554                   24626199.1644
 -15432546.97048 -11996865.82046  21768977.5554                   21768977.8134
 -12222142.80847  -9495027.21945  21996035.6954                   21996034.4614
 11  8 23  2 27  0.0000000  0  8G26G29G12G02G15G05G25G30
   2033204.11147   1598410.13645  22867904.9844                   22867904.0044
  -5944879.95648  -4619332.36146  21966837.5634                   21966836.0044
 -24998927.14347 -19452005.78845  22122217.7504                   22122216.3674
 -37654800.55747 -29312399.63845  22035444.5704                   22035440.5634
  11901534.45246   9288189.88644  23737173.3054                   23737174.0784
 -28872089.72148 -22469355.95846  20768572.6334                   20768569.6994
 -15475970.36148 -12030702.22246  21760714.2894                   21760713.9344
 -12254134.87547  -9519956.11645  21989947.7114                   21989946.4654
 11  8 23  2 27 30.0000000  0  9G26G29G12G02G15G05G21G25G30
   1877490.98547   1477075.28244  22838273.6724                   22838272.5944
  -6090096.47948  -4732488.02046  21939203.4614                   21939201.4614
 -24989166.94147 -19444400.45645  22124075.7734                   22124073.9264
 -37682103.39047 -29333674.59045  22030248.8284                   22030244.8094
  11736556.44446   9159635.72644  23705779.5944                   23705779.0204
 -28891815.08248 -22484726.37246  20764818.5784                   20764816.0824
                                  20300752.99116                  25197065.969
 -15518874.41848 -12064133.94746  21752549.8364                   21752550.0204
 -12285631.57747  -9544498.99245  21983954.0554                   21983952.3714
 11  8 23  2 28  0.0000000  0  9G26G29G12G02G15G05G21G25G30
   1722010.97347   1355922.04844  22808686.3524                   22808685.5164
  -6235150.83148  -4845517.32646  21911600.7814                   21911598.4734
 -24979111.26247 -19436564.89345  22125989.0474                   22125986.9574
 -37709329.91248 -29354890.07345  22025068.1884                   22025063.5984
  11571576.70747   9031080.14844  23674384.4384                   23674384.5314
 -28911127.60748 -22499775.08746  20761143.6414                   20761141.2774
  20176343.56846  15733023.71552  25173391.5394                   25173390.4344
 -15561258.75848 -12097160.68846  21744484.3914                   21744484.6724
 -12316633.16948  -9568656.07245  21978054.3364                   21978053.3054
 11  8 23  2 28 30.0000000  0  9G26G29G12G02G15G05G21G25G30
   1566767.80647   1234953.41645  22779144.7664                   22779143.9184
  -6380041.33848  -4958418.94446  21884028.8364                   21884027.2384
 -24968762.99347 -19428501.32445  22127958.5634                   22127957.0864
 -37736479.92248 -29376045.93045  22019901.9064                   22019897.2384
  11406597.88247   8902525.34044  23642990.3284                   23642988.7854
 -28930029.53548 -22514503.86246  20757546.7894                   20757544.5784
  20051932.89946  15636080.44542  25149717.4614                   25149716.0084
 -15603125.23948 -12129783.91246  21736517.3754                   21736518.1564
 -12347141.96448  -9592429.14545  21972249.2424                   21972248.4614
 11  8 23  2 29  0.0000000  0  9G26G29G12G02G15G05G21G25G30
   1411765.69747   1114172.59445  22749649.1024                   22749647.2894
  -6524765.09048  -5071190.61946  21856489.0864                   21856486.7034
 -24958125.08147 -19420212.06545  22129982.8204                   22129980.7304
 -37763552.84148 -29397141.71045  22014749.9534                   22014745.2734
  11241623.66647   8773974.10044  23611596.7734                   23611595.2384
 -28948522.44148 -22528913.91746  20754027.7974                   20754025.1454
  19927521.20546  15539136.45843  25126042.0084                   25126040.9454
 -15644474.91948 -12162004.44446  21728648.7734                   21728648.8834
 -12377159.69348  -9615819.57345  21966536.5864                   21966535.4064
 11  8 23  2 29 30.0000000  0  9G26G29G12G02G15G05G21G25G30
   1257008.62547    993582.73245  22720199.5234                   22720198.1844
  -6669319.41648  -5183830.29046  21828981.1724                   21828979.3484
 -24947200.07047 -19411699.07746  22132061.6094                   22132060.3984
 -37790548.22947 -29418177.06645  22009612.2424                   22009608.4574
  11076657.10047   8645428.80944  23580204.5554                   23580203.0164
 -28966608.68647 -22543007.09546  20750586.1724                   20750583.1564
  19803108.09945  15442191.24642  25102365.5864                   25102367.1564
 -15685309.15148 -12193823.31646  21720878.1564                   21720878.8634
 -12406688.29647  -9638828.85645  21960917.9144                   21960916.2234
 11  8 23  2 30  0.0000000  0  9G26G29G12G02G15G05G21G25G30
   1102498.14047    873185.00844  22690797.2734                   22690796.2544
  -6813704.13648  -5296337.80546  21801505.5944                   21801503.4344
 -24935992.87847 -19402966.23945  22134194.1484                   22134192.0234
 -37817468.15548 -29439153.62745  22004489.6724                   22004485.4344
  10911698.70447   8516889.94044  23548813.8914                   23548813.4184
 -28984292.49248 -22556786.67446  20747221.2974                   20747218.2194
  19678690.71345  15345242.78142  25078691.0784                   25078690.7344
 -15725631.90048 -12225243.63946  21713205.2584                   21713205.7154
 -12435732.31047  -9661460.55345  21955391.0864                   21955389.9654
 11  8 23  2 30 30.0000000  0  9G26G29G12G02G15G05G21G25G30
    948238.04947    752982.39945  22661441.8594                   22661441.3554
  -6957917.50848  -5408711.81846  21774063.0004                   21774060.7584
 -24924506.53947 -19394015.85745  22136380.3444                   22136378.9064
 -37844311.78947 -29460070.75145  21999381.9064                   21999377.6454
  10746752.06047   8388360.19044  23517425.6024                   23517425.1214
 -29001576.12448 -22570254.43946  20743931.9224                   20743929.1524
  19554268.97446  15248290.93842  25055013.6884                   25055013.0124
 -15765444.37748 -12256266.33946  21705629.3914                   21705630.0434
 -12464293.55247  -9683716.05245  21949955.9774                   21949954.2274
 11  8 23  2 31  0.0000000  0  9G26G29G12G02G15G05G21G25G30
    794232.78347    632978.34745  22632136.5004                   22632135.1724
  -7101956.04548  -5520949.56746  21746652.4694                   21746651.1294
 -24912743.10147 -19384849.57246  22138618.4924                   22138616.6134
 -37871078.47646 -29480927.89945  21994287.9454                   21994283.7464
  10581820.54947   8259842.19544  23486040.0164                   23486039.2274
 -29018460.98148 -22583411.46746  20740719.3054                   20740716.3984
  19429842.28646  15151335.20342  25031336.0864                   25031335.1844
 -15804747.81248 -12286892.38346  21698150.0634                   21698150.1024
 -12492373.85847  -9705596.79345  21944611.9454                   21944610.4614
 11  8 23  2 31 30.0000000  0  9G26G29G12G02G15G05G21G25G30
    640485.63147    513175.40745  22602878.7734                   22602877.5554
  -7245817.99448  -5633049.74646  21719276.6334                   21719274.6214
 -24900706.23447 -19375470.20546  22140909.1644                   22140907.6954
 -37897768.45247 -29501725.28045  21989209.3134                   21989205.3794
  10416906.88647   8131338.10344  23454657.9844                   23454657.4734
 -29034949.80648 -22596259.90846  20737581.4384                   20737578.4104
  19305410.01346  15054375.17642  25007657.8054                   25007656.5514
 -15843544.41948 -12317123.49446  21690767.1954                   21690767.4734
 -12519976.00447  -9727104.95645  21939359.9924                   21939358.3594
 11  8 23  2 32  0.0000000  0  9G26G29G12G02G15G05G21G25G30
    486999.77647    393576.08544  22573671.4304                   22573669.7704
  -7389501.56548  -5745010.92846  21691934.5474                   21691933.3524
 -24888399.26047 -19365880.39945  22143251.2504                   22143249.3674
 -37924381.93747 -29522463.06045  21984144.5164                   21984140.6094
  10252013.21947   8002849.62144  23423279.7664                   23423278.7114
 -29051045.61148 -22608802.09246  20734517.8444                   20734515.6844
  19180970.99246  14957409.87943  24983977.8834                   24983976.6954
 -15881836.45047 -12346961.44346  21683480.3594                   21683480.5164
 -12547102.84547  -9748242.74345  21934197.9064                   21934196.1454
 11  8 23  2 32 30.0000000  0  9G26G29G12G02G15G05G21G25G30
    333779.84847    274183.98244  22544514.2424                   22544513.1954
  -7533003.41748  -5856830.51246  21664627.4144                   21664625.2934
 -24875824.17147 -19356081.64045  22145643.6954                   22145642.2194
 -37950917.97248 -29543140.47845  21979095.3134                   21979090.3594
  10087143.62446   7874379.87144  23391905.9224                   23391904.9104
 -29066749.56148 -22621038.93646  20731530.1414                   20731527.2934
  19056525.87646  14860439.71143  24960295.7734                   24960296.5354
 -15919624.69448 -12376406.82046  21676289.4384                   21676289.8554
 -12573755.70948  -9769011.21045  21929125.6804                   21929123.9144
 11  8 23  2 33  0.0000000  0  9G26G29G12G02G15G05G21G25G30
    180829.47547    155001.92344  22515409.2814                   22515408.2034
  -7676321.51748  -5968506.93346  21637355.1484                   21637352.5124
 -24862984.22047 -19346076.51245  22148087.4064                   22148085.8594
 -37977376.08547 -29563757.16545  21974060.8834                   21974056.0274
   9922300.95047   7745931.15644  23360537.5004                   23360536.4694
 -29082063.96948 -22632972.23546  20728615.9454                   20728613.1214
  18932073.96446  14763464.35243  24936614.0704                   24936612.8754
 -15956910.81248 -12405460.94046  21669194.1484                   21669194.9264
 -12599936.82347  -9789412.06245  21924143.8364                   21924142.6954
 11  8 23  2 33 30.0000000  0  9G26G29G12G02G15G05G21G25G30
     28153.53247     36033.69945  22486355.9614                   22486354.5634
  -7819452.08048  -6080037.20346  21610117.8594                   21610116.0274
 -24849880.94047 -19335866.18645  22150580.8674                   22150579.0664
 -38003754.96347 -29584312.12045  21969040.6484                   21969036.1414
   9757489.52446   7617506.73444  23329174.9614                   23329173.3164
 -29096990.12248 -22644603.00046  20725775.1024                   20725772.2424
  18807615.64946  14666483.99243  24912930.1174                   24912929.8324
 -15993695.55548 -12434124.37246  21662194.3444                   21662195.1994
 -12625647.50247  -9809446.36645  21919251.4534                   21919249.9064
 11  8 23  2 34  0.0000000  0  9G26G29G12G02G15G05G21G25G30
   -124246.55447    -82719.57645  22457355.0474                   22457352.9774
  -7962395.39748  -6191421.59146  21582917.0004                   21582914.2624
 -24836519.74347 -19325454.89145  22153124.0474                   22153122.3594
 -38030056.58947 -29604806.86845  21964035.8134                   21964031.3204
   9592710.19246   7489107.35744  23297817.4454                   23297816.8324
 -29111532.46748 -22655934.69746  20723008.0164                   20723005.1524
  18683148.25046  14569496.49243  24889244.5004                   24889244.7344
 -16029983.04748 -12462400.34046  21655289.0394                   21655289.1564
 -12650892.53447  -9829117.80445  21914447.3444                   21914445.3324
 11  8 23  2 34 30.0000000  0  9G26G29G12G02G15G05G21G25G30
   1299060.17747   1026350.63745  22728201.0474                   22728200.1374
  -6529721.94148  -5075052.64546  21855545.0784                   21855543.4924
 -23247481.95947 -18087243.66845  22455507.7194                   22455506.1844
 -36480857.80547 -28397638.98145  22258838.1804                   22258834.1374
  11003393.32246   8588341.06544  23566261.9454                   23566260.4804
 -27550270.81448 -21439367.17146  21020106.0084                   21020103.5864
  20134097.30746  15700106.25343  25165351.5084                   25165350.2384
 -14490351.75948 -11262687.66146  21948271.0394                   21948271.1214
 -11100251.29747  -8620825.91545  22209524.6804                   22209522.8554
 11  8 23  2 35  0.0000000  0  9G26G29G12G02G15G05G21G25G30
   1147226.38847    908038.64545  22699308.7734                   22699307.2704
  -6672279.95748  -5186136.79946  21828417.6484                   21828415.4574
 -23233610.52447 -18076434.77845  22458146.8594                   22458145.7504
 -36507000.80748 -28418010.12945  22253863.6024                   22253859.0234
  10838690.19246   8460001.04744  23534919.4304                   23534919.0434
 -27564049.36948 -21450103.71146  21017484.1254                   21017481.3714
  20009613.42646  15603105.97243  25141663.0394                   25141662.5704
 -14525646.88948 -11290190.36346  21941554.3594                   21941554.8754
 -11124568.63247  -8639774.51245  22204897.3524                   22204895.2974
 11  8 23  2 35 30.0000000  0  9G26G29G12G02G15G05G21G25G30
    995680.70047    789951.14145  22670469.9224                   22670468.8284
  -6814642.35948  -5297068.52146  21801326.7114                   21801324.5744
 -23219488.95547 -18065430.98545  22460834.5084                   22460832.6604
 -36533064.52747 -28438319.48145  22248903.6254                   22248899.1644
  10674029.22346   8331693.90644  23503585.7974                   23503585.0204
 -27577450.00748 -21460545.77146  21014934.6094                   21014931.2194
  19885120.00746  15506098.22243  25117972.0084                   25117972.0704
 -14560449.30848 -11317309.13946  21934931.9534                   21934932.4414
 -11148426.49647  -8658365.04645  22200356.9844                   22200355.5864
 11  8 23  2 36  0.0000000  0  9G26G29G12G02G15G05G21G25G30
    844428.70847    672092.48145  22641687.4304                   22641686.6994
  -6956805.12247  -5407844.67546  21774273.9384                   21774271.8634
 -23205118.51247 -18054233.25945  22463568.8054                   22463566.6174
 -36559046.84347 -28458565.44045  22243959.7114                   22243955.4184
  10509415.12546   8203423.24944  23472260.4454                   23472259.4694
 -27590473.52148 -21470693.95246  21012456.0474                   21012452.9344
  19760618.43046  15409084.14443  25094280.4144                   25094279.0744
 -14594758.90748 -11344043.90446  21928403.1644                   21928403.2894
 -11171825.26847  -8676597.86545  22195904.2504                   22195902.3484
 11  8 23  2 36 30.0000000  0  9G26G29G12G02G15G05G21G25G30
    693473.98547    554465.44845  22612962.2734                   22612960.5744
  -7098766.08048  -5518463.58846  21747260.2664                   21747257.8754
 -23190502.31247 -18042844.04645  22466350.1954                   22466348.7114
 -36584947.55947 -28478747.79345  22239030.5164                   22239026.3834
  10344850.71947   8075191.33644  23440944.8674                   23440943.9614
 -27603122.24048 -21480550.10746  21010049.0864                   21010046.3874
  19636107.76546  15312062.95643  25070586.1254                   25070585.8674
 -14628577.80948 -11370396.31246  21921968.0004                   21921968.0984
 -11194767.62947  -8694475.04245  22191538.6884                   22191536.8054
 11  8 23  2 37  0.0000000  0  9G26G29G12G02G15G05G21G25G30
    542819.06247    437072.05945  22584292.7814                   22584292.4924
  -7240523.90948  -5628924.21146  21720283.5084                   21720282.0824
 -23175644.24447 -18031266.35445  22469177.4844                   22469176.1094
 -36610767.86547 -28498867.52045  22234117.2734                   22234113.1524
  10180338.19447   7946999.80745  23409639.6174                   23409638.5434
 -27615399.35648 -21490116.70146  21007712.9224                   21007710.2384
  19511586.32946  15215033.29443  25046891.1094                   25046890.5204
 -14661909.12248 -11396368.77946  21915625.0084                   21915625.1954
 -11217257.28647  -8711999.46145  22187258.8444                   22187256.9774
 11  8 23  2 37 30.0000000  0  9G26G29G12G02G15G05G21G25G30
    392464.31147    319912.55145  22555681.5394                   22555680.0744
  -7382079.23148  -5739227.03046  21693346.9774                   21693344.8794
 -23160550.71847 -18019505.17345  22472049.9454                   22472048.8204
 -36636510.39248 -28518926.60045  22229218.7894                   22229214.3714
  10015877.15647   7818848.43945  23378343.6724                   23378342.0004
 -27627310.60248 -21499398.17646  21005445.9224                   21005443.3594
  19387050.42846  15117992.45443  25023192.2344                   25023190.9224
 -14694758.04948 -11421965.37846  21909374.0784                   21909374.4804
 -11239299.95547  -8729175.59545  22183064.4924                   22183062.8914
 11  8 23  2 38  0.0000000  0  9G26G29G12G02G15G05G21G25G30
    242416.10947    202991.92945  22527127.8984                   22527127.0314
  -7523427.53348  -5849368.52246  21666449.3594                   21666447.3484
 -23145222.06547 -18007560.80545  22474967.2034                   22474965.8484
 -36662172.46547 -28538923.01045  22224335.0704                   22224331.1844
   9851473.14047   7690741.47745  23347058.1334                   23347056.9804
 -27638855.92348 -21508394.52746  21003249.1804                   21003246.1804
  19262502.32147  15020942.10143  24999491.5784                   24999489.8284
 -14727124.01148 -11447185.62046  21903214.8754                   21903215.3874
 -11260895.57747  -8746003.35145  22178954.6564                   22178953.5354
 11  8 23  2 38 30.0000000  0  9G26G29G12G02G15G05G21G25G30
     92678.90547     86313.62645  22498634.2734                   22498633.1954
  -7664565.36148  -5959346.02246  21639591.7584                   21639589.5204
 -23129660.83747 -17995435.18045  22477928.5864                   22477927.1414
 -36687752.69947 -28558855.65045  22219467.4454                   22219463.0234
   9687130.19847   7562682.07844  23315784.7344                   23315783.0704
 -27650036.67648 -21517106.80346  21001121.3914                   21001118.9924
  19137942.06046  14923882.23443  24975788.3364                   24975788.4924
 -14759008.12548 -11472030.39146  21897147.3674                   21897148.0704
 -11282045.78747  -8762484.06745  22174930.2424                   22174928.4064
 11  8 23  2 39  0.0000000  0  9G26G29G12G02G15G05G21G25G30
    -56743.87047    -30119.66845  22470200.0474                   22470198.9654
  -7805490.87948  -6069158.08746  21612774.4064                   21612772.1804
 -23113870.35847 -17983130.93845  22480932.9844                   22480931.6844
 -36713251.40647 -28578724.76045  22214615.6174                   22214611.5554
   9522851.02947   7434672.38144  23284523.3134                   23284521.8134
 -27660855.74048 -21525537.23546  20999062.5704                   20999059.6994
  19013368.70147  14826812.18143  24952082.3754                   24952081.7664
 -14790412.79648 -11496501.58346  21891171.5554                   21891171.7584
 -11302753.53247  -8778619.98245  22170989.7584                   22170988.0594
 11  8 23  2 39 30.0000000  0  9G26G29G12G02G15G05G21G25G30
   -205849.19347   -146305.59445  22441826.1804                   22441825.2504
  -7946202.63748  -6178803.58746  21585997.6254                   21585996.1134
 -23097854.15247 -17970650.79545  22483980.9534                   22483979.1884
 -36738668.57848 -28598530.33945  22209778.4924                   22209774.1294
   9358638.08447   7306714.31444  23253274.5634                   23253273.2704
 -27671316.33148 -21533688.35846  20997072.0944                   20997069.3164
  18888781.38446  14729731.23443  24928374.8364                   24928374.0594
 -14821340.62648 -11520601.21346  21885286.0164                   21885286.2894
 -11323021.96047  -8794413.58945  22167132.7974                   22167130.8094
 11  8 23  2 40  0.0000000  0  9G26G29G12G02G15G05G21G25G30
   -354632.56447   -262240.62645  22413513.7424                   22413512.0514
  -8086696.70348  -6288279.44646  21559262.6564                   21559260.7704
 -23081613.85647 -17957996.03045  22487071.1174                   22487069.5824
 -36764003.21447 -28618271.59645  22204957.3594                   22204952.7274
   9194495.47747   7178811.02744  23222039.3754                   23222038.2154
 -27681419.32748 -21541560.82946  20995149.5704                   20995146.7814
  18764180.21046  14632639.53843  24904664.6884                   24904663.4774
 -14851792.79848 -11544330.19946  21879491.1564                   21879491.9924
 -11342852.71047  -8809866.13245  22163358.6954                   22163357.1994
 11  8 23  2 40 30.0000000  0  9G26G29G12G02G15G05G21G25G30
   -503089.62547   -377921.42845  22385263.3284                   22385261.6254
  -8226970.12348  -6397583.38146  21532569.7734                   21532567.2584
 -23065152.46347 -17945168.99245  22490203.9774                   22490202.1454
 -36789254.21947 -28637947.69145  22200152.6254                   22200147.9884
   9030426.90447   7050965.44444  23190817.9924                   23190816.2544
 -27691166.76548 -21549156.23246  20993294.9844                   20993291.9804
  18639565.22846  14535537.02243  24880949.7034                   24880948.9614
 -14881770.74548 -11567689.64146  21873786.5784                   21873787.4224
 -11362247.81247  -8824979.22345  22159667.9924                   22159666.7854
 11  8 23  2 41  0.0000000  0  9G26G29G12G02G15G05G21G25G30
   -651217.26947   -493345.52545  22357075.6414                   22357074.2544
  -8367021.30848  -6506714.14746  21505918.1644                   21505916.8484
 -23048473.48547 -17932172.40645  22493377.6804                   22493375.9964
 -36814422.19147 -28657559.08945  22195363.1804                   22195358.0554
   8866434.62147   6923179.27044  23159611.3284                   23159609.9454
 -27700561.86348 -21556477.09046  20991506.7664                   20991503.8404
  18514935.43346  14438423.05142  24857233.3204                   24857233.6884
 -14911277.25748 -11590681.74446  21868171.7734                   21868172.3284
 -11381210.51947  -8839755.38145  22156059.8364                   22156058.3594
 11  8 23  2 41 30.0000000  0  9G26G29G12G02G15G05G21G25G30
   -799012.15847   -608510.33045  22328950.9454                   22328949.4064
  -8506848.39448  -6615670.29246  21479310.5864                   21479307.9184
 -23031580.17247 -17919008.78845  22496592.3134                   22496591.0634
 -36839506.44447 -28677105.25045  22190589.3364                   22190584.8364
   8702521.27747   6795454.63845  23128420.3984                   23128418.5554
 -27709606.89248 -21563525.17946  20989785.5004                   20989783.0124
  18390290.17046  14341296.95443  24833514.7034                   24833513.2624
 -14940314.64448 -11613308.29446  21862646.1804                   21862646.3524
 -11399743.63147  -8854196.79745  22152532.9844                   22152531.0634
 11  8 23  2 42  0.0000000  0  9G26G29G12G02G15G05G21G25G30
   -946470.43647   -723412.85045  22300890.3054                   22300888.8874
  -8646448.21248  -6724449.34146  21452745.4224                   21452743.1684
 -23014475.37347 -17905680.41345  22499846.9774                   22499845.5864
 -36864506.81748 -28696586.05045  22185832.4534                   22185827.9454
   8538690.43847   6667794.29044  23097243.4384                   23097242.7504
 -27718304.27148 -21570302.36046  20988130.5234                   20988128.1134
  18265629.09746  14244158.63742  24809792.2424                   24809790.2734
 -14968884.81148 -11635570.76246  21857209.2974                   21857209.8834
 -11417849.59647  -8868305.36345  22149087.7734                   22149086.1644
 11  8 23  2 42 30.0000000  0  9G26G29G12G02G15G05G21G25G30
  -1093589.28147   -838050.88245  22272894.6954                   22272893.5474
  -8785819.60948  -6833050.40446  21426223.8134                   21426221.3594
 -22997162.88847 -17892190.18045  22503141.5164                   22503140.2854
 -36889423.20847 -28716001.39745  22181090.8674                   22181086.4454
   8374944.59447   6540200.19745  23066083.3984                   23066082.6604
 -27726657.01148 -21576810.99146  20986541.1254                   20986538.1954
  18140950.85846  14147006.78443  24786066.1884                   24786065.5434
 -14996990.71248 -11657471.47246  21851861.1644                   21851861.5474
 -11435531.89847  -8882083.78645  22145722.6414                   22145721.1334
 11  8 23  2 43  0.0000000  0  9G26G29G12G02G15G05G21G25G30
  -1240362.73147   -952419.77345  22244964.9774                   22244962.9304
  -8924958.08048  -6941469.96546  21399746.9144                   21399745.1024
 -22979643.35947 -17878538.62245  22506475.4534                   22506474.0164
 -36914253.54547 -28735349.70745  22176365.5784                   22176361.3204
   8211288.60647   6412676.11245  23034940.9694                   23034940.7424
 -27734665.48448 -21583051.36046  20985016.8134                   20985014.5554
  18016257.17746  14049843.07043  24762338.5864                   24762336.3244
 -15024632.31848 -11679010.39546  21846601.3204                   21846601.8914
 -11452790.92747  -8895532.40745  22142438.5474                   22142437.3324
 11  8 23  2 43 30.0000000  0  9G26G29G12G02G15G05G21G25G30
  -1386788.38847  -1066517.66245  22217100.5234                   22217099.5434
  -9063862.19548  -7049706.90746  21373314.0944                   21373312.1134
 -22961921.15147 -17864729.12745  22509848.5164                   22509846.7774
 -36938998.86647 -28754631.76345  22171656.6724                   22171652.5124
   8047724.69047   6285223.75945  23003815.9454                   23003815.1724
 -27742333.27448 -21589026.25846  20983558.0164                   20983555.5944
  17891546.09946  13952665.73143  24738606.7114                   24738604.4264
 -15051813.12148 -11700190.25446  21841428.7814                   21841429.2934
 -11469630.75547  -8908654.36945  22139234.0004                   22139233.0044
 11  8 23  2 44  0.0000000  0  9G26G29G12G02G15G05G21G25G30
  -1532862.45747  -1180341.57445  22189303.3754                   22189302.0274
  -9202529.38548  -7157759.24346  21346926.7664                   21346924.5704
 -22943999.11547 -17850763.93545  22513258.2734                   22513257.1914
 -36963658.56647 -28773847.10145  22166964.5084                   22166959.7814
   7884255.89347   6157845.54245  22972708.9144                   22972707.9454
 -27749662.54948 -21594737.35646  20982163.1484                   20982160.7734
  17766817.65646  13855474.85743  24714870.9454                   24714870.8014
 -15078535.02448 -11721012.51346  21836343.8754                   21836343.9844
 -11486053.62447  -8921451.43145  22136108.6644                   22136107.4734
 11  8 23  2 44 30.0000000  0  9G26G29G12G02G15G05G21G25G30
  -1678582.38647  -1293889.53945  22161574.3984                   22161572.2544
  -9340958.69748  -7265626.20346  21320584.4224                   21320582.1374
 -22925881.84547 -17836646.60345  22516706.0084                   22516704.6414
 -36988233.29647 -28792996.22045  22162287.6644                   22162282.9184
   7720884.38147   6030543.12245  22941620.2814                   22941619.4454
 -27756656.96048 -21600187.53946  20980832.2584                   20980830.1954
  17642069.72246  13758268.79243  24691131.8834                   24691130.7704
 -15104801.52147 -11741479.91846  21831345.5234                   21831345.8134
 -11502063.71847  -8933926.86145  22133062.5394                   22133060.9454
 11  8 23  2 45  0.0000000  0  9G26G29G12G02G15G05G21G25G30
  -1823943.97847  -1407158.28445  22133913.1484                   22133911.1804
  -9479146.45348  -7373304.93746  21294288.3984                   21294286.0904
 -22907570.90347 -17822378.36145  22520190.6254                   22520188.8954
 -37012721.51546 -28812077.96745  22157627.8984                   22157623.1414
   7557613.76247   5903319.34945  22910550.3914                   22910549.8094
 -27763318.12948 -21605378.06346  20979564.3834                   20979561.5514
  17517302.87146  13661047.96743  24667389.9844                   24667388.8484
 -15130613.95047 -11761593.49846  21826433.5704                   21826433.5394
 -11517662.68247  -8946081.90745  22130094.4144                   22130092.2304
 11  8 23  2 45 30.0000000  0  9G26G29G12G02G15G05G21G25G30
  -1968943.96547  -1520145.24045  22106319.7274                   22106318.1764
  -9617091.14048  -7480794.26246  21268037.8364                   21268035.6254
 -22889070.45847 -17807962.46045  22523711.1804                   22523709.5354
 -37037123.96347 -28831092.82845  22152984.4534                   22152979.4224
   7394446.70947   5776176.24844  22879501.1024                   22879499.9924
 -27769649.19148 -21610311.34846  20978359.8914                   20978357.4574
  17392515.85246  13563811.50543  24643644.1174                   24643642.4774
 -15155975.24148 -11781355.55746  21821607.5004                   21821607.7974
 -11532854.00547  -8957919.32345  22127203.3594                   22127201.8164
 11  8 23  2 46  0.0000000  0  9G26G29G12G02G15G05G21G25G30
   -538152.42947   -405242.71545  22378590.7034                   22378589.0984
  -8179364.20948  -6360487.54446  21541628.5234                   21541626.4064
 -21294962.16447 -16565800.18045  22827060.0784                   22827058.2424
 -35486017.76747 -27622438.62145  22448149.6644                   22448145.1414
   8806813.54347   6876721.89744  23148265.1564                   23148264.1954
 -26200230.55648 -20387387.72846  21277010.3834                   21277007.6954
  18843133.84346  14694163.31543  24919687.1414                   24919685.7034
 -13605465.33148 -10573166.02846  22116659.6094                   22116660.0944
  -9972218.42047  -7741839.66045  22424182.6334                   22424180.8594
 11  8 23  2 46 30.0000000  0  9G26G29G12G02G15G05G21G25G30
   -682416.90747   -517656.54745  22351137.4534                   22351136.7274
  -8316813.90548  -6467591.15446  21515472.3834                   21515470.1134
 -21276089.68747 -16551094.37645  22830651.4304                   22830649.7274
 -35510245.57547 -27641317.42245  22443540.0864                   22443535.1134
   8643864.68547   6749748.83944  23117257.0474                   23117255.6724
 -26205906.64948 -20391810.65846  21275930.2424                   21275927.5784
  18718306.77346  14596895.52543  24895933.0554                   24895932.1054
 -13629929.58548 -10592229.08246  22112004.2504                   22112004.5824
  -9986601.04847  -7753046.92745  22421445.5084                   22421443.7344
 11  8 23  2 47  0.0000000  0  9G26G29G12G02G15G05G21G25G30
   -826309.10247   -629780.29645  22323756.6804                   22323754.1024
  -8454013.16648  -6574499.62946  21489364.3134                   21489361.6954
 -21257036.72447 -16536247.94645  22834276.8524                   22834274.8794
 -35534386.41247 -27660128.45145  22438945.4774                   22438941.4064
   8481028.77347   6622863.78244  23086270.0864                   23086269.5354
 -26211259.94448 -20395982.04246  21274911.3674                   21274908.6804
  18593458.19346  14499611.01143  24872175.7504                   24872173.8674
 -13653949.60048 -10610945.98346  22107433.0784                   22107434.0744
 -10000584.36747  -7763943.04445  22418783.8914                   22418782.5944
 11  8 23  2 47 30.0000000  0  9G26G29G12G02G15G05G21G25G30
   -969822.54047   -741608.91545  22296446.2114                   22296445.0554
  -8590956.63148  -6681208.77946  21463304.6254                   21463302.4494
 -21237803.18947 -16521260.81445  22837937.3054                   22837935.8834
 -35558436.71447 -27678868.94345  22434369.3284                   22434364.4574
   8318311.94347   6496071.49944  23055306.4694                   23055305.2424
 -26216289.60748 -20399901.26446  21273954.2894                   21273951.8164
  18468590.42846  14402311.50943  24848413.1174                   24848412.4224
 -13677524.75648 -10629316.23446  22102947.0084                   22102947.5044
 -10014168.15047  -7774527.82745  22416199.7504                   22416198.1884
 11  8 23  2 48  0.0000000  0 10G26G29G12G02G15G05G21G25G30G18
  -1112955.56447   -853141.12045  22269209.2194                   22269207.2734
  -8727644.00748  -6787718.38846  21437293.7424                   21437292.0164
 -21218394.23647 -16506136.99145  22841630.4454                   22841628.5594
 -35582398.40747 -27697540.37845  22429809.3444                   22429804.2974
   8155714.98047   6369372.61545  23024365.5234                   23024364.1294
 -26221000.16748 -20403571.82346  21273057.9694                   21273055.2384
  18343701.04146  14304995.27243  24824647.9844                   24824646.4144
 -13700659.42248 -10647343.24246  22098544.5554                   22098545.1134
 -10027357.23747  -7784805.05445  22413689.2344                   22413688.2304
  23402032.41956  18249274.68052  24760466.6174                   24760466.9884
 11  8 23  2 48 30.0000000  0 10G26G29G12G02G15G05G21G25G30G18
  -1255708.87147   -964377.42245  22242043.9614                   22242042.2384
  -8864077.16948  -6894029.88446  21411331.7194                   21411329.1764
 -21198817.17347 -16490882.14545  22845355.6024                   22845354.4184
 -35606274.96047 -27716145.48545  22425265.8284                   22425261.2734
   7993237.28647   6242766.64945  22993446.8524                   22993445.9964
 -26225398.40248 -20406999.00746  21272220.8204                   21272218.1844
  18218785.20246  14207658.33643  24800877.1644                   24800876.0164
 -13723360.15248 -10665032.11046  22094224.9304                   22094225.2424
 -10040158.59447  -7794780.17545  22411254.0084                   22411252.5124
  23243805.59746  18125981.17343  24730356.8364                   24730356.6414
 11  8 23  2 49  0.0000000  0 10G26G29G12G02G15G05G21G25G30G18
  -1398081.11147  -1075316.80945  22214951.9224                   22214950.1454
  -9000255.62348  -7000142.92346  21385417.5554                   21385415.9224
 -21179077.28247 -16475500.43345  22849112.2584                   22849110.4414
 -35630068.22047 -27734685.68145  22420737.8914                   22420733.5514
   7830879.57947   6116254.20345  22962551.8134                   22962550.6024
 -26229488.94448 -20410186.42946  21271442.2734                   21271440.2384
  18093840.36446  14110298.80543  24777101.4384                   24777099.2114
 -13745631.53147 -10682386.44246  22089986.8984                   22089987.0314
 -10052577.33347  -7804457.11445  22408890.9454                   22408889.2154
  23085734.18146  18002808.88643  24700276.1884                   24700276.6214
 11  8 23  2 49 30.0000000  0 10G26G29G12G02G15G05G21G25G30G18
  -1540069.69547  -1185957.21145  22187931.8054                   22187930.1684
  -9136178.21048  -7106056.57246  21359552.1884                   21359550.3954
 -21159178.32847 -16459994.79745  22852898.8674                   22852897.0554
 -35653778.90847 -27753161.53845  22416226.0474                   22416221.6414
   7668643.91247   5989836.85145  22931678.8284                   22931677.3284
 -26233275.15948 -20413136.72746  21270722.1334                   21270719.2234
  17968864.90546  14012915.46343  24753319.2504                   24753316.7274
 -13767476.99048 -10699408.86546  22085829.8914                   22085830.6254
 -10064617.24347  -7813838.89145  22406599.4454                   22406597.8714
  22927818.42046  17879757.87343  24670226.2734                   24670225.5634
 11  8 23  2 50  0.0000000  0 10G26G29G12G02G15G05G21G25G30G18
  -1681663.37847  -1296289.91345  22160987.6174                   22160986.4224
  -9271834.65148  -7211762.85346  21333737.6804                   21333735.6994
 -21139116.03647 -16444361.86845  22856717.2584                   22856714.8204
 -35677398.97147 -27771566.79145  22411731.4384                   22411726.5124
   7506540.90547   5863522.86845  22900831.6024                   22900830.8914
 -26236752.00448 -20415845.93446  21270060.7814                   21270057.8634
  17843866.12146  13915513.89843  24729532.1024                   24729530.6294
 -13788891.29148 -10716095.32646  22081754.9694                   22081754.9224
 -10076273.50847  -7822921.70445  22404380.9224                   22404379.7664
  22770067.36646  17756835.18143  24640206.5314                   24640207.0204
 11  8 23  2 50 30.0000000  0 10G26G29G12G02G15G05G21G25G30G18
  -1822855.58647  -1406309.77145  22134119.4224                   22134118.0164
  -9407219.54748  -7317257.52046  21307974.6564                   21307972.8524
 -21118890.20747 -16428601.52045  22860565.7664                   22860563.8594
 -35700924.86347 -27789898.65645  22407254.4614                   22407248.9614
   7344577.14047   5737317.40445  22870011.1804                   22870009.7974
 -26239918.61548 -20418313.41646  21269457.8754                   21269455.2774
  17718846.74846  13818096.32743  24705741.5554                   24705741.3874
 -13809873.61648 -10732445.18046  22077762.2344                   22077762.5634
 -10087545.81847  -7831705.34545  22402236.3364                   22402234.6684
  22612485.78546  17634044.59943  24610219.9694                   24610218.7624
 11  8 23  2 51  0.0000000  0 10G26G29G12G02G15G05G21G25G30G18
  -1963643.01047  -1516014.20445  22107328.3364                   22107327.3364
  -9542330.75148  -7422538.93946  21282264.3284                   21282261.8634
 -21098504.14647 -16412716.30445  22864445.4614                   22864443.4414
 -35724356.82947 -27808157.33745  22402795.6484                   22402791.1174
   7182755.18447   5611222.45145  22839216.9844                   22839216.4344
 -26242777.49248 -20420541.10146  21268913.9224                   21268910.9574
  17593805.76446  13720661.92543  24681947.2274                   24681945.0004
 -13830426.89948 -10748460.72546  22073851.0164                   22073851.1054
 -10098437.54847  -7840192.41045  22400163.7504                   22400162.2114
  22455074.88446  17511387.00543  24580265.1484                   24580265.1644
 11  8 23  2 51 30.0000000  0 10G26G29G12G02G15G05G21G25G30G18
  -2104020.92947  -1625399.53145  22080615.2194                   22080613.8284
  -9677164.48148  -7527604.13046  21256605.9224                   21256604.2344
 -21077959.34447 -16396707.40545  22868354.2974                   22868352.7234
 -35747692.26348 -27826340.79745  22398354.6254                   22398350.3054
   7021079.64547   5485241.57345  22808451.5704                   22808449.4494
 -26245329.80348 -20422529.90246  21268428.2034                   21268425.3984
  17468744.08446  13623211.40143  24658147.7894                   24658147.4304
 -13850552.01148 -10764142.62046  22070020.8754                   22070021.0434
 -10108949.90747  -7848383.86245  22398163.0314                   22398161.8794
  22297837.10546  17388864.29643  24550343.4534                   24550343.1764
 11  8 23  2 52  0.0000000  0 10G26G29G12G02G15G05G21G25G30G18
  -2243985.20347  -1734462.54345  22053980.7344                   22053979.6954
  -9811717.88548  -7632450.89246  21231001.5474                   21230998.8554
 -21057258.60247 -16380576.98945  22872293.7814                   22872291.7504
 -35770930.84547 -27844448.78045  22393933.0704                   22393928.1024
   6859554.37347   5359377.77345  22777714.2034                   22777712.5004
 -26247578.12948 -20424281.83646  21268000.2664                   21267998.1254
  17343661.96446  13525744.91843  24634346.7894                   24634344.8984
 -13870251.25948 -10779492.67946  22066272.3834                   22066273.3484
 -10119085.67947  -7856281.88345  22396234.4454                   22396233.1294
  22140773.76046  17266477.55243  24520455.7734                   24520455.0314
 11  8 23  2 52 30.0000000  0 10G26G29G12G02G15G05G21G25G30G18
  -2383534.50947  -1843202.19745  22027425.6884                   22027424.3714
  -9945990.83848  -7737079.12146  21205450.2584                   21205447.2664
 -21036407.30747 -16364329.25745  22876261.7034                   22876259.9344
 -35794074.03047 -27862482.44445  22389528.8674                   22389524.2894
   6698180.12247   5233631.66445  22747005.8444                   22747003.9844
 -26249526.70748 -20425800.19746  21267629.7034                   21267626.9494
  17218556.32546  13428260.09543  24610539.2424                   24610538.7234
 -13889529.17848 -10794514.43046  22062604.0864                   22062604.4104
 -10128849.79247  -7863890.27045  22394376.8284                   22394375.2704
  21983884.04646  17144226.02643  24490599.6094                   24490600.4884
 11  8 23  2 53  0.0000000  0 10G26G29G12G02G15G05G21G25G30G18
  -2522664.31047  -1951614.97345  22000949.7894                   22000948.8364
 -10079979.49248  -7841485.82346  21179952.9304                   21179950.5234
 -21015407.13347 -16347965.52545  22880257.9064                   22880255.9534
 -35817120.34647 -27880440.64545  22385143.2894                   22385138.7304
   6536961.27747   5108006.65745  22716326.8054                   22716324.8204
 -26251176.77648 -20427085.96446  21267315.2194                   21267312.9884
  17093428.16046  13330757.74743  24586727.5704                   24586726.6804
 -13908387.03048 -10809208.85646  22059015.5944                   22059015.7344
 -10138243.90247  -7871210.37045  22392589.0394                   22392587.5314
  21827170.84046  17022112.01443  24460776.5784                   24460778.0594
 11  8 23  2 53 30.0000000  0 10G26G29G12G02G15G05G21G25G30G18
  -2661370.98847  -2059698.03945  21974555.0784                   21974553.7544
 -10213681.40048  -7945669.08046  21154510.4614                   21154507.6294
 -20994261.10047 -16331488.12945  22884281.5394                   22884280.1484
 -35840069.41747 -27898323.05145  22380776.4064                   22380771.7664
   6375900.89847   4982505.11845  22685677.7034                   22685676.0784
 -26252530.74748 -20428140.99646  21267057.6174                   21267055.3134
  16968277.19046  13233237.49243  24562913.2114                   24562910.4304
 -13926827.31148 -10823577.90346  22055506.6644                   22055506.4884
 -10147270.88347  -7878244.37945  22390871.1954                   22390869.5944
  21670635.24446  16900136.49642  24430990.3444                   24430989.7854
 11  8 23  2 54  0.0000000  0 10G26G29G12G02G15G05G21G25G30G18
  -2799652.38447  -2167449.72445  21948240.3754                   21948239.0904
 -10347095.61448  -8049628.16946  21129122.3444                   21129120.0554
 -20972973.34147 -16314900.29345  22888333.1804                   22888330.8984
 -35862921.91847 -27916130.21945  22376427.2504                   22376423.2154
   6215001.15747   4857128.75645  22655059.6024                   22655057.4384
 -26253592.02048 -20428967.95446  21266855.8204                   21266852.9264
  16843101.71046  13135698.42643  24539092.6024                   24539090.4184
 -13944853.73748 -10837624.48146  22052076.0704                   22052077.1454
 -10155934.94947  -7884995.60545  22389222.1884                   22389220.5944
  21514277.70346  16778299.64243  24401236.2344                   24401235.9614
 11  8 23  2 54 30.0000000  0 10G26G29G12G02G15G05G21G25G30G18
  -2937506.44047  -2274868.40845  21922008.5084                   21922006.3094
 -10480221.03048  -8153362.21846  21103789.2814                   21103787.1684
 -20951548.36847 -16298205.54345  22892410.0004                   22892408.4694
 -35885679.11647 -27933863.12045  22372097.3754                   22372092.3674
   6054263.52347   4731878.70045  22624472.1804                   22624470.0234
 -26254364.59248 -20429569.94446  21266708.8054                   21266705.9734
  16717899.51846  13038138.33243  24515266.3134                   24515265.1804
 -13962470.34448 -10851351.72446  22048723.7814                   22048724.4804
 -10164240.44647  -7891467.42045  22387641.9224                   22387640.9964
  21358097.79146  16656601.17642  24371515.6564                   24371514.6254
 11  8 23  2 55  0.0000000  0 10G26G29G12G02G15G05G21G25G30G18
  -3074929.48847  -2381951.24945  21895858.0784                   21895855.6054
 -10613054.75248  -8256868.98246  21078511.5394                   21078509.4104
 -20929989.18047 -16281406.19545  22896512.5944                   22896511.4534
 -35908339.75447 -27951520.74445  22367785.1024                   22367780.3164
   5893691.61947   4606757.80345  22593916.1724                   22593913.8674
 -26254850.72548 -20429948.73546  21266616.2114                   21266613.7544
  16592670.53546  12940557.40343  24491436.4694                   24491435.3714
 -13979679.40748 -10864761.38746  22045449.3284                   22045449.5944
 -10172190.02047  -7897661.90545  22386129.2034                   22386128.3754
  21202096.71946  16535042.10443  24341830.4304                   24341829.7464
 11  8 23  2 55 30.0000000  0 10G26G29G12G02G15G05G21G25G30G18
  -3211918.73247  -2488696.04245  21869789.4144                   21869787.3244
 -10745595.13448  -8360147.16446  21053289.8674                   21053287.6214
 -20908299.17547 -16264504.92545  22900640.1254                   22900638.7704
 -35930904.29447 -27969103.51145  22363490.7344                   22363485.9964
   5733287.85647   4481767.91445  22563392.4924                   22563390.1804
 -26255053.79548 -20430106.96246  21266577.6094                   21266574.7704
  16467413.63646  12842954.75143  24467600.5314                   24467599.4844
 -13996484.25448 -10877856.07246  22042250.8204                   22042251.7304
 -10179787.44547  -7903581.98845  22384683.6174                   22384681.9304
  21046275.36346  16413623.05743  24312177.9224                   24312176.9184
 11  8 23  2 56  0.0000000  0 10G26G29G12G02G15G05G21G25G30G18
  -3348470.63347  -2595100.07445  21843804.3054                   21843802.4534
 -10877839.27447  -8463194.51046  21028124.8284                   21028122.9024
 -20886481.45547 -16247504.14245  22904791.9774                   22904790.2194
 -35953372.40947 -27986611.15345  22359215.4064                   22359211.1684
   5573055.37047   4356911.48545  22532901.4614                   22532899.1844
 -26254975.96048 -20430046.28646  21266592.3914                   21266589.4494
  16342128.67746  12745330.22143  24443760.0634                   24443757.7154
 -14012887.26448 -10890637.65346  22039129.8594                   22039130.1054
 -10187035.58047  -7909229.89445  22383304.2114                   22383302.7974
  20890635.08346  16292345.19043  24282560.9774                   24282560.0004
 11  8 23  2 56 30.0000000  0 10G26G29G12G02G15G05G21G25G30G18
  -3484580.76647  -2701159.87045  21817903.3524                   21817901.6054
 -11009784.67248  -8566009.09346  21003016.5704                   21003014.4384
 -20864538.04247 -16230405.40245  22908967.6254                   22908965.7114
 -35975742.47147 -28004042.38445  22354958.3984                   22354953.9694
   5412998.18847   4232191.65845  22502442.9224                   22502441.5704
 -26254618.57348 -20429767.80446  21266660.1414                   21266657.9384
  16216815.91646  12647683.98843  24419913.7734                   24419910.8444
 -14028890.27348 -10903107.54146  22036084.4844                   22036084.7894
 -10193936.47247  -7914607.21745  22381990.9144                   22381989.3444
  20735177.84846  16171209.89842  24252977.3984                   24252977.3204
 11  8 23  2 57  0.0000000  0 10G26G29G12G02G15G05G21G25G30G18
  -3620245.21647  -2806872.36045  21792087.2734                   21792085.4694
 -11141427.77148  -8668588.09146  20977965.6884                   20977963.6684
 -20842471.44447 -16213210.67845  22913166.4454                   22913165.1644
 -35998013.41647 -28021396.35745  22350719.9694                   22350715.7974
   5253120.37047   4107611.59345  22472019.1884                   22472017.7304
 -26253983.25248 -20429272.73246  21266780.9844                   21266778.7344
  16091475.76946  12550016.51843  24396061.7114                   24396058.9534
 -14044494.93848 -10915267.03246  22033114.6954                   22033115.3204
 -10200492.28947  -7919715.65845  22380743.2734                   22380742.2154
  20579905.72046  16050218.88443  24223429.7424                   24223429.0234
 11  8 23  2 57 30.0000000  0 10G26G29G12G02G15G05G21G25G30G18
  -2180038.77947  -1684633.52145  22066149.4774                   22066148.3954
  -9697344.36648  -7543328.28846  21252765.6954                   21252763.1524
 -19244867.86047 -14968324.82045  23217180.4064                   23217178.9654
 -34444766.94447 -26811074.45145  22646293.3914                   22646289.0904
   6668847.55547   5210775.66845  22741422.8754                   22741421.8134
 -24677655.42148 -19200965.32046  21566746.7344                   21566743.8634
  17541529.27646  13679928.42943  24671997.6884                   24671995.6294
 -12484286.23848  -9699520.01246  22330012.6724                   22330013.6684
  -8631288.50847  -6696959.49245  22679352.8594                   22679351.7934
  22000242.30246  17156974.81243  24493711.6564                   24493711.3014
 11  8 23  2 58  0.0000000  0 10G26G29G12G02G15G05G21G25G30G18
  -2314805.05648  -1789646.17745  22040503.6174                   22040502.3324
  -9828378.87848  -7645433.08146  21227830.3284                   21227828.5474
 -19222566.75647 -14950947.37344  23221424.3674                   23221423.0084
 -34466841.53847 -26828275.42245  22642093.0164                   22642088.4534
   6509334.63047   5086479.92945  22711068.4924                   22711066.8284
 -24676475.36648 -19200045.78146  21566971.0394                   21566968.0594
  17416129.87047  13582214.72043  24648134.6024                   24648132.7854
 -12499105.71648  -9711067.67146  22327192.6884                   22327193.0984
  -8637166.53147  -6701539.78645  22678234.4304                   22678233.4264
  21845340.40246  17036272.23443  24464233.9454                   24464232.9614
 11  8 23  2 58 30.0000000  0 10G26G29G12G02G15G05G21G25G30G18
  -2449116.03147  -1894303.99445  22014945.3364                   22014943.5274
  -9959104.49948  -7747297.18546  21202954.1724                   21202951.7854
 -19200152.05147 -14933481.39445  23225689.8914                   23225688.4184
 -34488816.16747 -26845398.53245  22637911.0784                   22637906.5634
   6350009.89247   4962330.82645  22680750.6954                   22680748.8404
 -24675025.97048 -19198916.38046  21567246.4534                   21567244.3874
  17290701.32147  13484478.30343  24624267.1334                   24624264.5124
 -12513535.50748  -9722311.69446  22324446.7974                   22324447.6484
  -8642709.21547  -6705858.77145  22677179.7734                   22677178.3404
  21690626.69146  16915716.27943  24434792.9924                   24434792.1414
 11  8 23  2 59  0.0000000  0 10G26G29G12G02G15G05G21G25G30G18
  -2582968.93647  -1998604.90345  21989473.9924                   21989472.7894
 -10089519.06448  -7848918.90646  21178137.0164                   21178135.0984
 -19177627.08647 -14915929.51345  23229976.1954                   23229974.8134
 -34510690.94347 -26862443.80045  22633748.4384                   22633744.1134
   6190875.92147   4838330.37245  22650467.7974                   22650466.8914
 -24673309.43048 -19197578.80246  21567573.4384                   21567570.6174
  17165242.41346  13386718.21943  24600392.5944                   24600390.3914
 -12527578.75448  -9733254.48846  22321774.5394                   22321775.3014
  -8647919.93147  -6709919.08845  22676188.1954                   22676186.6994
  21536101.88046  16795307.51643  24405387.2584                   24405386.0354
 11  8 23  2 59 30.0000000  0 10G26G29G12G02G15G05G21G25G30G18
  -2716361.51147  -2102547.13545  21964090.5004                   21964088.3094
 -10219621.85247  -7950297.70046  21153379.6724                   21153377.2234
 -19154996.25247 -14898295.13245  23234283.6414                   23234280.8524
 -34532466.76447 -26879412.00845  22629604.8984                   22629600.2894
   6031934.61947   4714480.05645  22620222.6724                   22620221.0744
 -24671329.79748 -19196036.19946  21567950.2814                   21567947.4964
  17039751.21046  13288932.98943  24576512.7344                   24576510.7114
 -12541239.47748  -9743899.22946  22319175.6174                   22319175.9184
  -8652803.13147  -6713724.21645  22675258.9924                   22675257.1804
  21381766.04046  16675045.93643  24376018.1564                   24376018.0824
 11  8 23  3  0  0.0000000  0 10G26G29G12G02G15G05G21G25G30G18
  -2849290.14247  -2206127.82745  21938795.0234                   21938792.8954
 -10349409.45347  -8051430.87046  21128681.6954                   21128679.4064
 -19132261.85147 -14880580.02844  23238608.6724                   23238607.1764
 -34554142.42447 -26896302.14345  22625479.9224                   22625475.7234
   5873189.74047   4590782.78645  22590014.3914                   22590012.6484
 -24669088.80448 -19194289.95846  21568376.5704                   21568374.0664
  16914228.51146  13191123.23643  24552626.2504                   24552624.4774
 -12554519.64048  -9754247.43346  22316648.0944                   22316648.2934
  -8657361.08447  -6717275.88845  22674391.5704                   22674390.2234
  21227620.65146  16554932.83843  24346685.1094                   24346684.9454
 11  8 23  3  0 30.0000000  0 10G26G29G12G02G15G05G21G25G30G18
  -2981750.94347  -2309343.98045  21913588.3524                   21913586.6954
 -10478879.26548  -8152316.43446  21104044.1334                   21104042.2114
 -19109426.73647 -14862786.50444  23242954.6254                   23242951.8014
 -34575716.79147 -26913113.34845  22621374.7344                   22621369.9384
   5714645.02847   4467241.49345  22559844.2664                   22559842.9184
 -24666588.27848 -19192341.47146  21568852.2814                   21568849.5664
  16788674.23346  13093288.82643  24528734.0634                   24528731.8794
 -12567421.61447  -9764300.94046  22314192.8754                   22314193.4694
  -8661596.51647  -6720576.23745  22673586.0164                   22673584.2504
  21073667.20646  16434969.24343  24317388.3524                   24317388.7034
 11  8 23  3  1  0.0000000  0 10G26G29G12G02G15G05G21G25G30G18
  -3113739.10347  -2412191.86345  21888471.5864                   21888470.1214
 -10608027.15948  -8252951.14146  21079468.1484                   21079465.7664
 -19086492.41847 -14844915.62444  23247318.6564                   23247316.8484
 -34597188.27947 -26929844.39645  22617288.4614                   22617283.6564
   5556304.93847   4343859.65945  22529713.5314                   22529711.7814
 -24663829.23848 -19190191.55046  21569377.6174                   21569375.1094
  16663089.03646  12995430.37343  24504836.1884                   24504834.0004
 -12579946.56847  -9774060.66445  22311809.2344                   22311809.9654
  -8665510.99547  -6723626.50845  22672841.3134                   22672839.8674
  20919908.50846  16315157.38243  24288129.8914                   24288130.0124
 11  8 23  3  1 30.0000000  0 10G26G29G12G02G15G05G21G25G30G18
  -3245253.19547  -2514670.32945  21863445.4144                   21863443.3674
 -10736852.51847  -8353334.52046  21054953.6484                   21054951.5354
 -19063463.41547 -14826970.97744  23251700.9384                   23251698.5864
 -34618558.06447 -26946496.20945  22613222.1024                   22613218.3554
   5398171.28347   4220638.66945  22499621.8284                   22499619.9104
 -24660815.91248 -19187843.48846  21569951.0314                   21569948.3524
  16537471.31646  12897546.55743  24480930.8364                   24480930.1884
 -12592098.91847  -9783530.04545  22309496.6254                   22309497.1454
  -8669109.18347  -6726430.31145  22672156.1254                   22672154.8634
  20766344.00146  16195496.89143  24258907.2114                   24258907.0164
 11  8 23  3  2  0.0000000  0 10G26G29G12G02G15G05G21G25G30G18
  -3376291.58247  -2616778.13045  21838509.7504                   21838507.7074
 -10865354.36547  -8453465.79746  21030500.5234                   21030498.1844
 -19040344.13846 -14808955.99444  23256100.4064                   23256097.9734
 -34639827.05147 -26963069.48245  22609175.2734                   22609170.1374
   5240245.15547   4097579.38045  22469569.2344                   22469567.2664
 -24657552.35348 -19185300.45146  21570572.0314                   21570569.4534
  16411818.88246  12799635.70443  24457020.9774                   24457018.0744
 -12603882.95947  -9792712.45246  22307254.2194                   22307255.1724
  -8672395.73347  -6728991.30045  22671530.8054                   22671529.1454
  20612973.35746  16075987.38643  24229721.5004                   24229721.1644
 11  8 23  3  2 30.0000000  0 10G26G29G12G02G15G05G21G25G30G18
  -3506846.98047  -2718509.57045  21813665.4224                   21813663.6804
 -10993526.99948  -8553340.54446  21006110.1174                   21006107.8134
 -19017134.19746 -14790870.37044  23260516.6954                   23260515.5314
 -34660990.83447 -26979560.77345  22605147.2194                   22605143.0554
   5082533.65347   3974687.33645  22439558.2584                   22439555.7544
 -24654037.19148 -19182561.33346  21571241.2814                   21571237.8524
  16286134.92747  12701700.26843  24433104.1024                   24433102.0664
 -12615297.88547  -9801607.23145  22305082.0944                   22305082.7114
  -8675370.16647  -6731309.04645  22670964.4454                   22670963.4844
  20459800.98646  15956632.43543  24200573.2114                   24200573.3984
 11  8 23  3  3  0.0000000  0 10G26G29G12G02G15G05G21G25G30G18
  -3636918.92547  -2819864.30645  21788913.7974                   21788912.3014
 -11121370.22947  -8652958.61246  20981782.4454                   20981780.0204
 -18993838.92946 -14772718.26245  23264949.5864                   23264947.9024
 -34682051.75747 -26995971.90645  22601139.8594                   22601135.3954
   4925037.37047   3851963.01445  22409587.0474                   22409584.6684
 -24650275.35748 -19179630.02946  21571956.7664                   21571953.3594
  16160416.76946  12603738.17743  24409180.6484                   24409177.9884
 -12626348.76747  -9810218.31945  22302979.3204                   22302980.1644
  -8678037.84847  -6733387.76145  22670457.1334                   22670456.3014
  20306825.95346  15837431.27443  24171463.6334                   24171462.8674
 11  8 23  3  3 30.0000000  0 10G26G29G12G02G15G05G21G25G30G18
  -3766505.77847  -2920841.04445  21764254.1954                   21764252.6994
 -11248883.33748  -8752319.45246  20957517.6024                   20957515.0314
 -18970462.75747 -14754503.12545  23269398.6334                   23269397.3714
 -34703010.88247 -27012303.72545  22597151.4144                   22597147.1804
   4767758.19047   3729407.85845  22379658.0784                   22379655.9574
 -24646271.15448 -19176509.84546  21572718.5164                   21572716.1454
  16034662.26146  12505747.78143  24385249.8594                   24385247.5784
 -12637040.04047  -9818549.20946  22300944.9924                   22300945.6764
  -8680403.58047  -6735231.21845  22670006.8594                   22670005.6604
  20154047.67446  15718383.45143  24142390.5164                   24142390.0744
 11  8 23  3  4  0.0000000  0 10G26G29G12G02G15G05G21G25G30G18
  -3895603.78647  -3021436.87845  21739687.6724                   21739685.5084
 -11376063.30148  -8851420.69546  20933316.1024                   20933313.7504
 -18947008.29047 -14736226.97745  23273862.0784                   23273860.2624
 -34723866.95647 -27028555.22045  22593182.6484                   22593178.5124
   4610699.58547   3607024.56645  22349770.3914                   22349768.0554
 -24642025.92048 -19173201.85346  21573526.2114                   21573523.6254
  15908871.56246  12407729.11643  24361312.8834                   24361310.5084
 -12647373.76747  -9826601.47145  22298978.6024                   22298979.0434
  -8682469.67047  -6736841.16945  22669613.1334                   22669612.4884
  20001467.98546  15599490.20743  24113354.6644                   24113354.2704
 11  8 23  3  4 30.0000000  0 10G26G29G12G02G15G05G21G25G30G18
  -4024210.90847  -3121650.18845  21715214.5164                   21715212.7154
 -11502908.79248  -8950261.29446  20909177.8594                   20909175.6094
 -18923479.62747 -14717893.00645  23278339.3984                   23278338.0394
 -34744620.93847 -27044727.16745  22589233.7274                   22589228.7774
   4453863.33047   3484814.54045  22319925.4144                   22319923.0084
 -24637543.39148 -19169708.95846  21574379.6724                   21574376.8754
  15783043.04946  12309681.08143  24337368.0084                   24337365.8524
 -12657354.21547  -9834378.48045  22297079.7814                   22297080.2424
  -8684240.74147  -6738221.23145  22669276.5784                   22669275.2464
  19849086.57846  15480751.59243  24084357.6804                   24084356.8914
 11  8 23  3  5  0.0000000  0 10G26G29G12G02G15G05G21G25G30G18
  -4152323.76147  -3221478.35045  21690835.1724                   21690833.5594
 -11629417.39348  -9048839.40646  20885103.9144                   20885102.2154
 -18899879.50147 -14699503.35045  23282830.5554                   23282829.1844
 -34765271.85747 -27060818.82045  22585303.6414                   22585299.1724
   4297252.94347   3362780.52345  22290123.6334                   22290121.2034
 -24632825.98048 -19166033.02946  21575277.3594                   21575274.4964
  15657177.10946  12211603.88443  24313416.0474                   24313413.7424
 -12666983.75347  -9841882.03145  22295247.2034                   22295247.6334
  -8685719.47347  -6739373.51045  22668995.1804                   22668993.9534
  19696904.71446  15362168.54943  24055398.7974                   24055397.2344
 11  8 23  3  5 30.0000000  0 10G26G29G12G02G15G05G21G25G30G18
  -4279937.18347  -3320917.35045  21666551.5004                   21666549.5904
 -11755584.85948  -9147151.68746  20861095.0634                   20861092.3204
 -18876209.27347 -14681059.03845  23287334.5164                   23287332.7194
 -34785817.76547 -27076828.66045  22581393.9384                   22581389.5004
   4140873.69047   3240926.60945  22260365.4384                   22260363.8014
 -24627873.96748 -19162174.29646  21576219.1644                   21576216.3324
  15531274.76246  12113498.16743  24289458.2114                   24289455.3754
 -12676263.50047  -9849113.03745  22293481.1174                   22293481.8594
  -8686907.11447  -6740298.97845  22668769.2504                   22668767.3204
  19544925.38446  15243743.21743  24026478.0314                   24026475.8794
 11  8 23  3  6  0.0000000  0 10G26G29G12G02G15G05G21G25G30G18
  -4407046.40447  -3419963.46645  21642363.3674                   21642361.1134
 -11881406.96047  -9245194.85046  20837152.2194                   20837149.7274
 -18852469.71847 -14662560.73645  23291852.1094                   23291851.4804
 -34806255.94047 -27092754.54245  22577504.6254                   22577500.3914
   3984730.25947   3119256.45745  22230652.0784                   22230650.0164
 -24622687.88148 -19158133.18646  21577206.2814                   21577203.8634
  15405337.59346  12015365.46243  24265491.8674                   24265490.9734
 -12685194.24247  -9856072.07145  22291781.7734                   22291782.4494
  -8687804.89547  -6740998.56245  22668598.2344                   22668597.2544
  19393151.58446  15125478.01643  23997596.2664                   23997595.1954
 11  8 23  3  6 30.0000000  0 10G26G29G12G02G15G05G21G25G30G18
  -4533651.34447  -3518616.64345  21618271.2664                   21618269.2384
 -12006884.35247  -9342969.42946  20813274.1174                   20813271.8674
 -18828667.06147 -14644013.24444  23296381.5944                   23296380.1844
 -34826589.10047 -27108598.58045  22573635.5394                   22573631.0784
   3828822.70947   2997770.08745  22200984.1484                   22200982.7934
 -24617273.29948 -19153913.99946  21578236.5864                   21578233.9224
  15279362.28746  11917202.99043  24241520.4844                   24241518.1484
 -12693781.86247  -9862763.76045  22290147.4694                   22290148.1454
  -8688418.94347  -6741477.06645  22668481.8284                   22668480.1804
  19241581.11746  15007371.28643  23968753.5394                   23968752.5474
 11  8 23  3  7  0.0000000  0 10G26G29G12G02G15G05G21G25G30G18
  -4659748.05847  -3616873.79545  21594275.4924                   21594273.3714
 -12132013.60648  -9440472.71546  20789463.3444                   20789461.1804
 -18804803.28846 -14625418.13444  23300922.4844                   23300921.1334
 -34846815.82747 -27124359.67145  22569786.2734                   22569781.6724
   3673155.33347   2876470.89345  22171361.3834                   22171359.6134
 -24611631.80048 -19149518.00346  21579310.0084                   21579307.9454
  15153349.36946  11819011.21043  24217540.8364                   24217538.1214
 -12702028.36147  -9869189.62545  22288578.4304                   22288579.0004
  -8688751.57247  -6741736.30545  22668418.6954                   22668416.6764
  19090216.37846  14889424.85143  23939949.1954                   23939949.3484
 11  8 23  3  7 30.0000000  0 10G26G29G12G02G15G05G21G25G30G18
  -4785332.20647  -3714731.54445  21570377.5164                   21570376.3524
 -12256791.51247  -9537702.23646  20765718.5314                   20765716.0164
 -18780880.23946 -14606776.85444  23305474.4304                   23305473.8054
 -34866934.54147 -27140036.60545  22565958.5554                   22565953.4304
   3517731.89347   2755361.76545  22141785.5944                   22141783.7624
 -24605764.75748 -19144946.27446  21580426.7114                   21580424.0164
  15027299.50345  11720790.64643  24193554.1804                   24193552.6094
 -12709935.62847  -9875351.15545  22287073.3134                   22287074.0664
  -8688804.96747  -6741777.91045  22668408.9924                   22668406.6994
  18939059.03247  14771640.00643  23911185.0634                   23911183.7584
 11  8 23  3  8  0.0000000  0 10G26G29G12G02G15G05G21G25G30G18
  -4910402.33247  -3812188.76945  21546577.5554                   21546575.9964
 -12381217.10848  -9634657.23046  20742041.0164                   20742038.5704
 -18756902.26246 -14588092.75144  23310038.3054                   23310035.5554
 -34886945.88047 -27155629.85945  22562150.0394                   22562145.3954
   3362554.38447   2634444.25645  22112255.8284                   22112254.2894
 -24599675.58748 -19140201.46546  21581584.8524                   21581582.3404
  14901211.14946  11622540.05143  24169559.8914                   24169558.0274
 -12717507.84347  -9881251.60545  22285632.9534                   22285634.0004
  -8688583.51547  -6741605.40545  22668450.8284                   22668449.6024
  18788108.77947  14654016.56043  23882460.3914                   23882459.7734
 11  8 23  3  8 30.0000000  0 10G26G29G12G02G15G05G21G25G30G18
  -5034956.18747  -3909243.67845  21522876.1174                   21522874.2974
 -12505288.87448  -9731336.52146  20718431.4304                   20718428.8284
 -18732873.45246 -14569369.05244  23314609.9614                   23314608.4454
 -34906850.35047 -27171139.87844  22558361.9924                   22558357.8014
   3207625.32247   2513720.37045  22082773.8834                   22082772.1024
 -24593367.66548 -19135286.19246  21582785.8914                   21582783.0944
  14775082.95346  11524258.42743  24145558.6884                   24145556.9024
 -12724748.64547  -9886893.81345  22284254.8284                   22284255.4694
  -8688091.15347  -6741221.76645  22668544.2664                   22668542.8324
  18637365.73847  14536554.53243  23853774.6024                   23853772.9384
 11  8 23  3  9  0.0000000  0 10G26G29G12G02G15G05G21G25G30G18
  -3583566.14747  -2778290.36945  21799066.1414                   21799064.1994
 -11053579.64548  -8600134.51246  20994682.3444                   20994680.0864
 -17133376.71646 -13323007.98944  23618984.4224                   23618982.0594
 -33351226.48947 -25958965.48645  22854387.6884                   22854383.7194
   4628373.36447   3620796.79945  22353132.8674                   22353130.9844
 -23011423.24048 -17902602.21746  21883819.5234                   21883816.6214
  16224339.26746  12653549.15944  24421341.8284                   24421340.9534
 -11156240.22447  -8664679.50345  22582732.3364                   22582733.0204
  -7111910.64047  -5513029.19445  22968481.4064   22968480.8054   20062256.63346
  15646859.19943                  24124922.7114                   24124921.5084
 11  8 23  3  9 30.0000000  0 10G26G29G12G02G15G05G21G25G30G18
  -3707076.00547  -2874531.78945  21775562.9064                   21775560.8134
 -11176934.13248  -8696254.86446  20971208.6644                   20971206.2384
 -17109252.14146 -13304209.67144  23623575.0474                   23623573.8324
 -33370913.56647 -25974306.08644  22850641.2894                   22850637.4614
   4473952.52047   3500468.91345  22323747.7734                   22323746.2734
 -23004682.76048 -17897349.89646  21885102.0554                   21885099.6454
  16098132.53846  12555206.36843  24397326.3284                   24397323.9344
 -11162824.65847  -8669810.24445  22581478.8594                   22581479.7304
  -7110883.67047  -5512229.00445  22968676.8134   22968675.4414   19911933.71446
  15529724.62443                  24096316.4454                   24096314.7034
 11  8 23  3 10  0.0000000  0 10G26G29G12G02G15G05G21G25G30G18
  -3830061.25947  -2970364.45345  21752159.6414                   21752157.7304
 -11299928.34748  -8792094.50346  20947803.4844                   20947801.1524
 -17085086.05546 -13285378.95944  23628174.2814                   23628172.5474
 -33390492.90847 -25989562.73644  22846915.7274                   22846910.8364
   4319788.55247   3380341.17245  22294411.7194                   22294409.4494
 -22997731.39248 -17891933.24946  21886425.1804                   21886422.3794
  15971884.35746  12456831.26443  24373302.9064                   24373300.2774
 -11169086.98147  -8674690.01945  22580286.9454                   22580288.0824
  -7109595.90147  -5511225.58845  22968922.1334   22968921.0044   19761820.69746
  15412753.49943                  24067750.5474                   24067749.8594
 11  8 23  3 10 30.0000000  0 10G26G29G12G02G15G05G21G25G30G18
  -3952519.78947  -3065786.65745  21728856.3524                   21728854.9104
 -11422560.57048  -8887652.06246  20924467.7194                   20924465.0434
 -17060882.16147 -13266518.80144  23632780.0864                   23632778.5474
 -33409964.97847 -26004735.80545  22843210.2584                   22843205.6764
   4165884.05247   3260415.63945  22265124.2814                   22265122.4844
 -22990572.27048 -17886354.70846  21887787.8674                   21887784.6094
  15845593.82446  12358423.17443  24349270.5784                   24349268.7584
 -11175030.95147  -8679321.70145  22579156.3444                   22579157.1054
  -7108051.27847  -5510022.01645  22969215.7034   22969214.6524   19611917.42246
  15295945.90743                  24039225.7814                   24039223.2934
 11  8 23  3 11  0.0000000  0 10G26G29G12G02G15G05G21G25G30G18
  -4074446.97847  -3160794.85145  21705654.7344                   21705652.9734
 -11544826.96248  -8982924.54846  20901201.2734                   20901198.8054
 -17036641.80447 -13247630.24644  23637392.5164                   23637390.9024
 -33429327.72147 -26019823.66545  22839525.4384                   22839521.0474
   4012243.43147   3140695.72145  22235887.6564                   22235885.5554
 -22983206.10348 -17880614.84346  21889189.3134                   21889186.0634
  15719261.91846  12259982.77443  24325230.0634                   24325227.5274
 -11180657.96247  -8683706.42745  22578085.2584                   22578086.1214
  -7106251.40647  -5508619.55945  22969558.2814   22969556.9454   19462226.33946
  15179303.62143                  24010739.4384                   24010738.1994
 11  8 23  3 11 30.0000000  0 10G26G29G12G02G15G05G21G25G30G18
  -4195838.99647  -3255386.02845  21682554.4064                   21682552.4184
 -11666724.65548  -9077909.75246  20878004.4534                   20878002.3404
 -17012366.94947 -13228714.79144  23642011.6884                   23642010.4224
 -33448579.47147 -26034825.05345  22835861.6174                   22835857.9774
   3858870.80347   3021184.62545  22206701.4694                   22206699.6334
 -22975634.75348 -17874715.09646  21890629.9454                   21890626.8834
  15592889.22346  12161510.65943  24301181.7974                   24301179.0274
 -11185970.01047  -8687845.71145  22577074.5864                   22577075.8874
  -7104198.59947  -5507020.01244  22969948.6954   22969947.8594   19312749.81946
  15062828.58043                  23982294.9694                   23982294.4224
 11  8 23  3 12  0.0000000  0 10G26G29G12G02G15G05G21G25G30G18
  -4316694.70647  -3349559.27945  21659556.2424                   21659554.3244
 -11788252.56447  -9172606.79946  20854878.4064                   20854876.0664
 -16988062.15947 -13209776.05044  23646637.9224                   23646635.6764
 -33467721.25447 -26049740.75845  22832219.6024                   22832215.4104
   3705767.64147   2901883.50645  22177566.7344                   22177565.6374
 -22967861.68448 -17868658.17546  21892109.2194                   21892106.3954
  15466473.76646  12063005.21843  24277125.4844                   24277123.0984
 -11190971.58847  -8691743.07645  22576122.9304                   22576124.1294
  -7101897.58447  -5505227.03744  22970386.7274   22970385.3674   19163486.76546
  14946519.79843                  23953891.1954                   23953890.2154
 11  8 23  3 12 30.0000000  0 10G26G29G12G02G15G05G21G25G30G18
  -4437008.75647  -3443310.47045  21636661.3524                   21636659.3794
 -11909406.14948  -9267012.18446  20831824.1484                   20831821.2544
 -16963727.92747 -13190814.34245  23651268.1724                   23651266.7154
 -33486750.26847 -26064568.60745  22828598.4694                   22828594.3484
   3552939.58747   2782796.75845  22148484.6804                   22148483.0084
 -22959886.97648 -17862444.11646  21893626.6024                   21893623.8754
  15340018.09946  11964468.39143  24253062.1724                   24253057.7854
 -11195663.23747  -8695398.92945  22575230.3364                   22575231.8244
  -7099349.08147  -5503241.21545  22970872.0234   22970871.0904   19014440.81546
  14830380.25543                  23925529.7584                   23925527.6724
 11  8 23  3 13  0.0000000  0 10G26G29G12G02G15G05G21G25G30G18
  -4556780.06947  -3536638.74445  21613869.1954                   21613867.9734
 -12030184.84647  -9361125.43846  20808840.6954                   20808837.7344
 -16939369.05647 -13171833.46945  23655903.6174                   23655902.0554
 -33505667.87847 -26079309.60945  22824998.6174                   22824994.4884
   3400387.65647   2663925.16945  22119454.6884                   22119452.7774
 -22951714.76848 -17856076.17246  21895181.6024                   21895179.4144
  15213519.53246  11865898.11343  24228990.1644                   24228986.8674
 -11200049.75047  -8698817.02145  22574395.6174                   22574396.3054
  -7096558.06947  -5501066.43445  22971403.0474   22971402.1334   18865610.93046
  14714409.03944                  23897207.4694                   23897205.8754
 11  8 23  3 13 30.0000000  0 10G26G29G12G02G15G05G21G25G30G18
  -4676006.01747  -3629542.07345  21591181.8674                   21591179.6644
 -12150586.59348  -9454944.96746  20785928.6484                   20785926.4884
 -16914988.64047 -13152835.80045  23660542.7504                   23660541.7274
 -33524473.82747 -26093963.61544  22821419.7194                   22821415.0164
   3248114.93247   2545271.14045  22090478.6724                   22090476.6374
 -22943347.74648 -17849556.42146  21896773.9534                   21896771.2464
  15086977.66446  11767294.15443  24204910.1334                   24204907.0704
 -11204134.24947  -8701999.77545  22573618.2114                   22573619.1994
  -7093528.00947  -5498705.36845  22971979.9774   22971977.6764   18716997.85446
  14598606.73943                  23868927.8984                   23868925.4344
 11  8 23  3 14  0.0000000  0 10G26G29G12G02G15G05G21G25G30G18
  -4794684.13548  -3722018.51045  21568597.5394                   21568596.0354
 -12270609.44148  -9548469.24746  20763089.0474                   20763087.1804
 -16890589.85246 -13133823.78844  23665186.0944                   23665184.7344
 -33543167.94547 -26108530.49244  22817862.2814                   22817857.5744
   3096124.20247   2426836.85446  22061555.0944                   22061553.9184
 -22934788.72148 -17842887.06546  21898402.9774                   21898399.9774
  14960391.96547  11668656.05144  24180821.5394                   24180819.1294
 -11207920.06047  -8704949.79445  22572898.3524                   22572898.8324
  -7090262.42747  -5496160.78844  22972600.4924   22972600.2504   18568602.09346
  14482973.75743                  23840688.5474                   23840686.5634
